<?xml version='1.0' encoding='UTF-8'?>
<gpx version="1.1" creator="https://www.komoot.de" xmlns="http://www.topografix.com/GPX/1/1" xmlns:xsi="http://www.w3.org/2001/XMLSchema-instance" xsi:schemaLocation="http://www.topografix.com/GPX/1/1 http://www.topografix.com/GPX/1/1/gpx.xsd">
  <metadata>
    <name>DVV Tarp - Wanderweg entlang der Eulenskulpturen</name>
    <author>
      <link href="https://www.komoot.de">
        <text>komoot</text>
        <type>text/html</type>
      </link>
    </author>
  </metadata>
  <trk>
    <name>DVV Tarp - Wanderweg entlang der Eulenskulpturen</name>
    <trkseg>
      <trkpt lat="54.660425" lon="9.397055">
        <ele>66.398310</ele>
        <time>2021-01-24T08:31:19.000Z</time>
      </trkpt>
      <trkpt lat="54.660329" lon="9.397116">
        <ele>66.398310</ele>
        <time>2021-01-24T08:31:29.000Z</time>
      </trkpt>
      <trkpt lat="54.660279" lon="9.397144">
        <ele>66.398310</ele>
        <time>2021-01-24T08:31:32.000Z</time>
      </trkpt>
      <trkpt lat="54.660262" lon="9.397155">
        <ele>66.398310</ele>
        <time>2021-01-24T08:31:33.000Z</time>
      </trkpt>
      <trkpt lat="54.660252" lon="9.397167">
        <ele>66.398310</ele>
        <time>2021-01-24T08:31:34.000Z</time>
      </trkpt>
      <trkpt lat="54.660218" lon="9.397245">
        <ele>66.398310</ele>
        <time>2021-01-24T08:31:41.000Z</time>
      </trkpt>
      <trkpt lat="54.660203" lon="9.397282">
        <ele>66.398310</ele>
        <time>2021-01-24T08:31:44.000Z</time>
      </trkpt>
      <trkpt lat="54.660189" lon="9.397292">
        <ele>66.398310</ele>
        <time>2021-01-24T08:31:45.000Z</time>
      </trkpt>
      <trkpt lat="54.660169" lon="9.397309">
        <ele>66.398310</ele>
        <time>2021-01-24T08:31:47.000Z</time>
      </trkpt>
      <trkpt lat="54.660164" lon="9.397319">
        <ele>66.398310</ele>
        <time>2021-01-24T08:31:48.000Z</time>
      </trkpt>
      <trkpt lat="54.660159" lon="9.397328">
        <ele>66.398310</ele>
        <time>2021-01-24T08:31:49.000Z</time>
      </trkpt>
      <trkpt lat="54.660118" lon="9.397414">
        <ele>66.398310</ele>
        <time>2021-01-24T08:31:54.000Z</time>
      </trkpt>
      <trkpt lat="54.660113" lon="9.397453">
        <ele>66.398310</ele>
        <time>2021-01-24T08:31:56.000Z</time>
      </trkpt>
      <trkpt lat="54.660084" lon="9.397548">
        <ele>66.398310</ele>
        <time>2021-01-24T08:32:01.000Z</time>
      </trkpt>
      <trkpt lat="54.660043" lon="9.397694">
        <ele>66.398310</ele>
        <time>2021-01-24T08:32:07.000Z</time>
      </trkpt>
      <trkpt lat="54.660034" lon="9.397721">
        <ele>66.398310</ele>
        <time>2021-01-24T08:32:08.000Z</time>
      </trkpt>
      <trkpt lat="54.659956" lon="9.397949">
        <ele>66.398310</ele>
        <time>2021-01-24T08:32:15.000Z</time>
      </trkpt>
      <trkpt lat="54.659952" lon="9.397973">
        <ele>66.398310</ele>
        <time>2021-01-24T08:32:16.000Z</time>
      </trkpt>
      <trkpt lat="54.659916" lon="9.398150">
        <ele>66.398310</ele>
        <time>2021-01-24T08:32:24.000Z</time>
      </trkpt>
      <trkpt lat="54.659905" lon="9.398211">
        <ele>66.398310</ele>
        <time>2021-01-24T08:32:28.000Z</time>
      </trkpt>
      <trkpt lat="54.659896" lon="9.398257">
        <ele>66.372489</ele>
        <time>2021-01-24T08:32:30.000Z</time>
      </trkpt>
      <trkpt lat="54.659873" lon="9.398327">
        <ele>66.321570</ele>
        <time>2021-01-24T08:32:33.000Z</time>
      </trkpt>
      <trkpt lat="54.659854" lon="9.398367">
        <ele>66.288832</ele>
        <time>2021-01-24T08:32:35.000Z</time>
      </trkpt>
      <trkpt lat="54.659854" lon="9.398388">
        <ele>66.275550</ele>
        <time>2021-01-24T08:32:36.000Z</time>
      </trkpt>
      <trkpt lat="54.659838" lon="9.398499">
        <ele>66.203196</ele>
        <time>2021-01-24T08:32:41.000Z</time>
      </trkpt>
      <trkpt lat="54.659832" lon="9.398522">
        <ele>66.187237</ele>
        <time>2021-01-24T08:32:42.000Z</time>
      </trkpt>
      <trkpt lat="54.659779" lon="9.398650">
        <ele>66.087672</ele>
        <time>2021-01-24T08:32:47.000Z</time>
      </trkpt>
      <trkpt lat="54.659770" lon="9.398676">
        <ele>66.068508</ele>
        <time>2021-01-24T08:32:48.000Z</time>
      </trkpt>
      <trkpt lat="54.659725" lon="9.398830">
        <ele>65.959379</ele>
        <time>2021-01-24T08:32:55.000Z</time>
      </trkpt>
      <trkpt lat="54.659695" lon="9.398938">
        <ele>65.883601</ele>
        <time>2021-01-24T08:33:00.000Z</time>
      </trkpt>
      <trkpt lat="54.659693" lon="9.398975">
        <ele>65.860096</ele>
        <time>2021-01-24T08:33:02.000Z</time>
      </trkpt>
      <trkpt lat="54.659687" lon="9.399012">
        <ele>65.835792</ele>
        <time>2021-01-24T08:33:04.000Z</time>
      </trkpt>
      <trkpt lat="54.659688" lon="9.399050">
        <ele>65.811732</ele>
        <time>2021-01-24T08:33:06.000Z</time>
      </trkpt>
      <trkpt lat="54.659681" lon="9.399068">
        <ele>65.798013</ele>
        <time>2021-01-24T08:33:07.000Z</time>
      </trkpt>
      <trkpt lat="54.659640" lon="9.399175">
        <ele>65.716833</ele>
        <time>2021-01-24T08:33:12.000Z</time>
      </trkpt>
      <trkpt lat="54.659641" lon="9.399197">
        <ele>65.702875</ele>
        <time>2021-01-24T08:33:13.000Z</time>
      </trkpt>
      <trkpt lat="54.659615" lon="9.399330">
        <ele>65.614078</ele>
        <time>2021-01-24T08:33:20.000Z</time>
      </trkpt>
      <trkpt lat="54.659602" lon="9.399376">
        <ele>65.581696</ele>
        <time>2021-01-24T08:33:22.000Z</time>
      </trkpt>
      <trkpt lat="54.659584" lon="9.399420">
        <ele>65.547609</ele>
        <time>2021-01-24T08:33:24.000Z</time>
      </trkpt>
      <trkpt lat="54.659563" lon="9.399458">
        <ele>65.514368</ele>
        <time>2021-01-24T08:33:26.000Z</time>
      </trkpt>
      <trkpt lat="54.659549" lon="9.399508">
        <ele>65.479233</ele>
        <time>2021-01-24T08:33:28.000Z</time>
      </trkpt>
      <trkpt lat="54.659525" lon="9.399568">
        <ele>65.433092</ele>
        <time>2021-01-24T08:33:32.000Z</time>
      </trkpt>
      <trkpt lat="54.659515" lon="9.399644">
        <ele>65.383794</ele>
        <time>2021-01-24T08:33:36.000Z</time>
      </trkpt>
      <trkpt lat="54.659525" lon="9.399666">
        <ele>65.366097</ele>
        <time>2021-01-24T08:33:38.000Z</time>
      </trkpt>
      <trkpt lat="54.659529" lon="9.399681">
        <ele>65.355650</ele>
        <time>2021-01-24T08:33:39.000Z</time>
      </trkpt>
      <trkpt lat="54.659535" lon="9.399695">
        <ele>65.344629</ele>
        <time>2021-01-24T08:33:40.000Z</time>
      </trkpt>
      <trkpt lat="54.659559" lon="9.399737">
        <ele>65.307287</ele>
        <time>2021-01-24T08:33:43.000Z</time>
      </trkpt>
      <trkpt lat="54.659571" lon="9.399767">
        <ele>65.284217</ele>
        <time>2021-01-24T08:33:45.000Z</time>
      </trkpt>
      <trkpt lat="54.659610" lon="9.399839">
        <ele>65.221827</ele>
        <time>2021-01-24T08:33:51.000Z</time>
      </trkpt>
      <trkpt lat="54.659619" lon="9.399855">
        <ele>65.207710</ele>
        <time>2021-01-24T08:33:52.000Z</time>
      </trkpt>
      <trkpt lat="54.659641" lon="9.399945">
        <ele>65.145911</ele>
        <time>2021-01-24T08:33:57.000Z</time>
      </trkpt>
      <trkpt lat="54.659646" lon="9.399986">
        <ele>65.119408</ele>
        <time>2021-01-24T08:33:59.000Z</time>
      </trkpt>
      <trkpt lat="54.659656" lon="9.400031">
        <ele>65.088918</ele>
        <time>2021-01-24T08:34:02.000Z</time>
      </trkpt>
      <trkpt lat="54.659659" lon="9.400061">
        <ele>65.069661</ele>
        <time>2021-01-24T08:34:04.000Z</time>
      </trkpt>
      <trkpt lat="54.659665" lon="9.400079">
        <ele>65.056521</ele>
        <time>2021-01-24T08:34:06.000Z</time>
      </trkpt>
      <trkpt lat="54.659674" lon="9.400110">
        <ele>65.034582</ele>
        <time>2021-01-24T08:34:08.000Z</time>
      </trkpt>
      <trkpt lat="54.659683" lon="9.400132">
        <ele>65.017539</ele>
        <time>2021-01-24T08:34:10.000Z</time>
      </trkpt>
      <trkpt lat="54.659709" lon="9.400160">
        <ele>64.984044</ele>
        <time>2021-01-24T08:34:12.000Z</time>
      </trkpt>
      <trkpt lat="54.659755" lon="9.400233">
        <ele>64.915765</ele>
        <time>2021-01-24T08:34:18.000Z</time>
      </trkpt>
      <trkpt lat="54.659780" lon="9.400248">
        <ele>64.886829</ele>
        <time>2021-01-24T08:34:21.000Z</time>
      </trkpt>
      <trkpt lat="54.659804" lon="9.400280">
        <ele>64.853687</ele>
        <time>2021-01-24T08:34:23.000Z</time>
      </trkpt>
      <trkpt lat="54.659847" lon="9.400324">
        <ele>64.799049</ele>
        <time>2021-01-24T08:34:26.000Z</time>
      </trkpt>
      <trkpt lat="54.659853" lon="9.400334">
        <ele>64.789936</ele>
        <time>2021-01-24T08:34:27.000Z</time>
      </trkpt>
      <trkpt lat="54.659863" lon="9.400364">
        <ele>64.768036</ele>
        <time>2021-01-24T08:34:30.000Z</time>
      </trkpt>
      <trkpt lat="54.659871" lon="9.400381">
        <ele>64.754174</ele>
        <time>2021-01-24T08:34:31.000Z</time>
      </trkpt>
      <trkpt lat="54.659960" lon="9.400450">
        <ele>64.647518</ele>
        <time>2021-01-24T08:34:38.000Z</time>
      </trkpt>
      <trkpt lat="54.659990" lon="9.400460">
        <ele>64.614109</ele>
        <time>2021-01-24T08:34:40.000Z</time>
      </trkpt>
      <trkpt lat="54.660010" lon="9.400470">
        <ele>64.591343</ele>
        <time>2021-01-24T08:34:42.000Z</time>
      </trkpt>
      <trkpt lat="54.660017" lon="9.400475">
        <ele>64.583062</ele>
        <time>2021-01-24T08:34:43.000Z</time>
      </trkpt>
      <trkpt lat="54.660020" lon="9.400479">
        <ele>64.578919</ele>
        <time>2021-01-24T08:34:44.000Z</time>
      </trkpt>
      <trkpt lat="54.660041" lon="9.400487">
        <ele>64.555405</ele>
        <time>2021-01-24T08:34:46.000Z</time>
      </trkpt>
      <trkpt lat="54.660080" lon="9.400526">
        <ele>64.506139</ele>
        <time>2021-01-24T08:34:49.000Z</time>
      </trkpt>
      <trkpt lat="54.660088" lon="9.400537">
        <ele>64.494962</ele>
        <time>2021-01-24T08:34:50.000Z</time>
      </trkpt>
      <trkpt lat="54.660128" lon="9.400563">
        <ele>64.448234</ele>
        <time>2021-01-24T08:34:53.000Z</time>
      </trkpt>
      <trkpt lat="54.660145" lon="9.400580">
        <ele>64.428776</ele>
        <time>2021-01-24T08:34:55.000Z</time>
      </trkpt>
      <trkpt lat="54.660160" lon="9.400589">
        <ele>64.418738</ele>
        <time>2021-01-24T08:34:56.000Z</time>
      </trkpt>
      <trkpt lat="54.660190" lon="9.400631">
        <ele>64.394333</ele>
        <time>2021-01-24T08:34:59.000Z</time>
      </trkpt>
      <trkpt lat="54.660195" lon="9.400644">
        <ele>64.388624</ele>
        <time>2021-01-24T08:35:00.000Z</time>
      </trkpt>
      <trkpt lat="54.660198" lon="9.400659">
        <ele>64.382820</ele>
        <time>2021-01-24T08:35:01.000Z</time>
      </trkpt>
      <trkpt lat="54.660207" lon="9.400696">
        <ele>64.368142</ele>
        <time>2021-01-24T08:35:03.000Z</time>
      </trkpt>
      <trkpt lat="54.660259" lon="9.400777">
        <ele>64.323891</ele>
        <time>2021-01-24T08:35:07.000Z</time>
      </trkpt>
      <trkpt lat="54.660356" lon="9.400849">
        <ele>64.257154</ele>
        <time>2021-01-24T08:35:13.000Z</time>
      </trkpt>
      <trkpt lat="54.660415" lon="9.400864">
        <ele>64.219452</ele>
        <time>2021-01-24T08:35:16.000Z</time>
      </trkpt>
      <trkpt lat="54.660467" lon="9.400881">
        <ele>64.185994</ele>
        <time>2021-01-24T08:35:19.000Z</time>
      </trkpt>
      <trkpt lat="54.660485" lon="9.400879">
        <ele>64.174591</ele>
        <time>2021-01-24T08:35:21.000Z</time>
      </trkpt>
      <trkpt lat="54.660509" lon="9.400885">
        <ele>64.159260</ele>
        <time>2021-01-24T08:35:23.000Z</time>
      </trkpt>
      <trkpt lat="54.660531" lon="9.400900">
        <ele>64.144309</ele>
        <time>2021-01-24T08:35:25.000Z</time>
      </trkpt>
      <trkpt lat="54.660598" lon="9.400903">
        <ele>64.101937</ele>
        <time>2021-01-24T08:35:29.000Z</time>
      </trkpt>
      <trkpt lat="54.660610" lon="9.400908">
        <ele>64.094133</ele>
        <time>2021-01-24T08:35:30.000Z</time>
      </trkpt>
      <trkpt lat="54.660616" lon="9.400917">
        <ele>64.089111</ele>
        <time>2021-01-24T08:35:31.000Z</time>
      </trkpt>
      <trkpt lat="54.660630" lon="9.400930">
        <ele>64.079064</ele>
        <time>2021-01-24T08:35:33.000Z</time>
      </trkpt>
      <trkpt lat="54.660647" lon="9.400945">
        <ele>64.066998</ele>
        <time>2021-01-24T08:35:35.000Z</time>
      </trkpt>
      <trkpt lat="54.660684" lon="9.400966">
        <ele>64.042378</ele>
        <time>2021-01-24T08:35:38.000Z</time>
      </trkpt>
      <trkpt lat="54.660737" lon="9.401005">
        <ele>64.005962</ele>
        <time>2021-01-24T08:35:43.000Z</time>
      </trkpt>
      <trkpt lat="54.660759" lon="9.401019">
        <ele>63.991141</ele>
        <time>2021-01-24T08:35:45.000Z</time>
      </trkpt>
      <trkpt lat="54.660772" lon="9.401040">
        <ele>63.979893</ele>
        <time>2021-01-24T08:35:47.000Z</time>
      </trkpt>
      <trkpt lat="54.660775" lon="9.401047">
        <ele>63.976707</ele>
        <time>2021-01-24T08:35:48.000Z</time>
      </trkpt>
      <trkpt lat="54.660786" lon="9.401073">
        <ele>63.964928</ele>
        <time>2021-01-24T08:35:50.000Z</time>
      </trkpt>
      <trkpt lat="54.660805" lon="9.401098">
        <ele>63.949833</ele>
        <time>2021-01-24T08:35:52.000Z</time>
      </trkpt>
      <trkpt lat="54.660879" lon="9.401169">
        <ele>63.896328</ele>
        <time>2021-01-24T08:35:58.000Z</time>
      </trkpt>
      <trkpt lat="54.660902" lon="9.401204">
        <ele>63.876956</ele>
        <time>2021-01-24T08:36:00.000Z</time>
      </trkpt>
      <trkpt lat="54.660957" lon="9.401262">
        <ele>63.836227</ele>
        <time>2021-01-24T08:36:05.000Z</time>
      </trkpt>
      <trkpt lat="54.660963" lon="9.401270">
        <ele>63.831436</ele>
        <time>2021-01-24T08:36:06.000Z</time>
      </trkpt>
      <trkpt lat="54.660968" lon="9.401273">
        <ele>63.828090</ele>
        <time>2021-01-24T08:36:07.000Z</time>
      </trkpt>
      <trkpt lat="54.660990" lon="9.401294">
        <ele>63.812203</ele>
        <time>2021-01-24T08:36:09.000Z</time>
      </trkpt>
      <trkpt lat="54.661018" lon="9.401332">
        <ele>63.789698</ele>
        <time>2021-01-24T08:36:12.000Z</time>
      </trkpt>
      <trkpt lat="54.661025" lon="9.401340">
        <ele>63.784393</ele>
        <time>2021-01-24T08:36:13.000Z</time>
      </trkpt>
      <trkpt lat="54.661043" lon="9.401367">
        <ele>63.769327</ele>
        <time>2021-01-24T08:36:16.000Z</time>
      </trkpt>
      <trkpt lat="54.661047" lon="9.401375">
        <ele>63.765460</ele>
        <time>2021-01-24T08:36:17.000Z</time>
      </trkpt>
      <trkpt lat="54.661055" lon="9.401381">
        <ele>63.759947</ele>
        <time>2021-01-24T08:36:18.000Z</time>
      </trkpt>
      <trkpt lat="54.661066" lon="9.401385">
        <ele>63.752841</ele>
        <time>2021-01-24T08:36:19.000Z</time>
      </trkpt>
      <trkpt lat="54.661132" lon="9.401395">
        <ele>63.710955</ele>
        <time>2021-01-24T08:36:24.000Z</time>
      </trkpt>
      <trkpt lat="54.661143" lon="9.401386">
        <ele>63.703261</ele>
        <time>2021-01-24T08:36:27.000Z</time>
      </trkpt>
      <trkpt lat="54.661149" lon="9.401394">
        <ele>63.698471</ele>
        <time>2021-01-24T08:36:29.000Z</time>
      </trkpt>
      <trkpt lat="54.661162" lon="9.401411">
        <ele>63.688166</ele>
        <time>2021-01-24T08:36:31.000Z</time>
      </trkpt>
      <trkpt lat="54.661179" lon="9.401426">
        <ele>63.676100</ele>
        <time>2021-01-24T08:36:33.000Z</time>
      </trkpt>
      <trkpt lat="54.661187" lon="9.401429">
        <ele>63.670925</ele>
        <time>2021-01-24T08:36:34.000Z</time>
      </trkpt>
      <trkpt lat="54.661212" lon="9.401438">
        <ele>63.654780</ele>
        <time>2021-01-24T08:36:36.000Z</time>
      </trkpt>
      <trkpt lat="54.661233" lon="9.401464">
        <ele>63.638451</ele>
        <time>2021-01-24T08:36:38.000Z</time>
      </trkpt>
      <trkpt lat="54.661325" lon="9.401550">
        <ele>63.572330</ele>
        <time>2021-01-24T08:36:45.000Z</time>
      </trkpt>
      <trkpt lat="54.661371" lon="9.401606">
        <ele>63.536762</ele>
        <time>2021-01-24T08:36:50.000Z</time>
      </trkpt>
      <trkpt lat="54.661386" lon="9.401628">
        <ele>63.524326</ele>
        <time>2021-01-24T08:36:52.000Z</time>
      </trkpt>
      <trkpt lat="54.661430" lon="9.401674">
        <ele>63.491818</ele>
        <time>2021-01-24T08:36:57.000Z</time>
      </trkpt>
      <trkpt lat="54.661444" lon="9.401691">
        <ele>63.481003</ele>
        <time>2021-01-24T08:36:59.000Z</time>
      </trkpt>
      <trkpt lat="54.661455" lon="9.401704">
        <ele>63.472579</ele>
        <time>2021-01-24T08:37:01.000Z</time>
      </trkpt>
      <trkpt lat="54.661493" lon="9.401728">
        <ele>63.447002</ele>
        <time>2021-01-24T08:37:05.000Z</time>
      </trkpt>
      <trkpt lat="54.661500" lon="9.401732">
        <ele>63.442341</ele>
        <time>2021-01-24T08:37:06.000Z</time>
      </trkpt>
      <trkpt lat="54.661506" lon="9.401737">
        <ele>63.438130</ele>
        <time>2021-01-24T08:37:08.000Z</time>
      </trkpt>
      <trkpt lat="54.661519" lon="9.401738">
        <ele>63.429903</ele>
        <time>2021-01-24T08:37:09.000Z</time>
      </trkpt>
      <trkpt lat="54.661545" lon="9.401750">
        <ele>63.412890</ele>
        <time>2021-01-24T08:37:12.000Z</time>
      </trkpt>
      <trkpt lat="54.661593" lon="9.401789">
        <ele>63.379360</ele>
        <time>2021-01-24T08:37:18.000Z</time>
      </trkpt>
      <trkpt lat="54.661602" lon="9.401790">
        <ele>63.373658</ele>
        <time>2021-01-24T08:37:19.000Z</time>
      </trkpt>
      <trkpt lat="54.661615" lon="9.401796">
        <ele>63.365152</ele>
        <time>2021-01-24T08:37:20.000Z</time>
      </trkpt>
      <trkpt lat="54.661651" lon="9.401793">
        <ele>63.342366</ele>
        <time>2021-01-24T08:37:23.000Z</time>
      </trkpt>
      <trkpt lat="54.661681" lon="9.401797">
        <ele>63.323343</ele>
        <time>2021-01-24T08:37:26.000Z</time>
      </trkpt>
      <trkpt lat="54.661741" lon="9.401820">
        <ele>63.327146</ele>
        <time>2021-01-24T08:37:31.000Z</time>
      </trkpt>
      <trkpt lat="54.661768" lon="9.401839">
        <ele>63.387873</ele>
        <time>2021-01-24T08:37:33.000Z</time>
      </trkpt>
      <trkpt lat="54.661790" lon="9.401853">
        <ele>63.436710</ele>
        <time>2021-01-24T08:37:35.000Z</time>
      </trkpt>
      <trkpt lat="54.661824" lon="9.401871">
        <ele>63.510785</ele>
        <time>2021-01-24T08:37:38.000Z</time>
      </trkpt>
      <trkpt lat="54.661836" lon="9.401881">
        <ele>63.538536</ele>
        <time>2021-01-24T08:37:39.000Z</time>
      </trkpt>
      <trkpt lat="54.661862" lon="9.401903">
        <ele>63.598839</ele>
        <time>2021-01-24T08:37:41.000Z</time>
      </trkpt>
      <trkpt lat="54.661896" lon="9.401953">
        <ele>63.691825</ele>
        <time>2021-01-24T08:37:44.000Z</time>
      </trkpt>
      <trkpt lat="54.661926" lon="9.401995">
        <ele>63.772242</ele>
        <time>2021-01-24T08:37:47.000Z</time>
      </trkpt>
      <trkpt lat="54.661948" lon="9.402021">
        <ele>63.827757</ele>
        <time>2021-01-24T08:37:49.000Z</time>
      </trkpt>
      <trkpt lat="54.661959" lon="9.402035">
        <ele>63.856211</ele>
        <time>2021-01-24T08:37:50.000Z</time>
      </trkpt>
      <trkpt lat="54.661977" lon="9.402064">
        <ele>63.907466</ele>
        <time>2021-01-24T08:37:52.000Z</time>
      </trkpt>
      <trkpt lat="54.661984" lon="9.402100">
        <ele>63.953229</ele>
        <time>2021-01-24T08:37:54.000Z</time>
      </trkpt>
      <trkpt lat="54.662003" lon="9.402162">
        <ele>64.037773</ele>
        <time>2021-01-24T08:37:56.000Z</time>
      </trkpt>
      <trkpt lat="54.662009" lon="9.402180">
        <ele>64.062805</ele>
        <time>2021-01-24T08:37:57.000Z</time>
      </trkpt>
      <trkpt lat="54.662088" lon="9.402283">
        <ele>64.268929</ele>
        <time>2021-01-24T08:38:03.000Z</time>
      </trkpt>
      <trkpt lat="54.662161" lon="9.402406">
        <ele>64.481277</ele>
        <time>2021-01-24T08:38:09.000Z</time>
      </trkpt>
      <trkpt lat="54.662180" lon="9.402433">
        <ele>64.532512</ele>
        <time>2021-01-24T08:38:10.000Z</time>
      </trkpt>
      <trkpt lat="54.662234" lon="9.402541">
        <ele>64.704527</ele>
        <time>2021-01-24T08:38:16.000Z</time>
      </trkpt>
      <trkpt lat="54.662267" lon="9.402608">
        <ele>64.810561</ele>
        <time>2021-01-24T08:38:20.000Z</time>
      </trkpt>
      <trkpt lat="54.662285" lon="9.402617">
        <ele>64.849595</ele>
        <time>2021-01-24T08:38:22.000Z</time>
      </trkpt>
      <trkpt lat="54.662338" lon="9.402616">
        <ele>64.960012</ele>
        <time>2021-01-24T08:38:26.000Z</time>
      </trkpt>
      <trkpt lat="54.662385" lon="9.402590">
        <ele>65.062813</ele>
        <time>2021-01-24T08:38:29.000Z</time>
      </trkpt>
      <trkpt lat="54.662440" lon="9.402542">
        <ele>65.191159</ele>
        <time>2021-01-24T08:38:33.000Z</time>
      </trkpt>
      <trkpt lat="54.662480" lon="9.402498">
        <ele>65.289923</ele>
        <time>2021-01-24T08:38:36.000Z</time>
      </trkpt>
      <trkpt lat="54.662508" lon="9.402479">
        <ele>65.352585</ele>
        <time>2021-01-24T08:38:38.000Z</time>
      </trkpt>
      <trkpt lat="54.662550" lon="9.402404">
        <ele>65.478370</ele>
        <time>2021-01-24T08:38:42.000Z</time>
      </trkpt>
      <trkpt lat="54.662559" lon="9.402384">
        <ele>65.508902</ele>
        <time>2021-01-24T08:38:43.000Z</time>
      </trkpt>
      <trkpt lat="54.662586" lon="9.402342">
        <ele>65.584564</ele>
        <time>2021-01-24T08:38:46.000Z</time>
      </trkpt>
      <trkpt lat="54.662606" lon="9.402317">
        <ele>65.635977</ele>
        <time>2021-01-24T08:38:48.000Z</time>
      </trkpt>
      <trkpt lat="54.662615" lon="9.402311">
        <ele>65.656071</ele>
        <time>2021-01-24T08:38:49.000Z</time>
      </trkpt>
      <trkpt lat="54.662667" lon="9.402285">
        <ele>65.768837</ele>
        <time>2021-01-24T08:38:53.000Z</time>
      </trkpt>
      <trkpt lat="54.662678" lon="9.402276">
        <ele>65.794189</ele>
        <time>2021-01-24T08:38:54.000Z</time>
      </trkpt>
      <trkpt lat="54.662708" lon="9.402276">
        <ele>65.856685</ele>
        <time>2021-01-24T08:38:56.000Z</time>
      </trkpt>
      <trkpt lat="54.662756" lon="9.402237">
        <ele>65.967171</ele>
        <time>2021-01-24T08:39:00.000Z</time>
      </trkpt>
      <trkpt lat="54.662766" lon="9.402212">
        <ele>66.003795</ele>
        <time>2021-01-24T08:39:02.000Z</time>
      </trkpt>
      <trkpt lat="54.662771" lon="9.402203">
        <ele>66.018831</ele>
        <time>2021-01-24T08:39:03.000Z</time>
      </trkpt>
      <trkpt lat="54.662825" lon="9.402091">
        <ele>66.194519</ele>
        <time>2021-01-24T08:39:10.000Z</time>
      </trkpt>
      <trkpt lat="54.662885" lon="9.401947">
        <ele>66.408358</ele>
        <time>2021-01-24T08:39:18.000Z</time>
      </trkpt>
      <trkpt lat="54.662909" lon="9.401888">
        <ele>66.495269</ele>
        <time>2021-01-24T08:39:21.000Z</time>
      </trkpt>
      <trkpt lat="54.662951" lon="9.401817">
        <ele>66.617636</ele>
        <time>2021-01-24T08:39:26.000Z</time>
      </trkpt>
      <trkpt lat="54.663050" lon="9.401687">
        <ele>66.876613</ele>
        <time>2021-01-24T08:39:34.000Z</time>
      </trkpt>
      <trkpt lat="54.663069" lon="9.401655">
        <ele>66.931870</ele>
        <time>2021-01-24T08:39:36.000Z</time>
      </trkpt>
      <trkpt lat="54.663117" lon="9.401571">
        <ele>67.048260</ele>
        <time>2021-01-24T08:39:41.000Z</time>
      </trkpt>
      <trkpt lat="54.663171" lon="9.401465">
        <ele>67.084019</ele>
        <time>2021-01-24T08:39:47.000Z</time>
      </trkpt>
      <trkpt lat="54.663210" lon="9.401255">
        <ele>67.139854</ele>
        <time>2021-01-24T08:39:56.000Z</time>
      </trkpt>
      <trkpt lat="54.663214" lon="9.401233">
        <ele>67.145692</ele>
        <time>2021-01-24T08:39:57.000Z</time>
      </trkpt>
      <trkpt lat="54.663220" lon="9.401171">
        <ele>67.161605</ele>
        <time>2021-01-24T08:40:00.000Z</time>
      </trkpt>
      <trkpt lat="54.663226" lon="9.401133">
        <ele>67.171577</ele>
        <time>2021-01-24T08:40:02.000Z</time>
      </trkpt>
      <trkpt lat="54.663232" lon="9.401116">
        <ele>67.176619</ele>
        <time>2021-01-24T08:40:03.000Z</time>
      </trkpt>
      <trkpt lat="54.663257" lon="9.400984">
        <ele>67.211780</ele>
        <time>2021-01-24T08:40:09.000Z</time>
      </trkpt>
      <trkpt lat="54.663270" lon="9.400951">
        <ele>67.221888</ele>
        <time>2021-01-24T08:40:11.000Z</time>
      </trkpt>
      <trkpt lat="54.663288" lon="9.400870">
        <ele>67.243855</ele>
        <time>2021-01-24T08:40:15.000Z</time>
      </trkpt>
      <trkpt lat="54.663311" lon="9.400798">
        <ele>67.264677</ele>
        <time>2021-01-24T08:40:19.000Z</time>
      </trkpt>
      <trkpt lat="54.663357" lon="9.400712">
        <ele>67.294330</ele>
        <time>2021-01-24T08:40:24.000Z</time>
      </trkpt>
      <trkpt lat="54.663377" lon="9.400647">
        <ele>67.312968</ele>
        <time>2021-01-24T08:40:28.000Z</time>
      </trkpt>
      <trkpt lat="54.663387" lon="9.400601">
        <ele>67.325409</ele>
        <time>2021-01-24T08:40:31.000Z</time>
      </trkpt>
      <trkpt lat="54.663394" lon="9.400562">
        <ele>67.335746</ele>
        <time>2021-01-24T08:40:34.000Z</time>
      </trkpt>
      <trkpt lat="54.663400" lon="9.400556">
        <ele>67.338780</ele>
        <time>2021-01-24T08:40:35.000Z</time>
      </trkpt>
      <trkpt lat="54.663415" lon="9.400507">
        <ele>67.352814</ele>
        <time>2021-01-24T08:40:40.000Z</time>
      </trkpt>
      <trkpt lat="54.663415" lon="9.400468">
        <ele>67.362687</ele>
        <time>2021-01-24T08:40:42.000Z</time>
      </trkpt>
      <trkpt lat="54.663422" lon="9.400449">
        <ele>67.368390</ele>
        <time>2021-01-24T08:40:43.000Z</time>
      </trkpt>
      <trkpt lat="54.663451" lon="9.400397">
        <ele>67.386676</ele>
        <time>2021-01-24T08:40:47.000Z</time>
      </trkpt>
      <trkpt lat="54.663459" lon="9.400371">
        <ele>67.394132</ele>
        <time>2021-01-24T08:40:49.000Z</time>
      </trkpt>
      <trkpt lat="54.663497" lon="9.400250">
        <ele>67.428987</ele>
        <time>2021-01-24T08:40:56.000Z</time>
      </trkpt>
      <trkpt lat="54.663494" lon="9.400218">
        <ele>67.437193</ele>
        <time>2021-01-24T08:40:57.000Z</time>
      </trkpt>
      <trkpt lat="54.663496" lon="9.400210">
        <ele>67.439400</ele>
        <time>2021-01-24T08:40:58.000Z</time>
      </trkpt>
      <trkpt lat="54.663507" lon="9.400191">
        <ele>67.446205</ele>
        <time>2021-01-24T08:41:00.000Z</time>
      </trkpt>
      <trkpt lat="54.663529" lon="9.400178">
        <ele>67.456381</ele>
        <time>2021-01-24T08:41:02.000Z</time>
      </trkpt>
      <trkpt lat="54.663546" lon="9.400164">
        <ele>67.464623</ele>
        <time>2021-01-24T08:41:04.000Z</time>
      </trkpt>
      <trkpt lat="54.663574" lon="9.400127">
        <ele>67.480047</ele>
        <time>2021-01-24T08:41:08.000Z</time>
      </trkpt>
      <trkpt lat="54.663583" lon="9.400121">
        <ele>67.484269</ele>
        <time>2021-01-24T08:41:09.000Z</time>
      </trkpt>
      <trkpt lat="54.663602" lon="9.400118">
        <ele>67.492620</ele>
        <time>2021-01-24T08:41:11.000Z</time>
      </trkpt>
      <trkpt lat="54.663616" lon="9.400133">
        <ele>67.499829</ele>
        <time>2021-01-24T08:41:13.000Z</time>
      </trkpt>
      <trkpt lat="54.663648" lon="9.400154">
        <ele>67.514810</ele>
        <time>2021-01-24T08:41:16.000Z</time>
      </trkpt>
      <trkpt lat="54.663713" lon="9.400211">
        <ele>67.546709</ele>
        <time>2021-01-24T08:41:23.000Z</time>
      </trkpt>
      <trkpt lat="54.663736" lon="9.400231">
        <ele>67.557978</ele>
        <time>2021-01-24T08:41:25.000Z</time>
      </trkpt>
      <trkpt lat="54.663795" lon="9.400273">
        <ele>67.585904</ele>
        <time>2021-01-24T08:41:30.000Z</time>
      </trkpt>
      <trkpt lat="54.663850" lon="9.400302">
        <ele>67.611072</ele>
        <time>2021-01-24T08:41:36.000Z</time>
      </trkpt>
      <trkpt lat="54.663854" lon="9.400306">
        <ele>67.613094</ele>
        <time>2021-01-24T08:41:37.000Z</time>
      </trkpt>
      <trkpt lat="54.663892" lon="9.400379">
        <ele>67.637956</ele>
        <time>2021-01-24T08:41:42.000Z</time>
      </trkpt>
      <trkpt lat="54.663907" lon="9.400383">
        <ele>67.644599</ele>
        <time>2021-01-24T08:41:43.000Z</time>
      </trkpt>
      <trkpt lat="54.663930" lon="9.400402">
        <ele>67.655756</ele>
        <time>2021-01-24T08:41:45.000Z</time>
      </trkpt>
      <trkpt lat="54.663958" lon="9.400433">
        <ele>67.670309</ele>
        <time>2021-01-24T08:41:48.000Z</time>
      </trkpt>
      <trkpt lat="54.663979" lon="9.400453">
        <ele>67.680802</ele>
        <time>2021-01-24T08:41:50.000Z</time>
      </trkpt>
      <trkpt lat="54.664011" lon="9.400476">
        <ele>67.695970</ele>
        <time>2021-01-24T08:41:53.000Z</time>
      </trkpt>
      <trkpt lat="54.664023" lon="9.400487">
        <ele>67.701915</ele>
        <time>2021-01-24T08:41:54.000Z</time>
      </trkpt>
      <trkpt lat="54.664035" lon="9.400492">
        <ele>67.707318</ele>
        <time>2021-01-24T08:41:55.000Z</time>
      </trkpt>
      <trkpt lat="54.664069" lon="9.400527">
        <ele>67.724637</ele>
        <time>2021-01-24T08:41:58.000Z</time>
      </trkpt>
      <trkpt lat="54.664138" lon="9.400613">
        <ele>67.761866</ele>
        <time>2021-01-24T08:42:04.000Z</time>
      </trkpt>
      <trkpt lat="54.664148" lon="9.400627">
        <ele>67.767498</ele>
        <time>2021-01-24T08:42:05.000Z</time>
      </trkpt>
      <trkpt lat="54.664210" lon="9.400729">
        <ele>67.804956</ele>
        <time>2021-01-24T08:42:11.000Z</time>
      </trkpt>
      <trkpt lat="54.664248" lon="9.400876">
        <ele>67.860835</ele>
        <time>2021-01-24T08:42:18.000Z</time>
      </trkpt>
      <trkpt lat="54.664251" lon="9.400895">
        <ele>67.870230</ele>
        <time>2021-01-24T08:42:19.000Z</time>
      </trkpt>
      <trkpt lat="54.664254" lon="9.400921">
        <ele>67.882876</ele>
        <time>2021-01-24T08:42:20.000Z</time>
      </trkpt>
      <trkpt lat="54.664284" lon="9.401047">
        <ele>67.947872</ele>
        <time>2021-01-24T08:42:26.000Z</time>
      </trkpt>
      <trkpt lat="54.664286" lon="9.401062">
        <ele>67.955214</ele>
        <time>2021-01-24T08:42:27.000Z</time>
      </trkpt>
      <trkpt lat="54.664319" lon="9.401177">
        <ele>68.016450</ele>
        <time>2021-01-24T08:42:33.000Z</time>
      </trkpt>
      <trkpt lat="54.664328" lon="9.401224">
        <ele>68.040066</ele>
        <time>2021-01-24T08:42:35.000Z</time>
      </trkpt>
      <trkpt lat="54.664339" lon="9.401368">
        <ele>68.109350</ele>
        <time>2021-01-24T08:42:41.000Z</time>
      </trkpt>
      <trkpt lat="54.664330" lon="9.401400">
        <ele>68.126323</ele>
        <time>2021-01-24T08:42:43.000Z</time>
      </trkpt>
      <trkpt lat="54.664334" lon="9.401479">
        <ele>68.164150</ele>
        <time>2021-01-24T08:42:48.000Z</time>
      </trkpt>
      <trkpt lat="54.664336" lon="9.401493">
        <ele>68.171029</ele>
        <time>2021-01-24T08:42:49.000Z</time>
      </trkpt>
      <trkpt lat="54.664336" lon="9.401519">
        <ele>68.183431</ele>
        <time>2021-01-24T08:42:51.000Z</time>
      </trkpt>
      <trkpt lat="54.664333" lon="9.401562">
        <ele>68.204090</ele>
        <time>2021-01-24T08:42:53.000Z</time>
      </trkpt>
      <trkpt lat="54.664343" lon="9.401715">
        <ele>68.277536</ele>
        <time>2021-01-24T08:43:01.000Z</time>
      </trkpt>
      <trkpt lat="54.664340" lon="9.401749">
        <ele>68.293941</ele>
        <time>2021-01-24T08:43:03.000Z</time>
      </trkpt>
      <trkpt lat="54.664343" lon="9.401864">
        <ele>68.348852</ele>
        <time>2021-01-24T08:43:09.000Z</time>
      </trkpt>
      <trkpt lat="54.664329" lon="9.402024">
        <ele>68.426040</ele>
        <time>2021-01-24T08:43:16.000Z</time>
      </trkpt>
      <trkpt lat="54.664304" lon="9.402099">
        <ele>68.467331</ele>
        <time>2021-01-24T08:43:19.000Z</time>
      </trkpt>
      <trkpt lat="54.664289" lon="9.402187">
        <ele>68.511092</ele>
        <time>2021-01-24T08:43:23.000Z</time>
      </trkpt>
      <trkpt lat="54.664268" lon="9.402339">
        <ele>68.585636</ele>
        <time>2021-01-24T08:43:30.000Z</time>
      </trkpt>
      <trkpt lat="54.664263" lon="9.402421">
        <ele>68.624967</ele>
        <time>2021-01-24T08:43:34.000Z</time>
      </trkpt>
      <trkpt lat="54.664246" lon="9.402502">
        <ele>68.666069</ele>
        <time>2021-01-24T08:43:37.000Z</time>
      </trkpt>
      <trkpt lat="54.664230" lon="9.402584">
        <ele>68.707349</ele>
        <time>2021-01-24T08:43:40.000Z</time>
      </trkpt>
      <trkpt lat="54.664213" lon="9.402631">
        <ele>68.733791</ele>
        <time>2021-01-24T08:43:42.000Z</time>
      </trkpt>
      <trkpt lat="54.664173" lon="9.402643">
        <ele>68.767274</ele>
        <time>2021-01-24T08:43:44.000Z</time>
      </trkpt>
      <trkpt lat="54.664186" lon="9.402776">
        <ele>68.831614</ele>
        <time>2021-01-24T08:43:52.000Z</time>
      </trkpt>
      <trkpt lat="54.664201" lon="9.402818">
        <ele>68.855160</ele>
        <time>2021-01-24T08:43:56.000Z</time>
      </trkpt>
      <trkpt lat="54.664208" lon="9.402833">
        <ele>68.864354</ele>
        <time>2021-01-24T08:43:57.000Z</time>
      </trkpt>
      <trkpt lat="54.664228" lon="9.402851">
        <ele>68.882949</ele>
        <time>2021-01-24T08:43:59.000Z</time>
      </trkpt>
      <trkpt lat="54.664247" lon="9.402929">
        <ele>68.923321</ele>
        <time>2021-01-24T08:44:05.000Z</time>
      </trkpt>
      <trkpt lat="54.664233" lon="9.402993">
        <ele>68.955959</ele>
        <time>2021-01-24T08:44:09.000Z</time>
      </trkpt>
      <trkpt lat="54.664217" lon="9.403099">
        <ele>69.008215</ele>
        <time>2021-01-24T08:44:13.000Z</time>
      </trkpt>
      <trkpt lat="54.664207" lon="9.403146">
        <ele>69.032103</ele>
        <time>2021-01-24T08:44:15.000Z</time>
      </trkpt>
      <trkpt lat="54.664198" lon="9.403175">
        <ele>69.047801</ele>
        <time>2021-01-24T08:44:17.000Z</time>
      </trkpt>
      <trkpt lat="54.664183" lon="9.403230">
        <ele>69.076807</ele>
        <time>2021-01-24T08:44:21.000Z</time>
      </trkpt>
      <trkpt lat="54.664177" lon="9.403274">
        <ele>69.098370</ele>
        <time>2021-01-24T08:44:24.000Z</time>
      </trkpt>
      <trkpt lat="54.664176" lon="9.403299">
        <ele>69.110324</ele>
        <time>2021-01-24T08:44:26.000Z</time>
      </trkpt>
      <trkpt lat="54.664179" lon="9.403318">
        <ele>69.119719</ele>
        <time>2021-01-24T08:44:27.000Z</time>
      </trkpt>
      <trkpt lat="54.664186" lon="9.403353">
        <ele>69.137384</ele>
        <time>2021-01-24T08:44:29.000Z</time>
      </trkpt>
      <trkpt lat="54.664203" lon="9.403428">
        <ele>69.175808</ele>
        <time>2021-01-24T08:44:33.000Z</time>
      </trkpt>
      <trkpt lat="54.664206" lon="9.403510">
        <ele>69.215000</ele>
        <time>2021-01-24T08:44:37.000Z</time>
      </trkpt>
      <trkpt lat="54.664205" lon="9.403569">
        <ele>69.243155</ele>
        <time>2021-01-24T08:44:39.000Z</time>
      </trkpt>
      <trkpt lat="54.664208" lon="9.403641">
        <ele>69.277588</ele>
        <time>2021-01-24T08:44:42.000Z</time>
      </trkpt>
      <trkpt lat="54.664219" lon="9.403733">
        <ele>69.314860</ele>
        <time>2021-01-24T08:44:46.000Z</time>
      </trkpt>
      <trkpt lat="54.664254" lon="9.403943">
        <ele>69.343347</ele>
        <time>2021-01-24T08:44:55.000Z</time>
      </trkpt>
      <trkpt lat="54.664258" lon="9.403964">
        <ele>69.346229</ele>
        <time>2021-01-24T08:44:56.000Z</time>
      </trkpt>
      <trkpt lat="54.664288" lon="9.404041">
        <ele>69.358330</ele>
        <time>2021-01-24T08:45:01.000Z</time>
      </trkpt>
      <trkpt lat="54.664312" lon="9.404116">
        <ele>69.369503</ele>
        <time>2021-01-24T08:45:04.000Z</time>
      </trkpt>
      <trkpt lat="54.664333" lon="9.404169">
        <ele>69.377877</ele>
        <time>2021-01-24T08:45:07.000Z</time>
      </trkpt>
      <trkpt lat="54.664338" lon="9.404194">
        <ele>69.381325</ele>
        <time>2021-01-24T08:45:08.000Z</time>
      </trkpt>
      <trkpt lat="54.664365" lon="9.404323">
        <ele>69.399206</ele>
        <time>2021-01-24T08:45:13.000Z</time>
      </trkpt>
      <trkpt lat="54.664379" lon="9.404377">
        <ele>69.406920</ele>
        <time>2021-01-24T08:45:15.000Z</time>
      </trkpt>
      <trkpt lat="54.664382" lon="9.404434">
        <ele>69.414380</ele>
        <time>2021-01-24T08:45:18.000Z</time>
      </trkpt>
      <trkpt lat="54.664407" lon="9.404532">
        <ele>69.428341</ele>
        <time>2021-01-24T08:45:23.000Z</time>
      </trkpt>
      <trkpt lat="54.664396" lon="9.404643">
        <ele>69.443021</ele>
        <time>2021-01-24T08:45:29.000Z</time>
      </trkpt>
      <trkpt lat="54.664394" lon="9.404665">
        <ele>69.445923</ele>
        <time>2021-01-24T08:45:30.000Z</time>
      </trkpt>
      <trkpt lat="54.664373" lon="9.404781">
        <ele>69.461767</ele>
        <time>2021-01-24T08:45:36.000Z</time>
      </trkpt>
      <trkpt lat="54.664369" lon="9.404822">
        <ele>69.467187</ele>
        <time>2021-01-24T08:45:38.000Z</time>
      </trkpt>
      <trkpt lat="54.664362" lon="9.404981">
        <ele>69.487971</ele>
        <time>2021-01-24T08:45:46.000Z</time>
      </trkpt>
      <trkpt lat="54.664363" lon="9.405043">
        <ele>69.496056</ele>
        <time>2021-01-24T08:45:51.000Z</time>
      </trkpt>
      <trkpt lat="54.664374" lon="9.405054">
        <ele>69.498920</ele>
        <time>2021-01-24T08:45:53.000Z</time>
      </trkpt>
      <trkpt lat="54.664383" lon="9.405064">
        <ele>69.501331</ele>
        <time>2021-01-24T08:45:55.000Z</time>
      </trkpt>
      <trkpt lat="54.664380" lon="9.405072">
        <ele>69.502574</ele>
        <time>2021-01-24T08:45:56.000Z</time>
      </trkpt>
      <trkpt lat="54.664382" lon="9.405086">
        <ele>69.504453</ele>
        <time>2021-01-24T08:45:58.000Z</time>
      </trkpt>
      <trkpt lat="54.664388" lon="9.405117">
        <ele>69.508714</ele>
        <time>2021-01-24T08:46:01.000Z</time>
      </trkpt>
      <trkpt lat="54.664384" lon="9.405198">
        <ele>69.519311</ele>
        <time>2021-01-24T08:46:07.000Z</time>
      </trkpt>
      <trkpt lat="54.664412" lon="9.405334">
        <ele>69.538127</ele>
        <time>2021-01-24T08:46:14.000Z</time>
      </trkpt>
      <trkpt lat="54.664456" lon="9.405439">
        <ele>69.555028</ele>
        <time>2021-01-24T08:46:19.000Z</time>
      </trkpt>
      <trkpt lat="54.664453" lon="9.405519">
        <ele>69.565478</ele>
        <time>2021-01-24T08:46:23.000Z</time>
      </trkpt>
      <trkpt lat="54.664453" lon="9.405562">
        <ele>69.571083</ele>
        <time>2021-01-24T08:46:25.000Z</time>
      </trkpt>
      <trkpt lat="54.664448" lon="9.405691">
        <ele>69.587935</ele>
        <time>2021-01-24T08:46:32.000Z</time>
      </trkpt>
      <trkpt lat="54.664441" lon="9.405830">
        <ele>69.606122</ele>
        <time>2021-01-24T08:46:38.000Z</time>
      </trkpt>
      <trkpt lat="54.664462" lon="9.405989">
        <ele>69.627380</ele>
        <time>2021-01-24T08:46:48.000Z</time>
      </trkpt>
      <trkpt lat="54.664514" lon="9.406120">
        <ele>69.648090</ele>
        <time>2021-01-24T08:46:57.000Z</time>
      </trkpt>
      <trkpt lat="54.664590" lon="9.406184">
        <ele>69.667142</ele>
        <time>2021-01-24T08:47:05.000Z</time>
      </trkpt>
      <trkpt lat="54.664615" lon="9.406210">
        <ele>69.673716</ele>
        <time>2021-01-24T08:47:08.000Z</time>
      </trkpt>
      <trkpt lat="54.664637" lon="9.406224">
        <ele>69.679000</ele>
        <time>2021-01-24T08:47:10.000Z</time>
      </trkpt>
      <trkpt lat="54.664645" lon="9.406235">
        <ele>69.681303</ele>
        <time>2021-01-24T08:47:11.000Z</time>
      </trkpt>
      <trkpt lat="54.664735" lon="9.406287">
        <ele>69.702689</ele>
        <time>2021-01-24T08:47:21.000Z</time>
      </trkpt>
      <trkpt lat="54.664748" lon="9.406294">
        <ele>69.705758</ele>
        <time>2021-01-24T08:47:22.000Z</time>
      </trkpt>
      <trkpt lat="54.664820" lon="9.406319">
        <ele>69.725797</ele>
        <time>2021-01-24T08:47:28.000Z</time>
      </trkpt>
      <trkpt lat="54.664854" lon="9.406320">
        <ele>69.738890</ele>
        <time>2021-01-24T08:47:30.000Z</time>
      </trkpt>
      <trkpt lat="54.664872" lon="9.406326">
        <ele>69.745949</ele>
        <time>2021-01-24T08:47:31.000Z</time>
      </trkpt>
      <trkpt lat="54.664940" lon="9.406398">
        <ele>69.776650</ele>
        <time>2021-01-24T08:47:38.000Z</time>
      </trkpt>
      <trkpt lat="54.664975" lon="9.406426">
        <ele>69.791499</ele>
        <time>2021-01-24T08:47:42.000Z</time>
      </trkpt>
      <trkpt lat="54.664994" lon="9.406435">
        <ele>69.799085</ele>
        <time>2021-01-24T08:47:44.000Z</time>
      </trkpt>
      <trkpt lat="54.665024" lon="9.406458">
        <ele>69.811720</ele>
        <time>2021-01-24T08:47:47.000Z</time>
      </trkpt>
      <trkpt lat="54.665083" lon="9.406489">
        <ele>69.835463</ele>
        <time>2021-01-24T08:47:52.000Z</time>
      </trkpt>
      <trkpt lat="54.665128" lon="9.406506">
        <ele>69.853199</ele>
        <time>2021-01-24T08:47:56.000Z</time>
      </trkpt>
      <trkpt lat="54.665177" lon="9.406532">
        <ele>69.872934</ele>
        <time>2021-01-24T08:47:59.000Z</time>
      </trkpt>
      <trkpt lat="54.665303" lon="9.406588">
        <ele>69.923026</ele>
        <time>2021-01-24T08:48:06.000Z</time>
      </trkpt>
      <trkpt lat="54.665411" lon="9.406645">
        <ele>69.966504</ele>
        <time>2021-01-24T08:48:15.000Z</time>
      </trkpt>
      <trkpt lat="54.665458" lon="9.406666">
        <ele>69.985195</ele>
        <time>2021-01-24T08:48:20.000Z</time>
      </trkpt>
      <trkpt lat="54.665484" lon="9.406676">
        <ele>69.995451</ele>
        <time>2021-01-24T08:48:22.000Z</time>
      </trkpt>
      <trkpt lat="54.665583" lon="9.406735">
        <ele>70.035770</ele>
        <time>2021-01-24T08:48:30.000Z</time>
      </trkpt>
      <trkpt lat="54.665680" lon="9.406823">
        <ele>70.077948</ele>
        <time>2021-01-24T08:48:37.000Z</time>
      </trkpt>
      <trkpt lat="54.665756" lon="9.406904">
        <ele>70.112323</ele>
        <time>2021-01-24T08:48:45.000Z</time>
      </trkpt>
      <trkpt lat="54.665830" lon="9.406932">
        <ele>70.141490</ele>
        <time>2021-01-24T08:48:51.000Z</time>
      </trkpt>
      <trkpt lat="54.665840" lon="9.406942">
        <ele>70.145938</ele>
        <time>2021-01-24T08:48:52.000Z</time>
      </trkpt>
      <trkpt lat="54.665910" lon="9.407020">
        <ele>70.178002</ele>
        <time>2021-01-24T08:48:59.000Z</time>
      </trkpt>
      <trkpt lat="54.665997" lon="9.407080">
        <ele>70.214067</ele>
        <time>2021-01-24T08:49:06.000Z</time>
      </trkpt>
      <trkpt lat="54.666079" lon="9.407123">
        <ele>70.247060</ele>
        <time>2021-01-24T08:49:13.000Z</time>
      </trkpt>
      <trkpt lat="54.666149" lon="9.407186">
        <ele>70.277445</ele>
        <time>2021-01-24T08:49:20.000Z</time>
      </trkpt>
      <trkpt lat="54.666220" lon="9.407243">
        <ele>70.307586</ele>
        <time>2021-01-24T08:49:27.000Z</time>
      </trkpt>
      <trkpt lat="54.666322" lon="9.407279">
        <ele>70.347670</ele>
        <time>2021-01-24T08:49:35.000Z</time>
      </trkpt>
      <trkpt lat="54.666333" lon="9.407289">
        <ele>70.352455</ele>
        <time>2021-01-24T08:49:36.000Z</time>
      </trkpt>
      <trkpt lat="54.666378" lon="9.407340">
        <ele>70.373172</ele>
        <time>2021-01-24T08:49:43.000Z</time>
      </trkpt>
      <trkpt lat="54.666395" lon="9.407348">
        <ele>70.379955</ele>
        <time>2021-01-24T08:49:45.000Z</time>
      </trkpt>
      <trkpt lat="54.666443" lon="9.407385">
        <ele>70.400190</ele>
        <time>2021-01-24T08:49:49.000Z</time>
      </trkpt>
      <trkpt lat="54.666478" lon="9.407411">
        <ele>70.412939</ele>
        <time>2021-01-24T08:49:52.000Z</time>
      </trkpt>
      <trkpt lat="54.666488" lon="9.407417">
        <ele>70.415427</ele>
        <time>2021-01-24T08:49:53.000Z</time>
      </trkpt>
      <trkpt lat="54.666522" lon="9.407453">
        <ele>70.424802</ele>
        <time>2021-01-24T08:49:57.000Z</time>
      </trkpt>
      <trkpt lat="54.666557" lon="9.407455">
        <ele>70.433036</ele>
        <time>2021-01-24T08:49:59.000Z</time>
      </trkpt>
      <trkpt lat="54.666564" lon="9.407464">
        <ele>70.435087</ele>
        <time>2021-01-24T08:50:00.000Z</time>
      </trkpt>
      <trkpt lat="54.666605" lon="9.407549">
        <ele>70.450138</ele>
        <time>2021-01-24T08:50:05.000Z</time>
      </trkpt>
      <trkpt lat="54.666628" lon="9.407557">
        <ele>70.455654</ele>
        <time>2021-01-24T08:50:07.000Z</time>
      </trkpt>
      <trkpt lat="54.666698" lon="9.407616">
        <ele>70.473964</ele>
        <time>2021-01-24T08:50:14.000Z</time>
      </trkpt>
      <trkpt lat="54.666768" lon="9.407634">
        <ele>70.490604</ele>
        <time>2021-01-24T08:50:21.000Z</time>
      </trkpt>
      <trkpt lat="54.666792" lon="9.407657">
        <ele>70.497056</ele>
        <time>2021-01-24T08:50:24.000Z</time>
      </trkpt>
      <trkpt lat="54.666809" lon="9.407704">
        <ele>70.504594</ele>
        <time>2021-01-24T08:50:27.000Z</time>
      </trkpt>
      <trkpt lat="54.666841" lon="9.407750">
        <ele>70.514379</ele>
        <time>2021-01-24T08:50:30.000Z</time>
      </trkpt>
      <trkpt lat="54.666956" lon="9.407845">
        <ele>70.544346</ele>
        <time>2021-01-24T08:50:39.000Z</time>
      </trkpt>
      <trkpt lat="54.666981" lon="9.407856">
        <ele>70.550412</ele>
        <time>2021-01-24T08:50:41.000Z</time>
      </trkpt>
      <trkpt lat="54.667066" lon="9.407859">
        <ele>70.570402</ele>
        <time>2021-01-24T08:50:46.000Z</time>
      </trkpt>
      <trkpt lat="54.667151" lon="9.407871">
        <ele>70.590454</ele>
        <time>2021-01-24T08:50:53.000Z</time>
      </trkpt>
      <trkpt lat="54.667173" lon="9.407892">
        <ele>70.596363</ele>
        <time>2021-01-24T08:50:55.000Z</time>
      </trkpt>
      <trkpt lat="54.667185" lon="9.407903">
        <ele>70.599556</ele>
        <time>2021-01-24T08:50:56.000Z</time>
      </trkpt>
      <trkpt lat="54.667238" lon="9.407939">
        <ele>70.612945</ele>
        <time>2021-01-24T08:51:00.000Z</time>
      </trkpt>
      <trkpt lat="54.667268" lon="9.407976">
        <ele>70.621609</ele>
        <time>2021-01-24T08:51:03.000Z</time>
      </trkpt>
      <trkpt lat="54.667348" lon="9.408038">
        <ele>70.642223</ele>
        <time>2021-01-24T08:51:10.000Z</time>
      </trkpt>
      <trkpt lat="54.667368" lon="9.408058">
        <ele>70.647655</ele>
        <time>2021-01-24T08:51:12.000Z</time>
      </trkpt>
      <trkpt lat="54.667410" lon="9.408090">
        <ele>70.658447</ele>
        <time>2021-01-24T08:51:15.000Z</time>
      </trkpt>
      <trkpt lat="54.667422" lon="9.408100">
        <ele>70.661579</ele>
        <time>2021-01-24T08:51:16.000Z</time>
      </trkpt>
      <trkpt lat="54.667437" lon="9.408107">
        <ele>70.665232</ele>
        <time>2021-01-24T08:51:17.000Z</time>
      </trkpt>
      <trkpt lat="54.667456" lon="9.408126">
        <ele>70.670393</ele>
        <time>2021-01-24T08:51:19.000Z</time>
      </trkpt>
      <trkpt lat="54.667552" lon="9.408209">
        <ele>70.695629</ele>
        <time>2021-01-24T08:51:28.000Z</time>
      </trkpt>
      <trkpt lat="54.667581" lon="9.408232">
        <ele>70.703131</ele>
        <time>2021-01-24T08:51:31.000Z</time>
      </trkpt>
      <trkpt lat="54.667618" lon="9.408261">
        <ele>70.712683</ele>
        <time>2021-01-24T08:51:35.000Z</time>
      </trkpt>
      <trkpt lat="54.667680" lon="9.408319">
        <ele>70.729257</ele>
        <time>2021-01-24T08:51:41.000Z</time>
      </trkpt>
      <trkpt lat="54.667699" lon="9.408340">
        <ele>70.734560</ele>
        <time>2021-01-24T08:51:43.000Z</time>
      </trkpt>
      <trkpt lat="54.667730" lon="9.408367">
        <ele>70.742721</ele>
        <time>2021-01-24T08:51:46.000Z</time>
      </trkpt>
      <trkpt lat="54.667754" lon="9.408397">
        <ele>70.749684</ele>
        <time>2021-01-24T08:51:49.000Z</time>
      </trkpt>
      <trkpt lat="54.667767" lon="9.408404">
        <ele>70.752886</ele>
        <time>2021-01-24T08:51:50.000Z</time>
      </trkpt>
      <trkpt lat="54.667868" lon="9.408480">
        <ele>70.778785</ele>
        <time>2021-01-24T08:51:57.000Z</time>
      </trkpt>
      <trkpt lat="54.667958" lon="9.408572">
        <ele>70.803367</ele>
        <time>2021-01-24T08:52:04.000Z</time>
      </trkpt>
      <trkpt lat="54.667985" lon="9.408582">
        <ele>70.809860</ele>
        <time>2021-01-24T08:52:06.000Z</time>
      </trkpt>
      <trkpt lat="54.667995" lon="9.408591">
        <ele>70.812511</ele>
        <time>2021-01-24T08:52:07.000Z</time>
      </trkpt>
      <trkpt lat="54.668004" lon="9.408601">
        <ele>70.815026</ele>
        <time>2021-01-24T08:52:08.000Z</time>
      </trkpt>
      <trkpt lat="54.668010" lon="9.408611">
        <ele>70.816985</ele>
        <time>2021-01-24T08:52:09.000Z</time>
      </trkpt>
      <trkpt lat="54.668030" lon="9.408623">
        <ele>70.821963</ele>
        <time>2021-01-24T08:52:11.000Z</time>
      </trkpt>
      <trkpt lat="54.668073" lon="9.408649">
        <ele>70.832674</ele>
        <time>2021-01-24T08:52:14.000Z</time>
      </trkpt>
      <trkpt lat="54.668117" lon="9.408703">
        <ele>70.813440</ele>
        <time>2021-01-24T08:52:18.000Z</time>
      </trkpt>
      <trkpt lat="54.668213" lon="9.408762">
        <ele>70.776317</ele>
        <time>2021-01-24T08:52:26.000Z</time>
      </trkpt>
      <trkpt lat="54.668268" lon="9.408817">
        <ele>70.753167</ele>
        <time>2021-01-24T08:52:30.000Z</time>
      </trkpt>
      <trkpt lat="54.668314" lon="9.408859">
        <ele>70.734213</ele>
        <time>2021-01-24T08:52:33.000Z</time>
      </trkpt>
      <trkpt lat="54.668325" lon="9.408873">
        <ele>70.729236</ele>
        <time>2021-01-24T08:52:34.000Z</time>
      </trkpt>
      <trkpt lat="54.668385" lon="9.408929">
        <ele>70.704393</ele>
        <time>2021-01-24T08:52:39.000Z</time>
      </trkpt>
      <trkpt lat="54.668396" lon="9.408940">
        <ele>70.699763</ele>
        <time>2021-01-24T08:52:40.000Z</time>
      </trkpt>
      <trkpt lat="54.668437" lon="9.409009">
        <ele>70.678916</ele>
        <time>2021-01-24T08:52:47.000Z</time>
      </trkpt>
      <trkpt lat="54.668490" lon="9.409086">
        <ele>70.653694</ele>
        <time>2021-01-24T08:52:53.000Z</time>
      </trkpt>
      <trkpt lat="54.668499" lon="9.409107">
        <ele>70.648186</ele>
        <time>2021-01-24T08:52:54.000Z</time>
      </trkpt>
      <trkpt lat="54.668525" lon="9.409159">
        <ele>70.633701</ele>
        <time>2021-01-24T08:52:58.000Z</time>
      </trkpt>
      <trkpt lat="54.668536" lon="9.409166">
        <ele>70.629430</ele>
        <time>2021-01-24T08:52:59.000Z</time>
      </trkpt>
      <trkpt lat="54.668544" lon="9.409174">
        <ele>70.626063</ele>
        <time>2021-01-24T08:53:00.000Z</time>
      </trkpt>
      <trkpt lat="54.668569" lon="9.409199">
        <ele>70.615540</ele>
        <time>2021-01-24T08:53:03.000Z</time>
      </trkpt>
      <trkpt lat="54.668600" lon="9.409243">
        <ele>70.600927</ele>
        <time>2021-01-24T08:53:06.000Z</time>
      </trkpt>
      <trkpt lat="54.668637" lon="9.409317">
        <ele>70.580314</ele>
        <time>2021-01-24T08:53:11.000Z</time>
      </trkpt>
      <trkpt lat="54.668642" lon="9.409321">
        <ele>70.578307</ele>
        <time>2021-01-24T08:53:12.000Z</time>
      </trkpt>
      <trkpt lat="54.668656" lon="9.409331">
        <ele>70.572787</ele>
        <time>2021-01-24T08:53:13.000Z</time>
      </trkpt>
      <trkpt lat="54.668667" lon="9.409336">
        <ele>70.568643</ele>
        <time>2021-01-24T08:53:14.000Z</time>
      </trkpt>
      <trkpt lat="54.668740" lon="9.409399">
        <ele>70.538916</ele>
        <time>2021-01-24T08:53:21.000Z</time>
      </trkpt>
      <trkpt lat="54.668818" lon="9.409487">
        <ele>70.504981</ele>
        <time>2021-01-24T08:53:27.000Z</time>
      </trkpt>
      <trkpt lat="54.668876" lon="9.409553">
        <ele>70.479682</ele>
        <time>2021-01-24T08:53:32.000Z</time>
      </trkpt>
      <trkpt lat="54.668915" lon="9.409591">
        <ele>70.463371</ele>
        <time>2021-01-24T08:53:35.000Z</time>
      </trkpt>
      <trkpt lat="54.668921" lon="9.409610">
        <ele>70.458810</ele>
        <time>2021-01-24T08:53:36.000Z</time>
      </trkpt>
      <trkpt lat="54.668949" lon="9.409664">
        <ele>70.443527</ele>
        <time>2021-01-24T08:53:39.000Z</time>
      </trkpt>
      <trkpt lat="54.668954" lon="9.409688">
        <ele>70.438152</ele>
        <time>2021-01-24T08:53:40.000Z</time>
      </trkpt>
      <trkpt lat="54.668974" lon="9.409711">
        <ele>70.429400</ele>
        <time>2021-01-24T08:53:41.000Z</time>
      </trkpt>
      <trkpt lat="54.669023" lon="9.409756">
        <ele>70.409184</ele>
        <time>2021-01-24T08:53:43.000Z</time>
      </trkpt>
      <trkpt lat="54.669075" lon="9.409803">
        <ele>70.387805</ele>
        <time>2021-01-24T08:53:45.000Z</time>
      </trkpt>
      <trkpt lat="54.669089" lon="9.409823">
        <ele>70.381188</ele>
        <time>2021-01-24T08:53:46.000Z</time>
      </trkpt>
      <trkpt lat="54.669154" lon="9.409920">
        <ele>70.349904</ele>
        <time>2021-01-24T08:53:52.000Z</time>
      </trkpt>
      <trkpt lat="54.669178" lon="9.409999">
        <ele>70.331101</ele>
        <time>2021-01-24T08:53:58.000Z</time>
      </trkpt>
      <trkpt lat="54.669183" lon="9.410015">
        <ele>70.327269</ele>
        <time>2021-01-24T08:54:00.000Z</time>
      </trkpt>
      <trkpt lat="54.669194" lon="9.410028">
        <ele>70.322414</ele>
        <time>2021-01-24T08:54:02.000Z</time>
      </trkpt>
      <trkpt lat="54.669247" lon="9.410031">
        <ele>70.303092</ele>
        <time>2021-01-24T08:54:08.000Z</time>
      </trkpt>
      <trkpt lat="54.669271" lon="9.410045">
        <ele>70.293863</ele>
        <time>2021-01-24T08:54:11.000Z</time>
      </trkpt>
      <trkpt lat="54.669297" lon="9.410011">
        <ele>70.281986</ele>
        <time>2021-01-24T08:54:12.000Z</time>
      </trkpt>
      <trkpt lat="54.669331" lon="9.410014">
        <ele>70.269581</ele>
        <time>2021-01-24T08:54:15.000Z</time>
      </trkpt>
      <trkpt lat="54.669370" lon="9.410058">
        <ele>70.252614</ele>
        <time>2021-01-24T08:54:19.000Z</time>
      </trkpt>
      <trkpt lat="54.669408" lon="9.410094">
        <ele>70.236826</ele>
        <time>2021-01-24T08:54:22.000Z</time>
      </trkpt>
      <trkpt lat="54.669433" lon="9.410119">
        <ele>70.226304</ele>
        <time>2021-01-24T08:54:25.000Z</time>
      </trkpt>
      <trkpt lat="54.669472" lon="9.410141">
        <ele>70.211356</ele>
        <time>2021-01-24T08:54:28.000Z</time>
      </trkpt>
      <trkpt lat="54.669514" lon="9.410169">
        <ele>70.194955</ele>
        <time>2021-01-24T08:54:32.000Z</time>
      </trkpt>
      <trkpt lat="54.669524" lon="9.410178">
        <ele>70.190847</ele>
        <time>2021-01-24T08:54:33.000Z</time>
      </trkpt>
      <trkpt lat="54.669546" lon="9.410192">
        <ele>70.182306</ele>
        <time>2021-01-24T08:54:35.000Z</time>
      </trkpt>
      <trkpt lat="54.669557" lon="9.410201">
        <ele>70.177872</ele>
        <time>2021-01-24T08:54:36.000Z</time>
      </trkpt>
      <trkpt lat="54.669608" lon="9.410243">
        <ele>70.146158</ele>
        <time>2021-01-24T08:54:42.000Z</time>
      </trkpt>
      <trkpt lat="54.669649" lon="9.410258">
        <ele>70.122468</ele>
        <time>2021-01-24T08:54:44.000Z</time>
      </trkpt>
      <trkpt lat="54.669663" lon="9.410261">
        <ele>70.114493</ele>
        <time>2021-01-24T08:54:45.000Z</time>
      </trkpt>
      <trkpt lat="54.669689" lon="9.410284">
        <ele>70.097984</ele>
        <time>2021-01-24T08:54:48.000Z</time>
      </trkpt>
      <trkpt lat="54.669710" lon="9.410309">
        <ele>70.083571</ele>
        <time>2021-01-24T08:54:50.000Z</time>
      </trkpt>
      <trkpt lat="54.669729" lon="9.410333">
        <ele>70.070270</ele>
        <time>2021-01-24T08:54:53.000Z</time>
      </trkpt>
      <trkpt lat="54.669766" lon="9.410368">
        <ele>70.046429</ele>
        <time>2021-01-24T08:54:57.000Z</time>
      </trkpt>
      <trkpt lat="54.669869" lon="9.410425">
        <ele>69.985295</ele>
        <time>2021-01-24T08:55:05.000Z</time>
      </trkpt>
      <trkpt lat="54.669955" lon="9.410482">
        <ele>69.933231</ele>
        <time>2021-01-24T08:55:13.000Z</time>
      </trkpt>
      <trkpt lat="54.670064" lon="9.410584">
        <ele>69.863169</ele>
        <time>2021-01-24T08:55:21.000Z</time>
      </trkpt>
      <trkpt lat="54.670142" lon="9.410671">
        <ele>69.810700</ele>
        <time>2021-01-24T08:55:28.000Z</time>
      </trkpt>
      <trkpt lat="54.670182" lon="9.410728">
        <ele>69.781399</ele>
        <time>2021-01-24T08:55:33.000Z</time>
      </trkpt>
      <trkpt lat="54.670206" lon="9.410744">
        <ele>69.766859</ele>
        <time>2021-01-24T08:55:35.000Z</time>
      </trkpt>
      <trkpt lat="54.670219" lon="9.410748">
        <ele>69.759395</ele>
        <time>2021-01-24T08:55:36.000Z</time>
      </trkpt>
      <trkpt lat="54.670311" lon="9.410762">
        <ele>69.707186</ele>
        <time>2021-01-24T08:55:43.000Z</time>
      </trkpt>
      <trkpt lat="54.670336" lon="9.410770">
        <ele>69.692814</ele>
        <time>2021-01-24T08:55:45.000Z</time>
      </trkpt>
      <trkpt lat="54.670364" lon="9.410765">
        <ele>69.676901</ele>
        <time>2021-01-24T08:55:47.000Z</time>
      </trkpt>
      <trkpt lat="54.670401" lon="9.410791">
        <ele>69.654324</ele>
        <time>2021-01-24T08:55:50.000Z</time>
      </trkpt>
      <trkpt lat="54.670512" lon="9.410841">
        <ele>69.589482</ele>
        <time>2021-01-24T08:55:57.000Z</time>
      </trkpt>
      <trkpt lat="54.670543" lon="9.410852">
        <ele>69.571593</ele>
        <time>2021-01-24T08:55:59.000Z</time>
      </trkpt>
      <trkpt lat="54.670620" lon="9.410918">
        <ele>69.523011</ele>
        <time>2021-01-24T08:56:06.000Z</time>
      </trkpt>
      <trkpt lat="54.670665" lon="9.411028">
        <ele>69.478964</ele>
        <time>2021-01-24T08:56:12.000Z</time>
      </trkpt>
      <trkpt lat="54.670668" lon="9.411046">
        <ele>69.472841</ele>
        <time>2021-01-24T08:56:13.000Z</time>
      </trkpt>
      <trkpt lat="54.670672" lon="9.411067">
        <ele>69.465613</ele>
        <time>2021-01-24T08:56:14.000Z</time>
      </trkpt>
      <trkpt lat="54.670692" lon="9.411211">
        <ele>69.417201</ele>
        <time>2021-01-24T08:56:20.000Z</time>
      </trkpt>
      <trkpt lat="54.670705" lon="9.411388">
        <ele>69.358875</ele>
        <time>2021-01-24T08:56:27.000Z</time>
      </trkpt>
      <trkpt lat="54.670721" lon="9.411554">
        <ele>69.303862</ele>
        <time>2021-01-24T08:56:35.000Z</time>
      </trkpt>
      <trkpt lat="54.670719" lon="9.411721">
        <ele>69.249258</ele>
        <time>2021-01-24T08:56:43.000Z</time>
      </trkpt>
      <trkpt lat="54.670712" lon="9.411761">
        <ele>69.235596</ele>
        <time>2021-01-24T08:56:45.000Z</time>
      </trkpt>
      <trkpt lat="54.670712" lon="9.411829">
        <ele>69.213367</ele>
        <time>2021-01-24T08:56:49.000Z</time>
      </trkpt>
      <trkpt lat="54.670703" lon="9.411894">
        <ele>69.191518</ele>
        <time>2021-01-24T08:56:53.000Z</time>
      </trkpt>
      <trkpt lat="54.670703" lon="9.411938">
        <ele>69.177135</ele>
        <time>2021-01-24T08:56:55.000Z</time>
      </trkpt>
      <trkpt lat="54.670719" lon="9.411997">
        <ele>69.156922</ele>
        <time>2021-01-24T08:56:57.000Z</time>
      </trkpt>
      <trkpt lat="54.670713" lon="9.412016">
        <ele>69.151428</ele>
        <time>2021-01-24T08:56:59.000Z</time>
      </trkpt>
      <trkpt lat="54.670674" lon="9.412043">
        <ele>69.132993</ele>
        <time>2021-01-24T08:57:02.000Z</time>
      </trkpt>
      <trkpt lat="54.670597" lon="9.412073">
        <ele>69.098355</ele>
        <time>2021-01-24T08:57:05.000Z</time>
      </trkpt>
      <trkpt lat="54.670537" lon="9.412067">
        <ele>69.071980</ele>
        <time>2021-01-24T08:57:09.000Z</time>
      </trkpt>
      <trkpt lat="54.670458" lon="9.412032">
        <ele>69.036191</ele>
        <time>2021-01-24T08:57:16.000Z</time>
      </trkpt>
      <trkpt lat="54.670357" lon="9.412001">
        <ele>68.991175</ele>
        <time>2021-01-24T08:57:23.000Z</time>
      </trkpt>
      <trkpt lat="54.670272" lon="9.411997">
        <ele>68.953859</ele>
        <time>2021-01-24T08:57:30.000Z</time>
      </trkpt>
      <trkpt lat="54.670255" lon="9.412003">
        <ele>68.946245</ele>
        <time>2021-01-24T08:57:32.000Z</time>
      </trkpt>
      <trkpt lat="54.670210" lon="9.412040">
        <ele>68.924378</ele>
        <time>2021-01-24T08:57:37.000Z</time>
      </trkpt>
      <trkpt lat="54.670194" lon="9.412049">
        <ele>68.916995</ele>
        <time>2021-01-24T08:57:39.000Z</time>
      </trkpt>
      <trkpt lat="54.670186" lon="9.412052">
        <ele>68.913402</ele>
        <time>2021-01-24T08:57:40.000Z</time>
      </trkpt>
      <trkpt lat="54.670179" lon="9.412054">
        <ele>68.910289</ele>
        <time>2021-01-24T08:57:41.000Z</time>
      </trkpt>
      <trkpt lat="54.670173" lon="9.412061">
        <ele>68.907112</ele>
        <time>2021-01-24T08:57:42.000Z</time>
      </trkpt>
      <trkpt lat="54.670156" lon="9.412078">
        <ele>68.898494</ele>
        <time>2021-01-24T08:57:44.000Z</time>
      </trkpt>
      <trkpt lat="54.670138" lon="9.412092">
        <ele>68.889833</ele>
        <time>2021-01-24T08:57:46.000Z</time>
      </trkpt>
      <trkpt lat="54.670125" lon="9.412116">
        <ele>68.881488</ele>
        <time>2021-01-24T08:57:48.000Z</time>
      </trkpt>
      <trkpt lat="54.670128" lon="9.412118">
        <ele>68.880077</ele>
        <time>2021-01-24T08:57:49.000Z</time>
      </trkpt>
      <trkpt lat="54.670129" lon="9.412123">
        <ele>68.878734</ele>
        <time>2021-01-24T08:57:50.000Z</time>
      </trkpt>
      <trkpt lat="54.670109" lon="9.412147">
        <ele>68.868051</ele>
        <time>2021-01-24T08:57:52.000Z</time>
      </trkpt>
      <trkpt lat="54.670091" lon="9.412181">
        <ele>68.856353</ele>
        <time>2021-01-24T08:57:54.000Z</time>
      </trkpt>
      <trkpt lat="54.670087" lon="9.412192">
        <ele>68.853055</ele>
        <time>2021-01-24T08:57:55.000Z</time>
      </trkpt>
      <trkpt lat="54.670057" lon="9.412235">
        <ele>68.835955</ele>
        <time>2021-01-24T08:57:58.000Z</time>
      </trkpt>
      <trkpt lat="54.670029" lon="9.412274">
        <ele>68.820177</ele>
        <time>2021-01-24T08:58:01.000Z</time>
      </trkpt>
      <trkpt lat="54.669985" lon="9.412340">
        <ele>68.794616</ele>
        <time>2021-01-24T08:58:05.000Z</time>
      </trkpt>
      <trkpt lat="54.669946" lon="9.412363">
        <ele>68.776533</ele>
        <time>2021-01-24T08:58:08.000Z</time>
      </trkpt>
      <trkpt lat="54.669932" lon="9.412372">
        <ele>68.769978</ele>
        <time>2021-01-24T08:58:09.000Z</time>
      </trkpt>
      <trkpt lat="54.669896" lon="9.412384">
        <ele>68.753889</ele>
        <time>2021-01-24T08:58:12.000Z</time>
      </trkpt>
      <trkpt lat="54.669865" lon="9.412398">
        <ele>68.739828</ele>
        <time>2021-01-24T08:58:14.000Z</time>
      </trkpt>
      <trkpt lat="54.669841" lon="9.412407">
        <ele>68.729051</ele>
        <time>2021-01-24T08:58:17.000Z</time>
      </trkpt>
      <trkpt lat="54.669802" lon="9.412437">
        <ele>68.710319</ele>
        <time>2021-01-24T08:58:20.000Z</time>
      </trkpt>
      <trkpt lat="54.669786" lon="9.412450">
        <ele>68.702561</ele>
        <time>2021-01-24T08:58:22.000Z</time>
      </trkpt>
      <trkpt lat="54.669763" lon="9.412472">
        <ele>68.691027</ele>
        <time>2021-01-24T08:58:24.000Z</time>
      </trkpt>
      <trkpt lat="54.669740" lon="9.412473">
        <ele>68.680930</ele>
        <time>2021-01-24T08:58:26.000Z</time>
      </trkpt>
      <trkpt lat="54.669731" lon="9.412471">
        <ele>68.676948</ele>
        <time>2021-01-24T08:58:27.000Z</time>
      </trkpt>
      <trkpt lat="54.669702" lon="9.412469">
        <ele>68.664211</ele>
        <time>2021-01-24T08:58:30.000Z</time>
      </trkpt>
      <trkpt lat="54.669683" lon="9.412484">
        <ele>68.655045</ele>
        <time>2021-01-24T08:58:32.000Z</time>
      </trkpt>
      <trkpt lat="54.669674" lon="9.412498">
        <ele>68.649733</ele>
        <time>2021-01-24T08:58:33.000Z</time>
      </trkpt>
      <trkpt lat="54.669668" lon="9.412521">
        <ele>68.643329</ele>
        <time>2021-01-24T08:58:34.000Z</time>
      </trkpt>
      <trkpt lat="54.669660" lon="9.412557">
        <ele>68.633542</ele>
        <time>2021-01-24T08:58:36.000Z</time>
      </trkpt>
      <trkpt lat="54.669655" lon="9.412583">
        <ele>68.626588</ele>
        <time>2021-01-24T08:58:38.000Z</time>
      </trkpt>
      <trkpt lat="54.669658" lon="9.412593">
        <ele>68.623729</ele>
        <time>2021-01-24T08:58:39.000Z</time>
      </trkpt>
      <trkpt lat="54.669660" lon="9.412603">
        <ele>68.621044</ele>
        <time>2021-01-24T08:58:40.000Z</time>
      </trkpt>
      <trkpt lat="54.669665" lon="9.412626">
        <ele>68.614808</ele>
        <time>2021-01-24T08:58:42.000Z</time>
      </trkpt>
      <trkpt lat="54.669674" lon="9.412677">
        <ele>68.601276</ele>
        <time>2021-01-24T08:58:45.000Z</time>
      </trkpt>
      <trkpt lat="54.669674" lon="9.412695">
        <ele>68.596708</ele>
        <time>2021-01-24T08:58:46.000Z</time>
      </trkpt>
      <trkpt lat="54.669673" lon="9.412708">
        <ele>68.593380</ele>
        <time>2021-01-24T08:58:47.000Z</time>
      </trkpt>
      <trkpt lat="54.669663" lon="9.412757">
        <ele>68.580193</ele>
        <time>2021-01-24T08:58:52.000Z</time>
      </trkpt>
      <trkpt lat="54.669672" lon="9.412765">
        <ele>68.575752</ele>
        <time>2021-01-24T08:58:54.000Z</time>
      </trkpt>
      <trkpt lat="54.669673" lon="9.412786">
        <ele>68.570405</ele>
        <time>2021-01-24T08:58:56.000Z</time>
      </trkpt>
      <trkpt lat="54.669672" lon="9.412783">
        <ele>68.569526</ele>
        <time>2021-01-24T08:58:57.000Z</time>
      </trkpt>
      <trkpt lat="54.669674" lon="9.412782">
        <ele>68.568613</ele>
        <time>2021-01-24T08:58:59.000Z</time>
      </trkpt>
      <trkpt lat="54.669681" lon="9.412793">
        <ele>68.564462</ele>
        <time>2021-01-24T08:59:01.000Z</time>
      </trkpt>
      <trkpt lat="54.669684" lon="9.412792">
        <ele>68.563121</ele>
        <time>2021-01-24T08:59:02.000Z</time>
      </trkpt>
      <trkpt lat="54.669693" lon="9.412794">
        <ele>68.559139</ele>
        <time>2021-01-24T08:59:05.000Z</time>
      </trkpt>
      <trkpt lat="54.669694" lon="9.412799">
        <ele>68.557796</ele>
        <time>2021-01-24T08:59:06.000Z</time>
      </trkpt>
      <trkpt lat="54.669669" lon="9.412817">
        <ele>68.545912</ele>
        <time>2021-01-24T08:59:12.000Z</time>
      </trkpt>
      <trkpt lat="54.669611" lon="9.412830">
        <ele>68.520246</ele>
        <time>2021-01-24T08:59:16.000Z</time>
      </trkpt>
      <trkpt lat="54.669588" lon="9.412794">
        <ele>68.506632</ele>
        <time>2021-01-24T08:59:19.000Z</time>
      </trkpt>
      <trkpt lat="54.669581" lon="9.412779">
        <ele>68.501740</ele>
        <time>2021-01-24T08:59:20.000Z</time>
      </trkpt>
      <trkpt lat="54.669550" lon="9.412728">
        <ele>68.482963</ele>
        <time>2021-01-24T08:59:24.000Z</time>
      </trkpt>
      <trkpt lat="54.669543" lon="9.412686">
        <ele>68.471870</ele>
        <time>2021-01-24T08:59:26.000Z</time>
      </trkpt>
      <trkpt lat="54.669555" lon="9.412603">
        <ele>68.450158</ele>
        <time>2021-01-24T08:59:30.000Z</time>
      </trkpt>
      <trkpt lat="54.669554" lon="9.412575">
        <ele>68.443039</ele>
        <time>2021-01-24T08:59:31.000Z</time>
      </trkpt>
      <trkpt lat="54.669546" lon="9.412515">
        <ele>68.427412</ele>
        <time>2021-01-24T08:59:34.000Z</time>
      </trkpt>
      <trkpt lat="54.669535" lon="9.412422">
        <ele>68.403322</ele>
        <time>2021-01-24T08:59:42.000Z</time>
      </trkpt>
      <trkpt lat="54.669524" lon="9.412407">
        <ele>68.397174</ele>
        <time>2021-01-24T08:59:50.000Z</time>
      </trkpt>
      <trkpt lat="54.669525" lon="9.412415">
        <ele>68.395097</ele>
        <time>2021-01-24T08:59:52.000Z</time>
      </trkpt>
      <trkpt lat="54.669526" lon="9.412429">
        <ele>68.391517</ele>
        <time>2021-01-24T08:59:56.000Z</time>
      </trkpt>
      <trkpt lat="54.669535" lon="9.412420">
        <ele>68.386955</ele>
        <time>2021-01-24T09:00:01.000Z</time>
      </trkpt>
      <trkpt lat="54.669549" lon="9.412413">
        <ele>68.380559</ele>
        <time>2021-01-24T09:00:08.000Z</time>
      </trkpt>
      <trkpt lat="54.669551" lon="9.412416">
        <ele>68.379397</ele>
        <time>2021-01-24T09:00:10.000Z</time>
      </trkpt>
      <trkpt lat="54.669566" lon="9.412436">
        <ele>68.370035</ele>
        <time>2021-01-24T09:00:18.000Z</time>
      </trkpt>
      <trkpt lat="54.669568" lon="9.412429">
        <ele>68.360912</ele>
        <time>2021-01-24T09:00:21.000Z</time>
      </trkpt>
      <trkpt lat="54.669562" lon="9.412397">
        <ele>68.321605</ele>
        <time>2021-01-24T09:00:30.000Z</time>
      </trkpt>
      <trkpt lat="54.669559" lon="9.412390">
        <ele>68.311424</ele>
        <time>2021-01-24T09:00:32.000Z</time>
      </trkpt>
      <trkpt lat="54.669556" lon="9.412392">
        <ele>68.304928</ele>
        <time>2021-01-24T09:00:40.000Z</time>
      </trkpt>
      <trkpt lat="54.669559" lon="9.412392">
        <ele>68.298866</ele>
        <time>2021-01-24T09:00:42.000Z</time>
      </trkpt>
      <trkpt lat="54.669580" lon="9.412382">
        <ele>68.254854</ele>
        <time>2021-01-24T09:00:51.000Z</time>
      </trkpt>
      <trkpt lat="54.669560" lon="9.412410">
        <ele>68.202859</ele>
        <time>2021-01-24T09:01:02.000Z</time>
      </trkpt>
      <trkpt lat="54.669542" lon="9.412411">
        <ele>68.166470</ele>
        <time>2021-01-24T09:01:07.000Z</time>
      </trkpt>
      <trkpt lat="54.669547" lon="9.412413">
        <ele>68.156101</ele>
        <time>2021-01-24T09:01:12.000Z</time>
      </trkpt>
      <trkpt lat="54.669551" lon="9.412435">
        <ele>68.129154</ele>
        <time>2021-01-24T09:01:23.000Z</time>
      </trkpt>
      <trkpt lat="54.669530" lon="9.412452">
        <ele>68.082302</ele>
        <time>2021-01-24T09:01:26.000Z</time>
      </trkpt>
      <trkpt lat="54.669509" lon="9.412472">
        <ele>68.033860</ele>
        <time>2021-01-24T09:01:29.000Z</time>
      </trkpt>
      <trkpt lat="54.669487" lon="9.412474">
        <ele>67.989347</ele>
        <time>2021-01-24T09:01:31.000Z</time>
      </trkpt>
      <trkpt lat="54.669453" lon="9.412483">
        <ele>67.919847</ele>
        <time>2021-01-24T09:01:34.000Z</time>
      </trkpt>
      <trkpt lat="54.669426" lon="9.412492">
        <ele>67.864287</ele>
        <time>2021-01-24T09:01:36.000Z</time>
      </trkpt>
      <trkpt lat="54.669419" lon="9.412492">
        <ele>67.850143</ele>
        <time>2021-01-24T09:01:37.000Z</time>
      </trkpt>
      <trkpt lat="54.669406" lon="9.412484">
        <ele>67.822262</ele>
        <time>2021-01-24T09:01:40.000Z</time>
      </trkpt>
      <trkpt lat="54.669392" lon="9.412477">
        <ele>67.792816</ele>
        <time>2021-01-24T09:01:42.000Z</time>
      </trkpt>
      <trkpt lat="54.669367" lon="9.412462">
        <ele>67.739347</ele>
        <time>2021-01-24T09:01:45.000Z</time>
      </trkpt>
      <trkpt lat="54.669348" lon="9.412464">
        <ele>67.700885</ele>
        <time>2021-01-24T09:01:47.000Z</time>
      </trkpt>
      <trkpt lat="54.669338" lon="9.412461">
        <ele>67.680378</ele>
        <time>2021-01-24T09:01:48.000Z</time>
      </trkpt>
      <trkpt lat="54.669324" lon="9.412456">
        <ele>67.651493</ele>
        <time>2021-01-24T09:01:50.000Z</time>
      </trkpt>
      <trkpt lat="54.669308" lon="9.412455">
        <ele>67.619143</ele>
        <time>2021-01-24T09:01:52.000Z</time>
      </trkpt>
      <trkpt lat="54.669301" lon="9.412456">
        <ele>67.604950</ele>
        <time>2021-01-24T09:01:53.000Z</time>
      </trkpt>
      <trkpt lat="54.669286" lon="9.412447">
        <ele>67.572869</ele>
        <time>2021-01-24T09:01:55.000Z</time>
      </trkpt>
      <trkpt lat="54.669276" lon="9.412445">
        <ele>67.552529</ele>
        <time>2021-01-24T09:01:56.000Z</time>
      </trkpt>
      <trkpt lat="54.669262" lon="9.412432">
        <ele>67.520421</ele>
        <time>2021-01-24T09:01:57.000Z</time>
      </trkpt>
      <trkpt lat="54.669237" lon="9.412407">
        <ele>67.462068</ele>
        <time>2021-01-24T09:01:59.000Z</time>
      </trkpt>
      <trkpt lat="54.669211" lon="9.412394">
        <ele>67.407381</ele>
        <time>2021-01-24T09:02:01.000Z</time>
      </trkpt>
      <trkpt lat="54.669201" lon="9.412397">
        <ele>67.386874</ele>
        <time>2021-01-24T09:02:02.000Z</time>
      </trkpt>
      <trkpt lat="54.669179" lon="9.412383">
        <ele>67.339507</ele>
        <time>2021-01-24T09:02:04.000Z</time>
      </trkpt>
      <trkpt lat="54.669159" lon="9.412363">
        <ele>67.292824</ele>
        <time>2021-01-24T09:02:06.000Z</time>
      </trkpt>
      <trkpt lat="54.669136" lon="9.412346">
        <ele>67.242284</ele>
        <time>2021-01-24T09:02:08.000Z</time>
      </trkpt>
      <trkpt lat="54.669125" lon="9.412335">
        <ele>67.216609</ele>
        <time>2021-01-24T09:02:09.000Z</time>
      </trkpt>
      <trkpt lat="54.669066" lon="9.412314">
        <ele>67.094896</ele>
        <time>2021-01-24T09:02:14.000Z</time>
      </trkpt>
      <trkpt lat="54.669017" lon="9.412284">
        <ele>66.989866</ele>
        <time>2021-01-24T09:02:18.000Z</time>
      </trkpt>
      <trkpt lat="54.668998" lon="9.412270">
        <ele>66.948135</ele>
        <time>2021-01-24T09:02:20.000Z</time>
      </trkpt>
      <trkpt lat="54.668986" lon="9.412270">
        <ele>66.923888</ele>
        <time>2021-01-24T09:02:21.000Z</time>
      </trkpt>
      <trkpt lat="54.668970" lon="9.412255">
        <ele>66.887113</ele>
        <time>2021-01-24T09:02:22.000Z</time>
      </trkpt>
      <trkpt lat="54.668934" lon="9.412227">
        <ele>66.807354</ele>
        <time>2021-01-24T09:02:24.000Z</time>
      </trkpt>
      <trkpt lat="54.668913" lon="9.412208">
        <ele>66.759465</ele>
        <time>2021-01-24T09:02:26.000Z</time>
      </trkpt>
      <trkpt lat="54.668906" lon="9.412197">
        <ele>66.740353</ele>
        <time>2021-01-24T09:02:27.000Z</time>
      </trkpt>
      <trkpt lat="54.668894" lon="9.412199">
        <ele>66.715994</ele>
        <time>2021-01-24T09:02:28.000Z</time>
      </trkpt>
      <trkpt lat="54.668840" lon="9.412159">
        <ele>66.597293</ele>
        <time>2021-01-24T09:02:32.000Z</time>
      </trkpt>
      <trkpt lat="54.668812" lon="9.412141">
        <ele>66.536934</ele>
        <time>2021-01-24T09:02:34.000Z</time>
      </trkpt>
      <trkpt lat="54.668804" lon="9.412129">
        <ele>66.515536</ele>
        <time>2021-01-24T09:02:35.000Z</time>
      </trkpt>
      <trkpt lat="54.668799" lon="9.412120">
        <ele>66.500953</ele>
        <time>2021-01-24T09:02:36.000Z</time>
      </trkpt>
      <trkpt lat="54.668764" lon="9.412075">
        <ele>66.412826</ele>
        <time>2021-01-24T09:02:40.000Z</time>
      </trkpt>
      <trkpt lat="54.668758" lon="9.412067">
        <ele>66.397518</ele>
        <time>2021-01-24T09:02:41.000Z</time>
      </trkpt>
      <trkpt lat="54.668750" lon="9.412060">
        <ele>66.379401</ele>
        <time>2021-01-24T09:02:42.000Z</time>
      </trkpt>
      <trkpt lat="54.668733" lon="9.412045">
        <ele>66.340838</ele>
        <time>2021-01-24T09:02:44.000Z</time>
      </trkpt>
      <trkpt lat="54.668677" lon="9.411980">
        <ele>66.204559</ele>
        <time>2021-01-24T09:02:49.000Z</time>
      </trkpt>
      <trkpt lat="54.668655" lon="9.411957">
        <ele>66.152613</ele>
        <time>2021-01-24T09:02:50.000Z</time>
      </trkpt>
      <trkpt lat="54.668598" lon="9.411899">
        <ele>66.018980</ele>
        <time>2021-01-24T09:02:55.000Z</time>
      </trkpt>
      <trkpt lat="54.668567" lon="9.411836">
        <ele>65.922322</ele>
        <time>2021-01-24T09:02:58.000Z</time>
      </trkpt>
      <trkpt lat="54.668536" lon="9.411789">
        <ele>65.839018</ele>
        <time>2021-01-24T09:03:00.000Z</time>
      </trkpt>
      <trkpt lat="54.668512" lon="9.411754">
        <ele>65.775581</ele>
        <time>2021-01-24T09:03:02.000Z</time>
      </trkpt>
      <trkpt lat="54.668440" lon="9.411686">
        <ele>65.609815</ele>
        <time>2021-01-24T09:03:09.000Z</time>
      </trkpt>
      <trkpt lat="54.668392" lon="9.411679">
        <ele>65.512483</ele>
        <time>2021-01-24T09:03:14.000Z</time>
      </trkpt>
      <trkpt lat="54.668366" lon="9.411691">
        <ele>65.458109</ele>
        <time>2021-01-24T09:03:16.000Z</time>
      </trkpt>
      <trkpt lat="54.668344" lon="9.411723">
        <ele>65.400021</ele>
        <time>2021-01-24T09:03:19.000Z</time>
      </trkpt>
      <trkpt lat="54.668338" lon="9.411746">
        <ele>65.370538</ele>
        <time>2021-01-24T09:03:21.000Z</time>
      </trkpt>
      <trkpt lat="54.668326" lon="9.411783">
        <ele>65.320968</ele>
        <time>2021-01-24T09:03:23.000Z</time>
      </trkpt>
      <trkpt lat="54.668319" lon="9.411803">
        <ele>65.293651</ele>
        <time>2021-01-24T09:03:24.000Z</time>
      </trkpt>
      <trkpt lat="54.668314" lon="9.411839">
        <ele>65.250388</ele>
        <time>2021-01-24T09:03:26.000Z</time>
      </trkpt>
      <trkpt lat="54.668314" lon="9.411865">
        <ele>65.220007</ele>
        <time>2021-01-24T09:03:28.000Z</time>
      </trkpt>
      <trkpt lat="54.668306" lon="9.411897">
        <ele>65.179270</ele>
        <time>2021-01-24T09:03:30.000Z</time>
      </trkpt>
      <trkpt lat="54.668297" lon="9.411927">
        <ele>65.139779</ele>
        <time>2021-01-24T09:03:31.000Z</time>
      </trkpt>
      <trkpt lat="54.668286" lon="9.411952">
        <ele>65.103072</ele>
        <time>2021-01-24T09:03:32.000Z</time>
      </trkpt>
      <trkpt lat="54.668263" lon="9.412000">
        <ele>65.030232</ele>
        <time>2021-01-24T09:03:35.000Z</time>
      </trkpt>
      <trkpt lat="54.668251" lon="9.412021">
        <ele>64.995735</ele>
        <time>2021-01-24T09:03:37.000Z</time>
      </trkpt>
      <trkpt lat="54.668243" lon="9.412040">
        <ele>64.968272</ele>
        <time>2021-01-24T09:03:38.000Z</time>
      </trkpt>
      <trkpt lat="54.668214" lon="9.412091">
        <ele>64.884695</ele>
        <time>2021-01-24T09:03:41.000Z</time>
      </trkpt>
      <trkpt lat="54.668168" lon="9.412168">
        <ele>64.755333</ele>
        <time>2021-01-24T09:03:46.000Z</time>
      </trkpt>
      <trkpt lat="54.668155" lon="9.412186">
        <ele>64.741663</ele>
        <time>2021-01-24T09:03:47.000Z</time>
      </trkpt>
      <trkpt lat="54.668123" lon="9.412271">
        <ele>64.776766</ele>
        <time>2021-01-24T09:03:52.000Z</time>
      </trkpt>
      <trkpt lat="54.668113" lon="9.412301">
        <ele>64.788751</ele>
        <time>2021-01-24T09:03:53.000Z</time>
      </trkpt>
      <trkpt lat="54.668060" lon="9.412376">
        <ele>64.829738</ele>
        <time>2021-01-24T09:03:57.000Z</time>
      </trkpt>
      <trkpt lat="54.668016" lon="9.412427">
        <ele>64.861439</ele>
        <time>2021-01-24T09:04:00.000Z</time>
      </trkpt>
      <trkpt lat="54.667935" lon="9.412514">
        <ele>64.918506</ele>
        <time>2021-01-24T09:04:06.000Z</time>
      </trkpt>
      <trkpt lat="54.667909" lon="9.412508">
        <ele>64.934205</ele>
        <time>2021-01-24T09:04:08.000Z</time>
      </trkpt>
      <trkpt lat="54.667814" lon="9.412459">
        <ele>64.993535</ele>
        <time>2021-01-24T09:04:14.000Z</time>
      </trkpt>
      <trkpt lat="54.667784" lon="9.412438">
        <ele>65.012905</ele>
        <time>2021-01-24T09:04:16.000Z</time>
      </trkpt>
      <trkpt lat="54.667745" lon="9.412443">
        <ele>65.036310</ele>
        <time>2021-01-24T09:04:18.000Z</time>
      </trkpt>
      <trkpt lat="54.667714" lon="9.412453">
        <ele>65.055183</ele>
        <time>2021-01-24T09:04:20.000Z</time>
      </trkpt>
      <trkpt lat="54.667704" lon="9.412459">
        <ele>65.061517</ele>
        <time>2021-01-24T09:04:21.000Z</time>
      </trkpt>
      <trkpt lat="54.667683" lon="9.412489">
        <ele>65.077820</ele>
        <time>2021-01-24T09:04:26.000Z</time>
      </trkpt>
      <trkpt lat="54.667677" lon="9.412471">
        <ele>65.085010</ele>
        <time>2021-01-24T09:04:27.000Z</time>
      </trkpt>
      <trkpt lat="54.667683" lon="9.412378">
        <ele>65.117398</ele>
        <time>2021-01-24T09:04:32.000Z</time>
      </trkpt>
      <trkpt lat="54.667663" lon="9.412316">
        <ele>65.141970</ele>
        <time>2021-01-24T09:04:35.000Z</time>
      </trkpt>
      <trkpt lat="54.667661" lon="9.412222">
        <ele>65.174526</ele>
        <time>2021-01-24T09:04:40.000Z</time>
      </trkpt>
      <trkpt lat="54.667668" lon="9.412205">
        <ele>65.181749</ele>
        <time>2021-01-24T09:04:41.000Z</time>
      </trkpt>
      <trkpt lat="54.667681" lon="9.412084">
        <ele>65.224345</ele>
        <time>2021-01-24T09:04:47.000Z</time>
      </trkpt>
      <trkpt lat="54.667698" lon="9.411953">
        <ele>65.270812</ele>
        <time>2021-01-24T09:04:54.000Z</time>
      </trkpt>
      <trkpt lat="54.667706" lon="9.411911">
        <ele>65.286117</ele>
        <time>2021-01-24T09:04:57.000Z</time>
      </trkpt>
      <trkpt lat="54.667714" lon="9.411869">
        <ele>65.301422</ele>
        <time>2021-01-24T09:05:00.000Z</time>
      </trkpt>
      <trkpt lat="54.667728" lon="9.411846">
        <ele>65.312979</ele>
        <time>2021-01-24T09:05:02.000Z</time>
      </trkpt>
      <trkpt lat="54.667769" lon="9.411789">
        <ele>65.344464</ele>
        <time>2021-01-24T09:05:07.000Z</time>
      </trkpt>
      <trkpt lat="54.667788" lon="9.411744">
        <ele>65.363748</ele>
        <time>2021-01-24T09:05:09.000Z</time>
      </trkpt>
      <trkpt lat="54.667809" lon="9.411689">
        <ele>65.386559</ele>
        <time>2021-01-24T09:05:12.000Z</time>
      </trkpt>
      <trkpt lat="54.667856" lon="9.411599">
        <ele>65.428529</ele>
        <time>2021-01-24T09:05:18.000Z</time>
      </trkpt>
      <trkpt lat="54.667861" lon="9.411584">
        <ele>65.434521</ele>
        <time>2021-01-24T09:05:19.000Z</time>
      </trkpt>
      <trkpt lat="54.667870" lon="9.411559">
        <ele>65.444713</ele>
        <time>2021-01-24T09:05:21.000Z</time>
      </trkpt>
      <trkpt lat="54.667870" lon="9.411535">
        <ele>65.453020</ele>
        <time>2021-01-24T09:05:23.000Z</time>
      </trkpt>
      <trkpt lat="54.667877" lon="9.411531">
        <ele>65.457432</ele>
        <time>2021-01-24T09:05:25.000Z</time>
      </trkpt>
      <trkpt lat="54.667879" lon="9.411533">
        <ele>65.458815</ele>
        <time>2021-01-24T09:05:26.000Z</time>
      </trkpt>
      <trkpt lat="54.667883" lon="9.411545">
        <ele>65.463609</ele>
        <time>2021-01-24T09:05:28.000Z</time>
      </trkpt>
      <trkpt lat="54.667888" lon="9.411551">
        <ele>65.467251</ele>
        <time>2021-01-24T09:05:30.000Z</time>
      </trkpt>
      <trkpt lat="54.667910" lon="9.411574">
        <ele>65.482637</ele>
        <time>2021-01-24T09:05:35.000Z</time>
      </trkpt>
      <trkpt lat="54.667944" lon="9.411537">
        <ele>65.506679</ele>
        <time>2021-01-24T09:05:39.000Z</time>
      </trkpt>
      <trkpt lat="54.667961" lon="9.411513">
        <ele>65.519814</ele>
        <time>2021-01-24T09:05:41.000Z</time>
      </trkpt>
      <trkpt lat="54.667971" lon="9.411500">
        <ele>65.527301</ele>
        <time>2021-01-24T09:05:42.000Z</time>
      </trkpt>
      <trkpt lat="54.668005" lon="9.411461">
        <ele>65.551719</ele>
        <time>2021-01-24T09:05:45.000Z</time>
      </trkpt>
      <trkpt lat="54.668032" lon="9.411456">
        <ele>65.567970</ele>
        <time>2021-01-24T09:05:46.000Z</time>
      </trkpt>
      <trkpt lat="54.668074" lon="9.411422">
        <ele>65.595725</ele>
        <time>2021-01-24T09:05:49.000Z</time>
      </trkpt>
      <trkpt lat="54.668087" lon="9.411406">
        <ele>65.605274</ele>
        <time>2021-01-24T09:05:51.000Z</time>
      </trkpt>
      <trkpt lat="54.668094" lon="9.411335">
        <ele>65.630202</ele>
        <time>2021-01-24T09:05:55.000Z</time>
      </trkpt>
      <trkpt lat="54.668087" lon="9.411214">
        <ele>65.672290</ele>
        <time>2021-01-24T09:06:00.000Z</time>
      </trkpt>
      <trkpt lat="54.668083" lon="9.411195">
        <ele>65.679288</ele>
        <time>2021-01-24T09:06:01.000Z</time>
      </trkpt>
      <trkpt lat="54.668073" lon="9.411144">
        <ele>65.697927</ele>
        <time>2021-01-24T09:06:04.000Z</time>
      </trkpt>
      <trkpt lat="54.668027" lon="9.411070">
        <ele>65.735528</ele>
        <time>2021-01-24T09:06:07.000Z</time>
      </trkpt>
      <trkpt lat="54.667996" lon="9.411047">
        <ele>65.755717</ele>
        <time>2021-01-24T09:06:09.000Z</time>
      </trkpt>
      <trkpt lat="54.667895" lon="9.410985">
        <ele>65.803363</ele>
        <time>2021-01-24T09:06:18.000Z</time>
      </trkpt>
      <trkpt lat="54.667795" lon="9.410928">
        <ele>65.701835</ele>
        <time>2021-01-24T09:06:25.000Z</time>
      </trkpt>
      <trkpt lat="54.667784" lon="9.410926">
        <ele>65.691170</ele>
        <time>2021-01-24T09:06:26.000Z</time>
      </trkpt>
      <trkpt lat="54.667732" lon="9.410902">
        <ele>65.639274</ele>
        <time>2021-01-24T09:06:32.000Z</time>
      </trkpt>
      <trkpt lat="54.667727" lon="9.410897">
        <ele>65.633705</ele>
        <time>2021-01-24T09:06:33.000Z</time>
      </trkpt>
      <trkpt lat="54.667712" lon="9.410888">
        <ele>65.618395</ele>
        <time>2021-01-24T09:06:34.000Z</time>
      </trkpt>
      <trkpt lat="54.667674" lon="9.410868">
        <ele>65.580095</ele>
        <time>2021-01-24T09:06:36.000Z</time>
      </trkpt>
      <trkpt lat="54.667651" lon="9.410856">
        <ele>65.556929</ele>
        <time>2021-01-24T09:06:37.000Z</time>
      </trkpt>
      <trkpt lat="54.667625" lon="9.410835">
        <ele>65.529259</ele>
        <time>2021-01-24T09:06:39.000Z</time>
      </trkpt>
      <trkpt lat="54.667626" lon="9.410822">
        <ele>65.521946</ele>
        <time>2021-01-24T09:06:41.000Z</time>
      </trkpt>
      <trkpt lat="54.667625" lon="9.410820">
        <ele>65.520472</ele>
        <time>2021-01-24T09:06:42.000Z</time>
      </trkpt>
      <trkpt lat="54.667563" lon="9.410807">
        <ele>65.460251</ele>
        <time>2021-01-24T09:06:46.000Z</time>
      </trkpt>
      <trkpt lat="54.667457" lon="9.410785">
        <ele>65.357308</ele>
        <time>2021-01-24T09:06:52.000Z</time>
      </trkpt>
      <trkpt lat="54.667428" lon="9.410781">
        <ele>65.329256</ele>
        <time>2021-01-24T09:06:54.000Z</time>
      </trkpt>
      <trkpt lat="54.667326" lon="9.410765">
        <ele>65.230500</ele>
        <time>2021-01-24T09:07:03.000Z</time>
      </trkpt>
      <trkpt lat="54.667277" lon="9.410749">
        <ele>65.182417</ele>
        <time>2021-01-24T09:07:08.000Z</time>
      </trkpt>
      <trkpt lat="54.667271" lon="9.410735">
        <ele>65.172700</ele>
        <time>2021-01-24T09:07:10.000Z</time>
      </trkpt>
      <trkpt lat="54.667270" lon="9.410735">
        <ele>65.171735</ele>
        <time>2021-01-24T09:07:11.000Z</time>
      </trkpt>
      <trkpt lat="54.667268" lon="9.410734">
        <ele>65.169728</ele>
        <time>2021-01-24T09:07:12.000Z</time>
      </trkpt>
      <trkpt lat="54.667250" lon="9.410729">
        <ele>65.152149</ele>
        <time>2021-01-24T09:07:16.000Z</time>
      </trkpt>
      <trkpt lat="54.667234" lon="9.410725">
        <ele>65.136561</ele>
        <time>2021-01-24T09:07:19.000Z</time>
      </trkpt>
      <trkpt lat="54.667197" lon="9.410708">
        <ele>65.099646</ele>
        <time>2021-01-24T09:07:25.000Z</time>
      </trkpt>
      <trkpt lat="54.667182" lon="9.410708">
        <ele>65.085182</ele>
        <time>2021-01-24T09:07:27.000Z</time>
      </trkpt>
      <trkpt lat="54.667183" lon="9.410756">
        <ele>65.058398</ele>
        <time>2021-01-24T09:07:30.000Z</time>
      </trkpt>
      <trkpt lat="54.667165" lon="9.410782">
        <ele>65.035783</ele>
        <time>2021-01-24T09:07:32.000Z</time>
      </trkpt>
      <trkpt lat="54.667145" lon="9.410778">
        <ele>65.016369</ele>
        <time>2021-01-24T09:07:34.000Z</time>
      </trkpt>
      <trkpt lat="54.667089" lon="9.410765">
        <ele>64.961887</ele>
        <time>2021-01-24T09:07:38.000Z</time>
      </trkpt>
      <trkpt lat="54.667075" lon="9.410761">
        <ele>64.948205</ele>
        <time>2021-01-24T09:07:39.000Z</time>
      </trkpt>
      <trkpt lat="54.667044" lon="9.410743">
        <ele>64.916673</ele>
        <time>2021-01-24T09:07:42.000Z</time>
      </trkpt>
      <trkpt lat="54.667014" lon="9.410727">
        <ele>64.886401</ele>
        <time>2021-01-24T09:07:45.000Z</time>
      </trkpt>
      <trkpt lat="54.666967" lon="9.410705">
        <ele>64.839451</ele>
        <time>2021-01-24T09:07:51.000Z</time>
      </trkpt>
      <trkpt lat="54.666961" lon="9.410700">
        <ele>64.833028</ele>
        <time>2021-01-24T09:07:52.000Z</time>
      </trkpt>
      <trkpt lat="54.666933" lon="9.410677">
        <ele>64.803138</ele>
        <time>2021-01-24T09:07:55.000Z</time>
      </trkpt>
      <trkpt lat="54.666875" lon="9.410674">
        <ele>64.747187</ele>
        <time>2021-01-24T09:07:59.000Z</time>
      </trkpt>
      <trkpt lat="54.666797" lon="9.410659">
        <ele>64.671513</ele>
        <time>2021-01-24T09:08:05.000Z</time>
      </trkpt>
      <trkpt lat="54.666678" lon="9.410625">
        <ele>64.555212</ele>
        <time>2021-01-24T09:08:13.000Z</time>
      </trkpt>
      <trkpt lat="54.666669" lon="9.410621">
        <ele>64.546252</ele>
        <time>2021-01-24T09:08:14.000Z</time>
      </trkpt>
      <trkpt lat="54.666610" lon="9.410591">
        <ele>64.486953</ele>
        <time>2021-01-24T09:08:19.000Z</time>
      </trkpt>
      <trkpt lat="54.666551" lon="9.410606">
        <ele>64.429451</ele>
        <time>2021-01-24T09:08:24.000Z</time>
      </trkpt>
      <trkpt lat="54.666543" lon="9.410604">
        <ele>64.421657</ele>
        <time>2021-01-24T09:08:25.000Z</time>
      </trkpt>
      <trkpt lat="54.666461" lon="9.410541">
        <ele>64.335135</ele>
        <time>2021-01-24T09:08:31.000Z</time>
      </trkpt>
      <trkpt lat="54.666357" lon="9.410485">
        <ele>64.230104</ele>
        <time>2021-01-24T09:08:38.000Z</time>
      </trkpt>
      <trkpt lat="54.666307" lon="9.410422">
        <ele>64.170450</ele>
        <time>2021-01-24T09:08:43.000Z</time>
      </trkpt>
      <trkpt lat="54.666300" lon="9.410418">
        <ele>64.163341</ele>
        <time>2021-01-24T09:08:44.000Z</time>
      </trkpt>
      <trkpt lat="54.666293" lon="9.410421">
        <ele>64.156387</ele>
        <time>2021-01-24T09:08:45.000Z</time>
      </trkpt>
      <trkpt lat="54.666290" lon="9.410419">
        <ele>64.153287</ele>
        <time>2021-01-24T09:08:46.000Z</time>
      </trkpt>
      <trkpt lat="54.666261" lon="9.410389">
        <ele>64.120701</ele>
        <time>2021-01-24T09:08:51.000Z</time>
      </trkpt>
      <trkpt lat="54.666247" lon="9.410369">
        <ele>64.103191</ele>
        <time>2021-01-24T09:08:52.000Z</time>
      </trkpt>
      <trkpt lat="54.666218" lon="9.410333">
        <ele>64.062466</ele>
        <time>2021-01-24T09:08:56.000Z</time>
      </trkpt>
      <trkpt lat="54.666227" lon="9.410313">
        <ele>64.039812</ele>
        <time>2021-01-24T09:08:58.000Z</time>
      </trkpt>
      <trkpt lat="54.666230" lon="9.410318">
        <ele>64.033372</ele>
        <time>2021-01-24T09:08:59.000Z</time>
      </trkpt>
      <trkpt lat="54.666277" lon="9.410314">
        <ele>63.960635</ele>
        <time>2021-01-24T09:09:06.000Z</time>
      </trkpt>
      <trkpt lat="54.666290" lon="9.410316">
        <ele>63.940462</ele>
        <time>2021-01-24T09:09:08.000Z</time>
      </trkpt>
      <trkpt lat="54.666289" lon="9.410309">
        <ele>63.934016</ele>
        <time>2021-01-24T09:09:13.000Z</time>
      </trkpt>
      <trkpt lat="54.666297" lon="9.410304">
        <ele>63.920867</ele>
        <time>2021-01-24T09:09:16.000Z</time>
      </trkpt>
      <trkpt lat="54.666240" lon="9.410278">
        <ele>63.829747</ele>
        <time>2021-01-24T09:09:22.000Z</time>
      </trkpt>
      <trkpt lat="54.666215" lon="9.410262">
        <ele>63.788542</ele>
        <time>2021-01-24T09:09:25.000Z</time>
      </trkpt>
      <trkpt lat="54.666186" lon="9.410251">
        <ele>63.742651</ele>
        <time>2021-01-24T09:09:28.000Z</time>
      </trkpt>
      <trkpt lat="54.666094" lon="9.410185">
        <ele>63.588691</ele>
        <time>2021-01-24T09:09:36.000Z</time>
      </trkpt>
      <trkpt lat="54.666087" lon="9.410179">
        <ele>63.576615</ele>
        <time>2021-01-24T09:09:37.000Z</time>
      </trkpt>
      <trkpt lat="54.666031" lon="9.410158">
        <ele>63.488042</ele>
        <time>2021-01-24T09:09:42.000Z</time>
      </trkpt>
      <trkpt lat="54.666019" lon="9.410151">
        <ele>63.468467</ele>
        <time>2021-01-24T09:09:43.000Z</time>
      </trkpt>
      <trkpt lat="54.665945" lon="9.410112">
        <ele>63.348889</ele>
        <time>2021-01-24T09:09:50.000Z</time>
      </trkpt>
      <trkpt lat="54.665872" lon="9.410049">
        <ele>63.222777</ele>
        <time>2021-01-24T09:09:56.000Z</time>
      </trkpt>
      <trkpt lat="54.665859" lon="9.410025">
        <ele>63.193382</ele>
        <time>2021-01-24T09:09:58.000Z</time>
      </trkpt>
      <trkpt lat="54.665814" lon="9.409953">
        <ele>63.098614</ele>
        <time>2021-01-24T09:10:02.000Z</time>
      </trkpt>
      <trkpt lat="54.665791" lon="9.409929">
        <ele>63.057090</ele>
        <time>2021-01-24T09:10:04.000Z</time>
      </trkpt>
      <trkpt lat="54.665754" lon="9.409916">
        <ele>62.998730</ele>
        <time>2021-01-24T09:10:07.000Z</time>
      </trkpt>
      <trkpt lat="54.665731" lon="9.409905">
        <ele>62.961843</ele>
        <time>2021-01-24T09:10:09.000Z</time>
      </trkpt>
      <trkpt lat="54.665710" lon="9.409893">
        <ele>62.927657</ele>
        <time>2021-01-24T09:10:11.000Z</time>
      </trkpt>
      <trkpt lat="54.665669" lon="9.409873">
        <ele>62.861809</ele>
        <time>2021-01-24T09:10:14.000Z</time>
      </trkpt>
      <trkpt lat="54.665659" lon="9.409868">
        <ele>62.845718</ele>
        <time>2021-01-24T09:10:15.000Z</time>
      </trkpt>
      <trkpt lat="54.665644" lon="9.409860">
        <ele>62.821455</ele>
        <time>2021-01-24T09:10:16.000Z</time>
      </trkpt>
      <trkpt lat="54.665612" lon="9.409837">
        <ele>62.767889</ele>
        <time>2021-01-24T09:10:18.000Z</time>
      </trkpt>
      <trkpt lat="54.665578" lon="9.409803">
        <ele>62.707178</ele>
        <time>2021-01-24T09:10:21.000Z</time>
      </trkpt>
      <trkpt lat="54.665575" lon="9.409796">
        <ele>62.699389</ele>
        <time>2021-01-24T09:10:22.000Z</time>
      </trkpt>
      <trkpt lat="54.665543" lon="9.409756">
        <ele>62.638355</ele>
        <time>2021-01-24T09:10:26.000Z</time>
      </trkpt>
      <trkpt lat="54.665522" lon="9.409745">
        <ele>62.604438</ele>
        <time>2021-01-24T09:10:28.000Z</time>
      </trkpt>
      <trkpt lat="54.665494" lon="9.409730">
        <ele>62.559128</ele>
        <time>2021-01-24T09:10:30.000Z</time>
      </trkpt>
      <trkpt lat="54.665436" lon="9.409706">
        <ele>62.466945</ele>
        <time>2021-01-24T09:10:34.000Z</time>
      </trkpt>
      <trkpt lat="54.665401" lon="9.409731">
        <ele>62.408411</ele>
        <time>2021-01-24T09:10:37.000Z</time>
      </trkpt>
      <trkpt lat="54.665403" lon="9.409774">
        <ele>62.369846</ele>
        <time>2021-01-24T09:10:40.000Z</time>
      </trkpt>
      <trkpt lat="54.665405" lon="9.409789">
        <ele>62.356085</ele>
        <time>2021-01-24T09:10:41.000Z</time>
      </trkpt>
      <trkpt lat="54.665411" lon="9.409809">
        <ele>62.335943</ele>
        <time>2021-01-24T09:10:43.000Z</time>
      </trkpt>
      <trkpt lat="54.665427" lon="9.409866">
        <ele>62.279303</ele>
        <time>2021-01-24T09:10:47.000Z</time>
      </trkpt>
      <trkpt lat="54.665431" lon="9.409887">
        <ele>62.259538</ele>
        <time>2021-01-24T09:10:48.000Z</time>
      </trkpt>
      <trkpt lat="54.665436" lon="9.409918">
        <ele>62.230767</ele>
        <time>2021-01-24T09:10:50.000Z</time>
      </trkpt>
      <trkpt lat="54.665451" lon="9.410012">
        <ele>62.143595</ele>
        <time>2021-01-24T09:10:54.000Z</time>
      </trkpt>
      <trkpt lat="54.665457" lon="9.410171">
        <ele>62.001152</ele>
        <time>2021-01-24T09:11:01.000Z</time>
      </trkpt>
      <trkpt lat="54.665457" lon="9.410228">
        <ele>61.950196</ele>
        <time>2021-01-24T09:11:03.000Z</time>
      </trkpt>
      <trkpt lat="54.665455" lon="9.410433">
        <ele>61.766908</ele>
        <time>2021-01-24T09:11:11.000Z</time>
      </trkpt>
      <trkpt lat="54.665428" lon="9.410596">
        <ele>61.615333</ele>
        <time>2021-01-24T09:11:18.000Z</time>
      </trkpt>
      <trkpt lat="54.665428" lon="9.410618">
        <ele>61.595666</ele>
        <time>2021-01-24T09:11:20.000Z</time>
      </trkpt>
      <trkpt lat="54.665424" lon="9.410635">
        <ele>61.579259</ele>
        <time>2021-01-24T09:11:22.000Z</time>
      </trkpt>
      <trkpt lat="54.665425" lon="9.410635">
        <ele>61.577713</ele>
        <time>2021-01-24T09:11:23.000Z</time>
      </trkpt>
      <trkpt lat="54.665422" lon="9.410628">
        <ele>61.569925</ele>
        <time>2021-01-24T09:11:29.000Z</time>
      </trkpt>
      <trkpt lat="54.665422" lon="9.410625">
        <ele>61.567243</ele>
        <time>2021-01-24T09:11:30.000Z</time>
      </trkpt>
      <trkpt lat="54.665429" lon="9.410617">
        <ele>61.554273</ele>
        <time>2021-01-24T09:11:32.000Z</time>
      </trkpt>
      <trkpt lat="54.665426" lon="9.410614">
        <ele>61.548916</ele>
        <time>2021-01-24T09:11:40.000Z</time>
      </trkpt>
      <trkpt lat="54.665427" lon="9.410610">
        <ele>61.545020</ele>
        <time>2021-01-24T09:11:42.000Z</time>
      </trkpt>
      <trkpt lat="54.665439" lon="9.410601">
        <ele>61.524802</ele>
        <time>2021-01-24T09:11:44.000Z</time>
      </trkpt>
      <trkpt lat="54.665441" lon="9.410606">
        <ele>61.519367</ele>
        <time>2021-01-24T09:11:48.000Z</time>
      </trkpt>
      <trkpt lat="54.665424" lon="9.410618">
        <ele>61.490985</ele>
        <time>2021-01-24T09:11:49.000Z</time>
      </trkpt>
      <trkpt lat="54.665411" lon="9.410630">
        <ele>61.468206</ele>
        <time>2021-01-24T09:11:50.000Z</time>
      </trkpt>
      <trkpt lat="54.665386" lon="9.410650">
        <ele>61.425628</ele>
        <time>2021-01-24T09:11:52.000Z</time>
      </trkpt>
      <trkpt lat="54.665367" lon="9.410672">
        <ele>61.390282</ele>
        <time>2021-01-24T09:11:54.000Z</time>
      </trkpt>
      <trkpt lat="54.665350" lon="9.410698">
        <ele>61.355200</ele>
        <time>2021-01-24T09:11:57.000Z</time>
      </trkpt>
      <trkpt lat="54.665351" lon="9.410716">
        <ele>61.339035</ele>
        <time>2021-01-24T09:11:58.000Z</time>
      </trkpt>
      <trkpt lat="54.665353" lon="9.410744">
        <ele>61.313814</ele>
        <time>2021-01-24T09:11:59.000Z</time>
      </trkpt>
      <trkpt lat="54.665357" lon="9.410769">
        <ele>61.318294</ele>
        <time>2021-01-24T09:12:00.000Z</time>
      </trkpt>
      <trkpt lat="54.665358" lon="9.410864">
        <ele>61.513006</ele>
        <time>2021-01-24T09:12:04.000Z</time>
      </trkpt>
      <trkpt lat="54.665361" lon="9.410934">
        <ele>61.656848</ele>
        <time>2021-01-24T09:12:07.000Z</time>
      </trkpt>
      <trkpt lat="54.665391" lon="9.411001">
        <ele>61.830487</ele>
        <time>2021-01-24T09:12:10.000Z</time>
      </trkpt>
      <trkpt lat="54.665460" lon="9.411061">
        <ele>62.104151</ele>
        <time>2021-01-24T09:12:14.000Z</time>
      </trkpt>
      <trkpt lat="54.665479" lon="9.411082">
        <ele>62.184052</ele>
        <time>2021-01-24T09:12:15.000Z</time>
      </trkpt>
      <trkpt lat="54.665497" lon="9.411099">
        <ele>62.256726</ele>
        <time>2021-01-24T09:12:16.000Z</time>
      </trkpt>
      <trkpt lat="54.665531" lon="9.411126">
        <ele>62.389296</ele>
        <time>2021-01-24T09:12:18.000Z</time>
      </trkpt>
      <trkpt lat="54.665567" lon="9.411168">
        <ele>62.543175</ele>
        <time>2021-01-24T09:12:21.000Z</time>
      </trkpt>
      <trkpt lat="54.665592" lon="9.411247">
        <ele>62.727716</ele>
        <time>2021-01-24T09:12:26.000Z</time>
      </trkpt>
      <trkpt lat="54.665592" lon="9.411256">
        <ele>62.746159</ele>
        <time>2021-01-24T09:12:27.000Z</time>
      </trkpt>
      <trkpt lat="54.665618" lon="9.411293">
        <ele>62.865474</ele>
        <time>2021-01-24T09:12:31.000Z</time>
      </trkpt>
      <trkpt lat="54.665639" lon="9.411315">
        <ele>62.952476</ele>
        <time>2021-01-24T09:12:33.000Z</time>
      </trkpt>
      <trkpt lat="54.665650" lon="9.411327">
        <ele>62.998561</ele>
        <time>2021-01-24T09:12:34.000Z</time>
      </trkpt>
      <trkpt lat="54.665685" lon="9.411389">
        <ele>63.176106</ele>
        <time>2021-01-24T09:12:39.000Z</time>
      </trkpt>
      <trkpt lat="54.665690" lon="9.411397">
        <ele>63.200244</ele>
        <time>2021-01-24T09:12:40.000Z</time>
      </trkpt>
      <trkpt lat="54.665715" lon="9.411440">
        <ele>63.325190</ele>
        <time>2021-01-24T09:12:43.000Z</time>
      </trkpt>
      <trkpt lat="54.665720" lon="9.411450">
        <ele>63.352278</ele>
        <time>2021-01-24T09:12:44.000Z</time>
      </trkpt>
      <trkpt lat="54.665732" lon="9.411493">
        <ele>63.450118</ele>
        <time>2021-01-24T09:12:47.000Z</time>
      </trkpt>
      <trkpt lat="54.665755" lon="9.411551">
        <ele>63.594230</ele>
        <time>2021-01-24T09:12:51.000Z</time>
      </trkpt>
      <trkpt lat="54.665760" lon="9.411569">
        <ele>63.635150</ele>
        <time>2021-01-24T09:12:53.000Z</time>
      </trkpt>
      <trkpt lat="54.665779" lon="9.411614">
        <ele>63.749326</ele>
        <time>2021-01-24T09:12:56.000Z</time>
      </trkpt>
      <trkpt lat="54.665811" lon="9.411667">
        <ele>63.906336</ele>
        <time>2021-01-24T09:13:00.000Z</time>
      </trkpt>
      <trkpt lat="54.665831" lon="9.411705">
        <ele>64.011625</ele>
        <time>2021-01-24T09:13:04.000Z</time>
      </trkpt>
      <trkpt lat="54.665851" lon="9.411736">
        <ele>64.106797</ele>
        <time>2021-01-24T09:13:07.000Z</time>
      </trkpt>
      <trkpt lat="54.665860" lon="9.411757">
        <ele>64.160358</ele>
        <time>2021-01-24T09:13:08.000Z</time>
      </trkpt>
      <trkpt lat="54.665902" lon="9.411791">
        <ele>64.324679</ele>
        <time>2021-01-24T09:13:11.000Z</time>
      </trkpt>
      <trkpt lat="54.665941" lon="9.411833">
        <ele>64.487478</ele>
        <time>2021-01-24T09:13:15.000Z</time>
      </trkpt>
      <trkpt lat="54.665942" lon="9.411852">
        <ele>64.526574</ele>
        <time>2021-01-24T09:13:16.000Z</time>
      </trkpt>
      <trkpt lat="54.665987" lon="9.411941">
        <ele>64.768827</ele>
        <time>2021-01-24T09:13:21.000Z</time>
      </trkpt>
      <trkpt lat="54.666051" lon="9.411990">
        <ele>65.016834</ele>
        <time>2021-01-24T09:13:27.000Z</time>
      </trkpt>
      <trkpt lat="54.666057" lon="9.412015">
        <ele>65.072301</ele>
        <time>2021-01-24T09:13:29.000Z</time>
      </trkpt>
      <trkpt lat="54.666059" lon="9.412039">
        <ele>65.121990</ele>
        <time>2021-01-24T09:13:30.000Z</time>
      </trkpt>
      <trkpt lat="54.666099" lon="9.412118">
        <ele>65.337154</ele>
        <time>2021-01-24T09:13:35.000Z</time>
      </trkpt>
      <trkpt lat="54.666107" lon="9.412129">
        <ele>65.373371</ele>
        <time>2021-01-24T09:13:36.000Z</time>
      </trkpt>
      <trkpt lat="54.666115" lon="9.412136">
        <ele>65.405140</ele>
        <time>2021-01-24T09:13:37.000Z</time>
      </trkpt>
      <trkpt lat="54.666119" lon="9.412142">
        <ele>65.423903</ele>
        <time>2021-01-24T09:13:38.000Z</time>
      </trkpt>
      <trkpt lat="54.666141" lon="9.412165">
        <ele>65.514996</ele>
        <time>2021-01-24T09:13:41.000Z</time>
      </trkpt>
      <trkpt lat="54.666205" lon="9.412246">
        <ele>65.796023</ele>
        <time>2021-01-24T09:13:48.000Z</time>
      </trkpt>
      <trkpt lat="54.666252" lon="9.412292">
        <ele>65.987385</ele>
        <time>2021-01-24T09:13:52.000Z</time>
      </trkpt>
      <trkpt lat="54.666273" lon="9.412321">
        <ele>66.082613</ele>
        <time>2021-01-24T09:13:54.000Z</time>
      </trkpt>
      <trkpt lat="54.666290" lon="9.412342">
        <ele>66.156641</ele>
        <time>2021-01-24T09:13:57.000Z</time>
      </trkpt>
      <trkpt lat="54.666298" lon="9.412398">
        <ele>66.274846</ele>
        <time>2021-01-24T09:14:02.000Z</time>
      </trkpt>
      <trkpt lat="54.666294" lon="9.412415">
        <ele>66.312456</ele>
        <time>2021-01-24T09:14:03.000Z</time>
      </trkpt>
      <trkpt lat="54.666311" lon="9.412434">
        <ele>66.384180</ele>
        <time>2021-01-24T09:14:05.000Z</time>
      </trkpt>
      <trkpt lat="54.666319" lon="9.412443">
        <ele>66.417998</ele>
        <time>2021-01-24T09:14:07.000Z</time>
      </trkpt>
      <trkpt lat="54.666321" lon="9.412447">
        <ele>66.428833</ele>
        <time>2021-01-24T09:14:08.000Z</time>
      </trkpt>
      <trkpt lat="54.666324" lon="9.412452">
        <ele>66.443597</ele>
        <time>2021-01-24T09:14:09.000Z</time>
      </trkpt>
      <trkpt lat="54.666334" lon="9.412470">
        <ele>66.494744</ele>
        <time>2021-01-24T09:14:11.000Z</time>
      </trkpt>
      <trkpt lat="54.666343" lon="9.412479">
        <ele>66.531583</ele>
        <time>2021-01-24T09:14:13.000Z</time>
      </trkpt>
      <trkpt lat="54.666357" lon="9.412500">
        <ele>66.597254</ele>
        <time>2021-01-24T09:14:15.000Z</time>
      </trkpt>
      <trkpt lat="54.666364" lon="9.412513">
        <ele>66.633652</ele>
        <time>2021-01-24T09:14:16.000Z</time>
      </trkpt>
      <trkpt lat="54.666396" lon="9.412541">
        <ele>66.760728</ele>
        <time>2021-01-24T09:14:19.000Z</time>
      </trkpt>
      <trkpt lat="54.666406" lon="9.412549">
        <ele>66.799770</ele>
        <time>2021-01-24T09:14:20.000Z</time>
      </trkpt>
      <trkpt lat="54.666416" lon="9.412559">
        <ele>66.840702</ele>
        <time>2021-01-24T09:14:21.000Z</time>
      </trkpt>
      <trkpt lat="54.666454" lon="9.412619">
        <ele>67.023038</ele>
        <time>2021-01-24T09:14:25.000Z</time>
      </trkpt>
      <trkpt lat="54.666477" lon="9.412650">
        <ele>67.126367</ele>
        <time>2021-01-24T09:14:27.000Z</time>
      </trkpt>
      <trkpt lat="54.666517" lon="9.412722">
        <ele>67.330956</ele>
        <time>2021-01-24T09:14:32.000Z</time>
      </trkpt>
      <trkpt lat="54.666524" lon="9.412742">
        <ele>67.378861</ele>
        <time>2021-01-24T09:14:33.000Z</time>
      </trkpt>
      <trkpt lat="54.666539" lon="9.412787">
        <ele>67.485296</ele>
        <time>2021-01-24T09:14:36.000Z</time>
      </trkpt>
      <trkpt lat="54.666569" lon="9.412905">
        <ele>67.770765</ele>
        <time>2021-01-24T09:14:43.000Z</time>
      </trkpt>
      <trkpt lat="54.666568" lon="9.412923">
        <ele>67.818045</ele>
        <time>2021-01-24T09:14:44.000Z</time>
      </trkpt>
      <trkpt lat="54.666565" lon="9.412961">
        <ele>67.918322</ele>
        <time>2021-01-24T09:14:46.000Z</time>
      </trkpt>
      <trkpt lat="54.666593" lon="9.413009">
        <ele>68.096578</ele>
        <time>2021-01-24T09:14:49.000Z</time>
      </trkpt>
      <trkpt lat="54.666599" lon="9.413022">
        <ele>68.140065</ele>
        <time>2021-01-24T09:14:50.000Z</time>
      </trkpt>
      <trkpt lat="54.666604" lon="9.413039">
        <ele>68.189931</ele>
        <time>2021-01-24T09:14:51.000Z</time>
      </trkpt>
      <trkpt lat="54.666621" lon="9.413076">
        <ele>68.313486</ele>
        <time>2021-01-24T09:14:53.000Z</time>
      </trkpt>
      <trkpt lat="54.666635" lon="9.413164">
        <ele>68.552120</ele>
        <time>2021-01-24T09:14:57.000Z</time>
      </trkpt>
      <trkpt lat="54.666675" lon="9.413268">
        <ele>68.878683</ele>
        <time>2021-01-24T09:15:03.000Z</time>
      </trkpt>
      <trkpt lat="54.666681" lon="9.413282">
        <ele>68.924243</ele>
        <time>2021-01-24T09:15:04.000Z</time>
      </trkpt>
      <trkpt lat="54.666695" lon="9.413308">
        <ele>69.017126</ele>
        <time>2021-01-24T09:15:06.000Z</time>
      </trkpt>
      <trkpt lat="54.666699" lon="9.413317">
        <ele>69.046804</ele>
        <time>2021-01-24T09:15:07.000Z</time>
      </trkpt>
      <trkpt lat="54.666705" lon="9.413339">
        <ele>69.110401</ele>
        <time>2021-01-24T09:15:09.000Z</time>
      </trkpt>
      <trkpt lat="54.666712" lon="9.413369">
        <ele>69.194983</ele>
        <time>2021-01-24T09:15:11.000Z</time>
      </trkpt>
      <trkpt lat="54.666741" lon="9.413455">
        <ele>69.455271</ele>
        <time>2021-01-24T09:15:16.000Z</time>
      </trkpt>
      <trkpt lat="54.666748" lon="9.413512">
        <ele>69.607627</ele>
        <time>2021-01-24T09:15:19.000Z</time>
      </trkpt>
      <trkpt lat="54.666757" lon="9.413535">
        <ele>69.680235</ele>
        <time>2021-01-24T09:15:20.000Z</time>
      </trkpt>
      <trkpt lat="54.666768" lon="9.413626">
        <ele>69.923307</ele>
        <time>2021-01-24T09:15:23.000Z</time>
      </trkpt>
      <trkpt lat="54.666769" lon="9.413657">
        <ele>70.004486</ele>
        <time>2021-01-24T09:15:24.000Z</time>
      </trkpt>
      <trkpt lat="54.666750" lon="9.413689">
        <ele>70.124397</ele>
        <time>2021-01-24T09:15:26.000Z</time>
      </trkpt>
      <trkpt lat="54.666732" lon="9.413694">
        <ele>70.206818</ele>
        <time>2021-01-24T09:15:29.000Z</time>
      </trkpt>
      <trkpt lat="54.666736" lon="9.413677">
        <ele>70.254805</ele>
        <time>2021-01-24T09:15:30.000Z</time>
      </trkpt>
      <trkpt lat="54.666742" lon="9.413666">
        <ele>70.294339</ele>
        <time>2021-01-24T09:15:31.000Z</time>
      </trkpt>
      <trkpt lat="54.666771" lon="9.413615">
        <ele>70.481343</ele>
        <time>2021-01-24T09:15:37.000Z</time>
      </trkpt>
      <trkpt lat="54.666764" lon="9.413589">
        <ele>70.556328</ele>
        <time>2021-01-24T09:15:39.000Z</time>
      </trkpt>
      <trkpt lat="54.666763" lon="9.413574">
        <ele>70.595807</ele>
        <time>2021-01-24T09:15:41.000Z</time>
      </trkpt>
      <trkpt lat="54.666762" lon="9.413567">
        <ele>70.614659</ele>
        <time>2021-01-24T09:15:42.000Z</time>
      </trkpt>
      <trkpt lat="54.666757" lon="9.413559">
        <ele>70.645457</ele>
        <time>2021-01-24T09:15:49.000Z</time>
      </trkpt>
      <trkpt lat="54.666762" lon="9.413578">
        <ele>70.700036</ele>
        <time>2021-01-24T09:15:51.000Z</time>
      </trkpt>
      <trkpt lat="54.666756" lon="9.413592">
        <ele>70.745596</ele>
        <time>2021-01-24T09:15:58.000Z</time>
      </trkpt>
      <trkpt lat="54.666753" lon="9.413589">
        <ele>70.761264</ele>
        <time>2021-01-24T09:15:59.000Z</time>
      </trkpt>
      <trkpt lat="54.666741" lon="9.413577">
        <ele>70.823935</ele>
        <time>2021-01-24T09:16:06.000Z</time>
      </trkpt>
      <trkpt lat="54.666776" lon="9.413608">
        <ele>71.001720</ele>
        <time>2021-01-24T09:16:14.000Z</time>
      </trkpt>
      <trkpt lat="54.666761" lon="9.413644">
        <ele>71.117731</ele>
        <time>2021-01-24T09:16:20.000Z</time>
      </trkpt>
      <trkpt lat="54.666751" lon="9.413735">
        <ele>71.359918</ele>
        <time>2021-01-24T09:16:26.000Z</time>
      </trkpt>
      <trkpt lat="54.666754" lon="9.413753">
        <ele>71.408896</ele>
        <time>2021-01-24T09:16:27.000Z</time>
      </trkpt>
      <trkpt lat="54.666754" lon="9.413764">
        <ele>71.437657</ele>
        <time>2021-01-24T09:16:28.000Z</time>
      </trkpt>
      <trkpt lat="54.666768" lon="9.413790">
        <ele>71.530540</ele>
        <time>2021-01-24T09:16:31.000Z</time>
      </trkpt>
      <trkpt lat="54.666764" lon="9.413813">
        <ele>71.593337</ele>
        <time>2021-01-24T09:16:33.000Z</time>
      </trkpt>
      <trkpt lat="54.666760" lon="9.413829">
        <ele>71.638912</ele>
        <time>2021-01-24T09:16:34.000Z</time>
      </trkpt>
      <trkpt lat="54.666751" lon="9.413864">
        <ele>71.739061</ele>
        <time>2021-01-24T09:16:36.000Z</time>
      </trkpt>
      <trkpt lat="54.666741" lon="9.413905">
        <ele>71.855404</ele>
        <time>2021-01-24T09:16:38.000Z</time>
      </trkpt>
      <trkpt lat="54.666736" lon="9.413913">
        <ele>71.886202</ele>
        <time>2021-01-24T09:16:39.000Z</time>
      </trkpt>
      <trkpt lat="54.666717" lon="9.413933">
        <ele>71.986765</ele>
        <time>2021-01-24T09:16:42.000Z</time>
      </trkpt>
      <trkpt lat="54.666708" lon="9.413942">
        <ele>72.033768</ele>
        <time>2021-01-24T09:16:43.000Z</time>
      </trkpt>
      <trkpt lat="54.666701" lon="9.413953">
        <ele>72.076532</ele>
        <time>2021-01-24T09:16:44.000Z</time>
      </trkpt>
      <trkpt lat="54.666695" lon="9.413966">
        <ele>72.120019</ele>
        <time>2021-01-24T09:16:45.000Z</time>
      </trkpt>
      <trkpt lat="54.666675" lon="9.414009">
        <ele>72.264296</ele>
        <time>2021-01-24T09:16:49.000Z</time>
      </trkpt>
      <trkpt lat="54.666650" lon="9.414011">
        <ele>72.377441</ele>
        <time>2021-01-24T09:16:50.000Z</time>
      </trkpt>
      <trkpt lat="54.666641" lon="9.414012">
        <ele>72.418214</ele>
        <time>2021-01-24T09:16:51.000Z</time>
      </trkpt>
      <trkpt lat="54.666626" lon="9.414032">
        <ele>72.503848</ele>
        <time>2021-01-24T09:16:53.000Z</time>
      </trkpt>
      <trkpt lat="54.666583" lon="9.414070">
        <ele>72.722168</ele>
        <time>2021-01-24T09:16:57.000Z</time>
      </trkpt>
      <trkpt lat="54.666572" lon="9.414083">
        <ele>72.782405</ele>
        <time>2021-01-24T09:16:58.000Z</time>
      </trkpt>
      <trkpt lat="54.666568" lon="9.414092">
        <ele>72.812083</ele>
        <time>2021-01-24T09:16:59.000Z</time>
      </trkpt>
      <trkpt lat="54.666559" lon="9.414099">
        <ele>72.856698</ele>
        <time>2021-01-24T09:17:00.000Z</time>
      </trkpt>
      <trkpt lat="54.666489" lon="9.414178">
        <ele>73.234610</ele>
        <time>2021-01-24T09:17:07.000Z</time>
      </trkpt>
      <trkpt lat="54.666462" lon="9.414242">
        <ele>73.441737</ele>
        <time>2021-01-24T09:17:09.000Z</time>
      </trkpt>
      <trkpt lat="54.666435" lon="9.414249">
        <ele>73.565167</ele>
        <time>2021-01-24T09:17:11.000Z</time>
      </trkpt>
      <trkpt lat="54.666396" lon="9.414305">
        <ele>73.794354</ele>
        <time>2021-01-24T09:17:14.000Z</time>
      </trkpt>
      <trkpt lat="54.666384" lon="9.414315">
        <ele>73.854578</ele>
        <time>2021-01-24T09:17:15.000Z</time>
      </trkpt>
      <trkpt lat="54.666319" lon="9.414405">
        <ele>74.231048</ele>
        <time>2021-01-24T09:17:21.000Z</time>
      </trkpt>
      <trkpt lat="54.666309" lon="9.414419">
        <ele>74.289219</ele>
        <time>2021-01-24T09:17:22.000Z</time>
      </trkpt>
      <trkpt lat="54.666262" lon="9.414480">
        <ele>74.554903</ele>
        <time>2021-01-24T09:17:26.000Z</time>
      </trkpt>
      <trkpt lat="54.666230" lon="9.414522">
        <ele>74.736532</ele>
        <time>2021-01-24T09:17:29.000Z</time>
      </trkpt>
      <trkpt lat="54.666218" lon="9.414518">
        <ele>74.791782</ele>
        <time>2021-01-24T09:17:30.000Z</time>
      </trkpt>
      <trkpt lat="54.666199" lon="9.414544">
        <ele>74.901327</ele>
        <time>2021-01-24T09:17:32.000Z</time>
      </trkpt>
      <trkpt lat="54.666173" lon="9.414576">
        <ele>75.045609</ele>
        <time>2021-01-24T09:17:35.000Z</time>
      </trkpt>
      <trkpt lat="54.666160" lon="9.414596">
        <ele>75.124278</ele>
        <time>2021-01-24T09:17:37.000Z</time>
      </trkpt>
      <trkpt lat="54.666152" lon="9.414607">
        <ele>75.170487</ele>
        <time>2021-01-24T09:17:38.000Z</time>
      </trkpt>
      <trkpt lat="54.666137" lon="9.414625">
        <ele>75.253033</ele>
        <time>2021-01-24T09:17:41.000Z</time>
      </trkpt>
      <trkpt lat="54.666131" lon="9.414631">
        <ele>75.284368</ele>
        <time>2021-01-24T09:17:42.000Z</time>
      </trkpt>
      <trkpt lat="54.666123" lon="9.414648">
        <ele>75.341673</ele>
        <time>2021-01-24T09:17:44.000Z</time>
      </trkpt>
      <trkpt lat="54.666111" lon="9.414671">
        <ele>75.422665</ele>
        <time>2021-01-24T09:17:46.000Z</time>
      </trkpt>
      <trkpt lat="54.666103" lon="9.414684">
        <ele>75.472298</ele>
        <time>2021-01-24T09:17:47.000Z</time>
      </trkpt>
      <trkpt lat="54.666086" lon="9.414729">
        <ele>75.612836</ele>
        <time>2021-01-24T09:17:49.000Z</time>
      </trkpt>
      <trkpt lat="54.666071" lon="9.414783">
        <ele>75.769468</ele>
        <time>2021-01-24T09:17:51.000Z</time>
      </trkpt>
      <trkpt lat="54.666059" lon="9.414814">
        <ele>75.815247</ele>
        <time>2021-01-24T09:17:53.000Z</time>
      </trkpt>
      <trkpt lat="54.666053" lon="9.414826">
        <ele>75.822794</ele>
        <time>2021-01-24T09:17:54.000Z</time>
      </trkpt>
      <trkpt lat="54.666047" lon="9.414840">
        <ele>75.831084</ele>
        <time>2021-01-24T09:17:55.000Z</time>
      </trkpt>
      <trkpt lat="54.666036" lon="9.414873">
        <ele>75.849205</ele>
        <time>2021-01-24T09:17:57.000Z</time>
      </trkpt>
      <trkpt lat="54.666031" lon="9.414906">
        <ele>75.865434</ele>
        <time>2021-01-24T09:17:59.000Z</time>
      </trkpt>
      <trkpt lat="54.666027" lon="9.414975">
        <ele>75.898426</ele>
        <time>2021-01-24T09:18:01.000Z</time>
      </trkpt>
      <trkpt lat="54.666029" lon="9.415020">
        <ele>75.919898</ele>
        <time>2021-01-24T09:18:02.000Z</time>
      </trkpt>
      <trkpt lat="54.666031" lon="9.415046">
        <ele>75.932376</ele>
        <time>2021-01-24T09:18:03.000Z</time>
      </trkpt>
      <trkpt lat="54.666032" lon="9.415080">
        <ele>75.948572</ele>
        <time>2021-01-24T09:18:04.000Z</time>
      </trkpt>
      <trkpt lat="54.666014" lon="9.415121">
        <ele>75.973062</ele>
        <time>2021-01-24T09:18:07.000Z</time>
      </trkpt>
      <trkpt lat="54.666007" lon="9.415126">
        <ele>75.979292</ele>
        <time>2021-01-24T09:18:08.000Z</time>
      </trkpt>
      <trkpt lat="54.665994" lon="9.415115">
        <ele>75.991198</ele>
        <time>2021-01-24T09:18:10.000Z</time>
      </trkpt>
      <trkpt lat="54.665980" lon="9.415098">
        <ele>76.005271</ele>
        <time>2021-01-24T09:18:12.000Z</time>
      </trkpt>
      <trkpt lat="54.665961" lon="9.415091">
        <ele>76.021251</ele>
        <time>2021-01-24T09:18:15.000Z</time>
      </trkpt>
      <trkpt lat="54.665954" lon="9.415085">
        <ele>76.027678</ele>
        <time>2021-01-24T09:18:16.000Z</time>
      </trkpt>
      <trkpt lat="54.665928" lon="9.415082">
        <ele>76.049114</ele>
        <time>2021-01-24T09:18:18.000Z</time>
      </trkpt>
      <trkpt lat="54.665906" lon="9.415054">
        <ele>76.071585</ele>
        <time>2021-01-24T09:18:20.000Z</time>
      </trkpt>
      <trkpt lat="54.665869" lon="9.415034">
        <ele>76.103474</ele>
        <time>2021-01-24T09:18:23.000Z</time>
      </trkpt>
      <trkpt lat="54.665849" lon="9.415027">
        <ele>76.120260</ele>
        <time>2021-01-24T09:18:24.000Z</time>
      </trkpt>
      <trkpt lat="54.665835" lon="9.415012">
        <ele>76.133809</ele>
        <time>2021-01-24T09:18:25.000Z</time>
      </trkpt>
      <trkpt lat="54.665809" lon="9.414998">
        <ele>76.156210</ele>
        <time>2021-01-24T09:18:27.000Z</time>
      </trkpt>
      <trkpt lat="54.665785" lon="9.414967">
        <ele>76.180853</ele>
        <time>2021-01-24T09:18:29.000Z</time>
      </trkpt>
      <trkpt lat="54.665762" lon="9.414934">
        <ele>76.205439</ele>
        <time>2021-01-24T09:18:31.000Z</time>
      </trkpt>
      <trkpt lat="54.665747" lon="9.414897">
        <ele>76.226935</ele>
        <time>2021-01-24T09:18:33.000Z</time>
      </trkpt>
      <trkpt lat="54.665737" lon="9.414885">
        <ele>76.236949</ele>
        <time>2021-01-24T09:18:34.000Z</time>
      </trkpt>
      <trkpt lat="54.665690" lon="9.414861">
        <ele>76.277262</ele>
        <time>2021-01-24T09:18:38.000Z</time>
      </trkpt>
      <trkpt lat="54.665653" lon="9.414812">
        <ele>76.315601</ele>
        <time>2021-01-24T09:18:42.000Z</time>
      </trkpt>
      <trkpt lat="54.665647" lon="9.414802">
        <ele>76.322456</ele>
        <time>2021-01-24T09:18:43.000Z</time>
      </trkpt>
      <trkpt lat="54.665616" lon="9.414774">
        <ele>76.351227</ele>
        <time>2021-01-24T09:18:45.000Z</time>
      </trkpt>
      <trkpt lat="54.665562" lon="9.414723">
        <ele>76.401842</ele>
        <time>2021-01-24T09:18:50.000Z</time>
      </trkpt>
      <trkpt lat="54.665555" lon="9.414697">
        <ele>76.415487</ele>
        <time>2021-01-24T09:18:53.000Z</time>
      </trkpt>
      <trkpt lat="54.665553" lon="9.414694">
        <ele>76.417665</ele>
        <time>2021-01-24T09:18:54.000Z</time>
      </trkpt>
      <trkpt lat="54.665529" lon="9.414672">
        <ele>76.440010</ele>
        <time>2021-01-24T09:18:58.000Z</time>
      </trkpt>
      <trkpt lat="54.665499" lon="9.414653">
        <ele>76.466292</ele>
        <time>2021-01-24T09:19:01.000Z</time>
      </trkpt>
      <trkpt lat="54.665480" lon="9.414636">
        <ele>76.483890</ele>
        <time>2021-01-24T09:19:03.000Z</time>
      </trkpt>
      <trkpt lat="54.665403" lon="9.414562">
        <ele>76.556358</ele>
        <time>2021-01-24T09:19:07.000Z</time>
      </trkpt>
      <trkpt lat="54.665389" lon="9.414552">
        <ele>76.568819</ele>
        <time>2021-01-24T09:19:08.000Z</time>
      </trkpt>
      <trkpt lat="54.665373" lon="9.414525">
        <ele>76.587210</ele>
        <time>2021-01-24T09:19:10.000Z</time>
      </trkpt>
      <trkpt lat="54.665349" lon="9.414493">
        <ele>76.612141</ele>
        <time>2021-01-24T09:19:13.000Z</time>
      </trkpt>
      <trkpt lat="54.665327" lon="9.414448">
        <ele>76.640174</ele>
        <time>2021-01-24T09:19:16.000Z</time>
      </trkpt>
      <trkpt lat="54.665326" lon="9.414440">
        <ele>76.644068</ele>
        <time>2021-01-24T09:19:17.000Z</time>
      </trkpt>
      <trkpt lat="54.665321" lon="9.414446">
        <ele>76.649075</ele>
        <time>2021-01-24T09:19:19.000Z</time>
      </trkpt>
      <trkpt lat="54.665295" lon="9.414424">
        <ele>76.672886</ele>
        <time>2021-01-24T09:19:21.000Z</time>
      </trkpt>
      <trkpt lat="54.665287" lon="9.414414">
        <ele>76.681007</ele>
        <time>2021-01-24T09:19:22.000Z</time>
      </trkpt>
      <trkpt lat="54.665281" lon="9.414400">
        <ele>76.689297</ele>
        <time>2021-01-24T09:19:23.000Z</time>
      </trkpt>
      <trkpt lat="54.665276" lon="9.414388">
        <ele>76.696333</ele>
        <time>2021-01-24T09:19:24.000Z</time>
      </trkpt>
      <trkpt lat="54.665232" lon="9.414341">
        <ele>76.738878</ele>
        <time>2021-01-24T09:19:28.000Z</time>
      </trkpt>
      <trkpt lat="54.665200" lon="9.414314">
        <ele>76.768169</ele>
        <time>2021-01-24T09:19:31.000Z</time>
      </trkpt>
      <trkpt lat="54.665193" lon="9.414299">
        <ele>76.777339</ele>
        <time>2021-01-24T09:19:32.000Z</time>
      </trkpt>
      <trkpt lat="54.665180" lon="9.414298">
        <ele>76.788043</ele>
        <time>2021-01-24T09:19:33.000Z</time>
      </trkpt>
      <trkpt lat="54.665160" lon="9.414280">
        <ele>76.806591</ele>
        <time>2021-01-24T09:19:35.000Z</time>
      </trkpt>
      <trkpt lat="54.665139" lon="9.414246">
        <ele>76.830257</ele>
        <time>2021-01-24T09:19:38.000Z</time>
      </trkpt>
      <trkpt lat="54.665116" lon="9.414209">
        <ele>76.856100</ele>
        <time>2021-01-24T09:19:40.000Z</time>
      </trkpt>
      <trkpt lat="54.665086" lon="9.414158">
        <ele>76.890708</ele>
        <time>2021-01-24T09:19:45.000Z</time>
      </trkpt>
      <trkpt lat="54.665082" lon="9.414158">
        <ele>76.893999</ele>
        <time>2021-01-24T09:19:46.000Z</time>
      </trkpt>
      <trkpt lat="54.665070" lon="9.414117">
        <ele>76.915860</ele>
        <time>2021-01-24T09:19:50.000Z</time>
      </trkpt>
      <trkpt lat="54.665056" lon="9.414105">
        <ele>76.928715</ele>
        <time>2021-01-24T09:19:51.000Z</time>
      </trkpt>
      <trkpt lat="54.665044" lon="9.414095">
        <ele>76.939673</ele>
        <time>2021-01-24T09:19:52.000Z</time>
      </trkpt>
      <trkpt lat="54.664991" lon="9.414052">
        <ele>76.987832</ele>
        <time>2021-01-24T09:19:58.000Z</time>
      </trkpt>
      <trkpt lat="54.664982" lon="9.414038">
        <ele>76.997791</ele>
        <time>2021-01-24T09:19:59.000Z</time>
      </trkpt>
      <trkpt lat="54.664890" lon="9.413936">
        <ele>77.087693</ele>
        <time>2021-01-24T09:20:06.000Z</time>
      </trkpt>
      <trkpt lat="54.664845" lon="9.413886">
        <ele>77.131695</ele>
        <time>2021-01-24T09:20:10.000Z</time>
      </trkpt>
      <trkpt lat="54.664824" lon="9.413850">
        <ele>77.156022</ele>
        <time>2021-01-24T09:20:13.000Z</time>
      </trkpt>
      <trkpt lat="54.664762" lon="9.413761">
        <ele>77.222310</ele>
        <time>2021-01-24T09:20:20.000Z</time>
      </trkpt>
      <trkpt lat="54.664743" lon="9.413740">
        <ele>77.240860</ele>
        <time>2021-01-24T09:20:23.000Z</time>
      </trkpt>
      <trkpt lat="54.664724" lon="9.413722">
        <ele>77.258682</ele>
        <time>2021-01-24T09:20:25.000Z</time>
      </trkpt>
      <trkpt lat="54.664704" lon="9.413697">
        <ele>77.278984</ele>
        <time>2021-01-24T09:20:27.000Z</time>
      </trkpt>
      <trkpt lat="54.664694" lon="9.413693">
        <ele>77.274988</ele>
        <time>2021-01-24T09:20:28.000Z</time>
      </trkpt>
      <trkpt lat="54.664687" lon="9.413687">
        <ele>77.261942</ele>
        <time>2021-01-24T09:20:29.000Z</time>
      </trkpt>
      <trkpt lat="54.664669" lon="9.413668">
        <ele>77.226728</ele>
        <time>2021-01-24T09:20:31.000Z</time>
      </trkpt>
      <trkpt lat="54.664618" lon="9.413610">
        <ele>77.124799</ele>
        <time>2021-01-24T09:20:37.000Z</time>
      </trkpt>
      <trkpt lat="54.664594" lon="9.413595">
        <ele>77.082187</ele>
        <time>2021-01-24T09:20:40.000Z</time>
      </trkpt>
      <trkpt lat="54.664560" lon="9.413573">
        <ele>77.021569</ele>
        <time>2021-01-24T09:20:45.000Z</time>
      </trkpt>
      <trkpt lat="54.664550" lon="9.413554">
        <ele>76.996760</ele>
        <time>2021-01-24T09:20:46.000Z</time>
      </trkpt>
      <trkpt lat="54.664539" lon="9.413538">
        <ele>76.972757</ele>
        <time>2021-01-24T09:20:47.000Z</time>
      </trkpt>
      <trkpt lat="54.664528" lon="9.413527">
        <ele>76.951539</ele>
        <time>2021-01-24T09:20:48.000Z</time>
      </trkpt>
      <trkpt lat="54.664483" lon="9.413473">
        <ele>76.860075</ele>
        <time>2021-01-24T09:20:54.000Z</time>
      </trkpt>
      <trkpt lat="54.664474" lon="9.413451">
        <ele>76.834051</ele>
        <time>2021-01-24T09:20:55.000Z</time>
      </trkpt>
      <trkpt lat="54.664444" lon="9.413387">
        <ele>76.754493</ele>
        <time>2021-01-24T09:20:59.000Z</time>
      </trkpt>
      <trkpt lat="54.664420" lon="9.413355">
        <ele>76.703886</ele>
        <time>2021-01-24T09:21:01.000Z</time>
      </trkpt>
      <trkpt lat="54.664398" lon="9.413336">
        <ele>76.662823</ele>
        <time>2021-01-24T09:21:03.000Z</time>
      </trkpt>
      <trkpt lat="54.664380" lon="9.413336">
        <ele>76.632767</ele>
        <time>2021-01-24T09:21:04.000Z</time>
      </trkpt>
      <trkpt lat="54.664324" lon="9.413241">
        <ele>76.501768</ele>
        <time>2021-01-24T09:21:08.000Z</time>
      </trkpt>
      <trkpt lat="54.664275" lon="9.413171">
        <ele>76.395634</ele>
        <time>2021-01-24T09:21:12.000Z</time>
      </trkpt>
      <trkpt lat="54.664267" lon="9.413154">
        <ele>76.374468</ele>
        <time>2021-01-24T09:21:13.000Z</time>
      </trkpt>
      <trkpt lat="54.664208" lon="9.413128">
        <ele>76.272802</ele>
        <time>2021-01-24T09:21:17.000Z</time>
      </trkpt>
      <trkpt lat="54.664184" lon="9.413103">
        <ele>76.226016</ele>
        <time>2021-01-24T09:21:19.000Z</time>
      </trkpt>
      <trkpt lat="54.664150" lon="9.413068">
        <ele>76.159943</ele>
        <time>2021-01-24T09:21:23.000Z</time>
      </trkpt>
      <trkpt lat="54.664105" lon="9.413046">
        <ele>76.081857</ele>
        <time>2021-01-24T09:21:27.000Z</time>
      </trkpt>
      <trkpt lat="54.664100" lon="9.413032">
        <ele>76.065967</ele>
        <time>2021-01-24T09:21:28.000Z</time>
      </trkpt>
      <trkpt lat="54.664081" lon="9.413007">
        <ele>76.026099</ele>
        <time>2021-01-24T09:21:30.000Z</time>
      </trkpt>
      <trkpt lat="54.664074" lon="9.412997">
        <ele>76.010937</ele>
        <time>2021-01-24T09:21:31.000Z</time>
      </trkpt>
      <trkpt lat="54.664046" lon="9.412941">
        <ele>75.939447</ele>
        <time>2021-01-24T09:21:36.000Z</time>
      </trkpt>
      <trkpt lat="54.663993" lon="9.412868">
        <ele>75.826300</ele>
        <time>2021-01-24T09:21:41.000Z</time>
      </trkpt>
      <trkpt lat="54.663975" lon="9.412846">
        <ele>75.789493</ele>
        <time>2021-01-24T09:21:43.000Z</time>
      </trkpt>
      <trkpt lat="54.663961" lon="9.412816">
        <ele>75.752265</ele>
        <time>2021-01-24T09:21:44.000Z</time>
      </trkpt>
      <trkpt lat="54.663901" lon="9.412714">
        <ele>75.611763</ele>
        <time>2021-01-24T09:21:49.000Z</time>
      </trkpt>
      <trkpt lat="54.663883" lon="9.412677">
        <ele>75.565070</ele>
        <time>2021-01-24T09:21:51.000Z</time>
      </trkpt>
      <trkpt lat="54.663849" lon="9.412630">
        <ele>75.492383</ele>
        <time>2021-01-24T09:21:54.000Z</time>
      </trkpt>
      <trkpt lat="54.663842" lon="9.412616">
        <ele>75.474511</ele>
        <time>2021-01-24T09:21:55.000Z</time>
      </trkpt>
      <trkpt lat="54.663802" lon="9.412549">
        <ele>75.381517</ele>
        <time>2021-01-24T09:21:58.000Z</time>
      </trkpt>
      <trkpt lat="54.663789" lon="9.412529">
        <ele>75.352461</ele>
        <time>2021-01-24T09:21:59.000Z</time>
      </trkpt>
      <trkpt lat="54.663743" lon="9.412498">
        <ele>75.270022</ele>
        <time>2021-01-24T09:22:02.000Z</time>
      </trkpt>
      <trkpt lat="54.663714" lon="9.412468">
        <ele>75.213593</ele>
        <time>2021-01-24T09:22:05.000Z</time>
      </trkpt>
      <trkpt lat="54.663661" lon="9.412395">
        <ele>75.100446</ele>
        <time>2021-01-24T09:22:09.000Z</time>
      </trkpt>
      <trkpt lat="54.663639" lon="9.412372">
        <ele>75.057517</ele>
        <time>2021-01-24T09:22:11.000Z</time>
      </trkpt>
      <trkpt lat="54.663587" lon="9.412339">
        <ele>74.965025</ele>
        <time>2021-01-24T09:22:15.000Z</time>
      </trkpt>
      <trkpt lat="54.663567" lon="9.412324">
        <ele>74.928623</ele>
        <time>2021-01-24T09:22:17.000Z</time>
      </trkpt>
      <trkpt lat="54.663547" lon="9.412302">
        <ele>74.889041</ele>
        <time>2021-01-24T09:22:19.000Z</time>
      </trkpt>
      <trkpt lat="54.663523" lon="9.412276">
        <ele>74.841750</ele>
        <time>2021-01-24T09:22:21.000Z</time>
      </trkpt>
      <trkpt lat="54.663473" lon="9.412218">
        <ele>74.741211</ele>
        <time>2021-01-24T09:22:25.000Z</time>
      </trkpt>
      <trkpt lat="54.663417" lon="9.412169">
        <ele>74.636411</ele>
        <time>2021-01-24T09:22:29.000Z</time>
      </trkpt>
      <trkpt lat="54.663370" lon="9.412131">
        <ele>74.549775</ele>
        <time>2021-01-24T09:22:33.000Z</time>
      </trkpt>
      <trkpt lat="54.663349" lon="9.412091">
        <ele>74.497603</ele>
        <time>2021-01-24T09:22:36.000Z</time>
      </trkpt>
      <trkpt lat="54.663338" lon="9.412069">
        <ele>74.469517</ele>
        <time>2021-01-24T09:22:37.000Z</time>
      </trkpt>
      <trkpt lat="54.663301" lon="9.412046">
        <ele>74.403864</ele>
        <time>2021-01-24T09:22:40.000Z</time>
      </trkpt>
      <trkpt lat="54.663256" lon="9.412029">
        <ele>74.326951</ele>
        <time>2021-01-24T09:22:43.000Z</time>
      </trkpt>
      <trkpt lat="54.663171" lon="9.412020">
        <ele>74.174112</ele>
        <time>2021-01-24T09:22:50.000Z</time>
      </trkpt>
      <trkpt lat="54.663138" lon="9.412065">
        <ele>74.096092</ele>
        <time>2021-01-24T09:22:53.000Z</time>
      </trkpt>
      <trkpt lat="54.663115" lon="9.412105">
        <ele>74.035532</ele>
        <time>2021-01-24T09:22:56.000Z</time>
      </trkpt>
      <trkpt lat="54.663106" lon="9.412121">
        <ele>74.011569</ele>
        <time>2021-01-24T09:22:57.000Z</time>
      </trkpt>
      <trkpt lat="54.663096" lon="9.412145">
        <ele>73.979810</ele>
        <time>2021-01-24T09:22:58.000Z</time>
      </trkpt>
      <trkpt lat="54.663057" lon="9.412218">
        <ele>73.873110</ele>
        <time>2021-01-24T09:23:03.000Z</time>
      </trkpt>
      <trkpt lat="54.663025" lon="9.412242">
        <ele>73.808358</ele>
        <time>2021-01-24T09:23:06.000Z</time>
      </trkpt>
      <trkpt lat="54.662981" lon="9.412292">
        <ele>73.710615</ele>
        <time>2021-01-24T09:23:10.000Z</time>
      </trkpt>
      <trkpt lat="54.662947" lon="9.412340">
        <ele>73.629131</ele>
        <time>2021-01-24T09:23:13.000Z</time>
      </trkpt>
      <trkpt lat="54.662941" lon="9.412348">
        <ele>73.615065</ele>
        <time>2021-01-24T09:23:14.000Z</time>
      </trkpt>
      <trkpt lat="54.662938" lon="9.412384">
        <ele>73.576013</ele>
        <time>2021-01-24T09:23:16.000Z</time>
      </trkpt>
      <trkpt lat="54.662933" lon="9.412400">
        <ele>73.556487</ele>
        <time>2021-01-24T09:23:17.000Z</time>
      </trkpt>
      <trkpt lat="54.662927" lon="9.412414">
        <ele>73.537778</ele>
        <time>2021-01-24T09:23:19.000Z</time>
      </trkpt>
      <trkpt lat="54.662928" lon="9.412413">
        <ele>73.535634</ele>
        <time>2021-01-24T09:23:21.000Z</time>
      </trkpt>
      <trkpt lat="54.662924" lon="9.412392">
        <ele>73.511895</ele>
        <time>2021-01-24T09:23:24.000Z</time>
      </trkpt>
      <trkpt lat="54.662908" lon="9.412370">
        <ele>73.473946</ele>
        <time>2021-01-24T09:23:26.000Z</time>
      </trkpt>
      <trkpt lat="54.662860" lon="9.412328">
        <ele>73.374079</ele>
        <time>2021-01-24T09:23:29.000Z</time>
      </trkpt>
      <trkpt lat="54.662841" lon="9.412336">
        <ele>73.337777</ele>
        <time>2021-01-24T09:23:31.000Z</time>
      </trkpt>
      <trkpt lat="54.662837" lon="9.412365">
        <ele>73.305767</ele>
        <time>2021-01-24T09:23:34.000Z</time>
      </trkpt>
      <trkpt lat="54.662796" lon="9.412387">
        <ele>73.226075</ele>
        <time>2021-01-24T09:23:40.000Z</time>
      </trkpt>
      <trkpt lat="54.662715" lon="9.412386">
        <ele>73.075706</ele>
        <time>2021-01-24T09:23:46.000Z</time>
      </trkpt>
      <trkpt lat="54.662707" lon="9.412379">
        <ele>73.059061</ele>
        <time>2021-01-24T09:23:47.000Z</time>
      </trkpt>
      <trkpt lat="54.662694" lon="9.412352">
        <ele>73.021341</ele>
        <time>2021-01-24T09:23:49.000Z</time>
      </trkpt>
      <trkpt lat="54.662639" lon="9.412278">
        <ele>72.891968</ele>
        <time>2021-01-24T09:23:55.000Z</time>
      </trkpt>
      <trkpt lat="54.662573" lon="9.412183">
        <ele>72.732546</ele>
        <time>2021-01-24T09:24:02.000Z</time>
      </trkpt>
      <trkpt lat="54.662567" lon="9.412172">
        <ele>72.716312</ele>
        <time>2021-01-24T09:24:03.000Z</time>
      </trkpt>
      <trkpt lat="54.662527" lon="9.412068">
        <ele>72.582212</ele>
        <time>2021-01-24T09:24:09.000Z</time>
      </trkpt>
      <trkpt lat="54.662505" lon="9.412021">
        <ele>72.517292</ele>
        <time>2021-01-24T09:24:12.000Z</time>
      </trkpt>
      <trkpt lat="54.662496" lon="9.412010">
        <ele>72.496832</ele>
        <time>2021-01-24T09:24:13.000Z</time>
      </trkpt>
      <trkpt lat="54.662485" lon="9.411998">
        <ele>72.472687</ele>
        <time>2021-01-24T09:24:15.000Z</time>
      </trkpt>
      <trkpt lat="54.662474" lon="9.411973">
        <ele>72.438960</ele>
        <time>2021-01-24T09:24:17.000Z</time>
      </trkpt>
      <trkpt lat="54.662465" lon="9.411948">
        <ele>72.407343</ele>
        <time>2021-01-24T09:24:19.000Z</time>
      </trkpt>
      <trkpt lat="54.662449" lon="9.411922">
        <ele>72.366581</ele>
        <time>2021-01-24T09:24:22.000Z</time>
      </trkpt>
      <trkpt lat="54.662443" lon="9.411919">
        <ele>72.354986</ele>
        <time>2021-01-24T09:24:23.000Z</time>
      </trkpt>
      <trkpt lat="54.662421" lon="9.411894">
        <ele>72.306115</ele>
        <time>2021-01-24T09:24:27.000Z</time>
      </trkpt>
      <trkpt lat="54.662412" lon="9.411877">
        <ele>72.281370</ele>
        <time>2021-01-24T09:24:29.000Z</time>
      </trkpt>
      <trkpt lat="54.662405" lon="9.411869">
        <ele>72.265793</ele>
        <time>2021-01-24T09:24:30.000Z</time>
      </trkpt>
      <trkpt lat="54.662376" lon="9.411838">
        <ele>72.202500</ele>
        <time>2021-01-24T09:24:35.000Z</time>
      </trkpt>
      <trkpt lat="54.662360" lon="9.411806">
        <ele>72.157082</ele>
        <time>2021-01-24T09:24:37.000Z</time>
      </trkpt>
      <trkpt lat="54.662354" lon="9.411793">
        <ele>72.139225</ele>
        <time>2021-01-24T09:24:38.000Z</time>
      </trkpt>
      <trkpt lat="54.662351" lon="9.411773">
        <ele>72.117040</ele>
        <time>2021-01-24T09:24:40.000Z</time>
      </trkpt>
      <trkpt lat="54.662331" lon="9.411746">
        <ele>72.069936</ele>
        <time>2021-01-24T09:24:44.000Z</time>
      </trkpt>
      <trkpt lat="54.662336" lon="9.411713">
        <ele>72.033308</ele>
        <time>2021-01-24T09:24:53.000Z</time>
      </trkpt>
      <trkpt lat="54.662365" lon="9.411711">
        <ele>71.979430</ele>
        <time>2021-01-24T09:24:55.000Z</time>
      </trkpt>
      <trkpt lat="54.662361" lon="9.411695">
        <ele>71.960715</ele>
        <time>2021-01-24T09:25:00.000Z</time>
      </trkpt>
      <trkpt lat="54.662355" lon="9.411688">
        <ele>71.947278</ele>
        <time>2021-01-24T09:25:01.000Z</time>
      </trkpt>
      <trkpt lat="54.662333" lon="9.411665">
        <ele>71.899552</ele>
        <time>2021-01-24T09:25:03.000Z</time>
      </trkpt>
      <trkpt lat="54.662307" lon="9.411640">
        <ele>71.844325</ele>
        <time>2021-01-24T09:25:06.000Z</time>
      </trkpt>
      <trkpt lat="54.662276" lon="9.411624">
        <ele>71.784268</ele>
        <time>2021-01-24T09:25:09.000Z</time>
      </trkpt>
      <trkpt lat="54.662270" lon="9.411620">
        <ele>71.772330</ele>
        <time>2021-01-24T09:25:10.000Z</time>
      </trkpt>
      <trkpt lat="54.662266" lon="9.411616">
        <ele>71.763752</ele>
        <time>2021-01-24T09:25:11.000Z</time>
      </trkpt>
      <trkpt lat="54.662253" lon="9.411611">
        <ele>71.739030</ele>
        <time>2021-01-24T09:25:12.000Z</time>
      </trkpt>
      <trkpt lat="54.662235" lon="9.411581">
        <ele>71.692617</ele>
        <time>2021-01-24T09:25:14.000Z</time>
      </trkpt>
      <trkpt lat="54.662215" lon="9.411563">
        <ele>71.650761</ele>
        <time>2021-01-24T09:25:16.000Z</time>
      </trkpt>
      <trkpt lat="54.662210" lon="9.411558">
        <ele>71.640038</ele>
        <time>2021-01-24T09:25:17.000Z</time>
      </trkpt>
      <trkpt lat="54.662208" lon="9.411553">
        <ele>71.633511</ele>
        <time>2021-01-24T09:25:18.000Z</time>
      </trkpt>
      <trkpt lat="54.662168" lon="9.411475">
        <ele>71.521584</ele>
        <time>2021-01-24T09:25:23.000Z</time>
      </trkpt>
      <trkpt lat="54.662129" lon="9.411390">
        <ele>71.405089</ele>
        <time>2021-01-24T09:25:29.000Z</time>
      </trkpt>
      <trkpt lat="54.662109" lon="9.411375">
        <ele>71.364619</ele>
        <time>2021-01-24T09:25:31.000Z</time>
      </trkpt>
      <trkpt lat="54.662099" lon="9.411355">
        <ele>71.336234</ele>
        <time>2021-01-24T09:25:33.000Z</time>
      </trkpt>
      <trkpt lat="54.662093" lon="9.411340">
        <ele>71.316652</ele>
        <time>2021-01-24T09:25:34.000Z</time>
      </trkpt>
      <trkpt lat="54.662068" lon="9.411298">
        <ele>71.251941</ele>
        <time>2021-01-24T09:25:37.000Z</time>
      </trkpt>
      <trkpt lat="54.662059" lon="9.411271">
        <ele>71.218481</ele>
        <time>2021-01-24T09:25:39.000Z</time>
      </trkpt>
      <trkpt lat="54.662042" lon="9.411231">
        <ele>71.165185</ele>
        <time>2021-01-24T09:25:42.000Z</time>
      </trkpt>
      <trkpt lat="54.662034" lon="9.411213">
        <ele>71.140811</ele>
        <time>2021-01-24T09:25:43.000Z</time>
      </trkpt>
      <trkpt lat="54.662022" lon="9.411181">
        <ele>71.099863</ele>
        <time>2021-01-24T09:25:45.000Z</time>
      </trkpt>
      <trkpt lat="54.662011" lon="9.411159">
        <ele>71.068638</ele>
        <time>2021-01-24T09:25:47.000Z</time>
      </trkpt>
      <trkpt lat="54.662004" lon="9.411153">
        <ele>71.054134</ele>
        <time>2021-01-24T09:25:48.000Z</time>
      </trkpt>
      <trkpt lat="54.661991" lon="9.411136">
        <ele>71.023876</ele>
        <time>2021-01-24T09:25:50.000Z</time>
      </trkpt>
      <trkpt lat="54.661939" lon="9.411062">
        <ele>70.937559</ele>
        <time>2021-01-24T09:25:55.000Z</time>
      </trkpt>
      <trkpt lat="54.661895" lon="9.410993">
        <ele>70.928435</ele>
        <time>2021-01-24T09:26:00.000Z</time>
      </trkpt>
      <trkpt lat="54.661885" lon="9.410982">
        <ele>70.926615</ele>
        <time>2021-01-24T09:26:01.000Z</time>
      </trkpt>
      <trkpt lat="54.661863" lon="9.410961">
        <ele>70.922755</ele>
        <time>2021-01-24T09:26:03.000Z</time>
      </trkpt>
      <trkpt lat="54.661854" lon="9.410955">
        <ele>70.921273</ele>
        <time>2021-01-24T09:26:04.000Z</time>
      </trkpt>
      <trkpt lat="54.661844" lon="9.410951">
        <ele>70.919696</ele>
        <time>2021-01-24T09:26:05.000Z</time>
      </trkpt>
      <trkpt lat="54.661744" lon="9.410953">
        <ele>70.904336</ele>
        <time>2021-01-24T09:26:11.000Z</time>
      </trkpt>
      <trkpt lat="54.661731" lon="9.410931">
        <ele>70.901541</ele>
        <time>2021-01-24T09:26:14.000Z</time>
      </trkpt>
      <trkpt lat="54.661726" lon="9.410920">
        <ele>70.900298</ele>
        <time>2021-01-24T09:26:16.000Z</time>
      </trkpt>
      <trkpt lat="54.661721" lon="9.410904">
        <ele>70.898683</ele>
        <time>2021-01-24T09:26:18.000Z</time>
      </trkpt>
      <trkpt lat="54.661717" lon="9.410904">
        <ele>70.898068</ele>
        <time>2021-01-24T09:26:19.000Z</time>
      </trkpt>
      <trkpt lat="54.661709" lon="9.410905">
        <ele>70.896836</ele>
        <time>2021-01-24T09:26:20.000Z</time>
      </trkpt>
      <trkpt lat="54.661688" lon="9.410901">
        <ele>70.893591</ele>
        <time>2021-01-24T09:26:22.000Z</time>
      </trkpt>
      <trkpt lat="54.661664" lon="9.410894">
        <ele>70.889853</ele>
        <time>2021-01-24T09:26:25.000Z</time>
      </trkpt>
      <trkpt lat="54.661656" lon="9.410897">
        <ele>70.888595</ele>
        <time>2021-01-24T09:26:26.000Z</time>
      </trkpt>
      <trkpt lat="54.661639" lon="9.410904">
        <ele>70.885911</ele>
        <time>2021-01-24T09:26:30.000Z</time>
      </trkpt>
      <trkpt lat="54.661632" lon="9.410902">
        <ele>70.884821</ele>
        <time>2021-01-24T09:26:31.000Z</time>
      </trkpt>
      <trkpt lat="54.661623" lon="9.410903">
        <ele>70.883436</ele>
        <time>2021-01-24T09:26:33.000Z</time>
      </trkpt>
      <trkpt lat="54.661544" lon="9.410961">
        <ele>70.870253</ele>
        <time>2021-01-24T09:26:38.000Z</time>
      </trkpt>
      <trkpt lat="54.661437" lon="9.410990">
        <ele>70.853617</ele>
        <time>2021-01-24T09:26:46.000Z</time>
      </trkpt>
      <trkpt lat="54.661422" lon="9.411003">
        <ele>70.851040</ele>
        <time>2021-01-24T09:26:48.000Z</time>
      </trkpt>
      <trkpt lat="54.661376" lon="9.411030">
        <ele>70.843578</ele>
        <time>2021-01-24T09:26:53.000Z</time>
      </trkpt>
      <trkpt lat="54.661366" lon="9.411036">
        <ele>70.841953</ele>
        <time>2021-01-24T09:26:55.000Z</time>
      </trkpt>
      <trkpt lat="54.661328" lon="9.411040">
        <ele>70.836105</ele>
        <time>2021-01-24T09:26:59.000Z</time>
      </trkpt>
      <trkpt lat="54.661264" lon="9.411065">
        <ele>70.826027</ele>
        <time>2021-01-24T09:27:05.000Z</time>
      </trkpt>
      <trkpt lat="54.661253" lon="9.411075">
        <ele>70.824118</ele>
        <time>2021-01-24T09:27:06.000Z</time>
      </trkpt>
      <trkpt lat="54.661233" lon="9.411088">
        <ele>70.820836</ele>
        <time>2021-01-24T09:27:08.000Z</time>
      </trkpt>
      <trkpt lat="54.661209" lon="9.411097">
        <ele>70.817064</ele>
        <time>2021-01-24T09:27:11.000Z</time>
      </trkpt>
      <trkpt lat="54.661199" lon="9.411098">
        <ele>70.815525</ele>
        <time>2021-01-24T09:27:13.000Z</time>
      </trkpt>
      <trkpt lat="54.661172" lon="9.411103">
        <ele>70.811354</ele>
        <time>2021-01-24T09:27:15.000Z</time>
      </trkpt>
      <trkpt lat="54.661166" lon="9.411099">
        <ele>70.810367</ele>
        <time>2021-01-24T09:27:16.000Z</time>
      </trkpt>
      <trkpt lat="54.661135" lon="9.411097">
        <ele>70.805602</ele>
        <time>2021-01-24T09:27:20.000Z</time>
      </trkpt>
      <trkpt lat="54.661128" lon="9.411090">
        <ele>70.804360</ele>
        <time>2021-01-24T09:27:21.000Z</time>
      </trkpt>
      <trkpt lat="54.661108" lon="9.411081">
        <ele>70.801185</ele>
        <time>2021-01-24T09:27:23.000Z</time>
      </trkpt>
      <trkpt lat="54.661052" lon="9.411136">
        <ele>70.791293</ele>
        <time>2021-01-24T09:27:25.000Z</time>
      </trkpt>
      <trkpt lat="54.661047" lon="9.411134">
        <ele>70.790504</ele>
        <time>2021-01-24T09:27:26.000Z</time>
      </trkpt>
      <trkpt lat="54.661041" lon="9.411132">
        <ele>70.789566</ele>
        <time>2021-01-24T09:27:27.000Z</time>
      </trkpt>
      <trkpt lat="54.661014" lon="9.411130">
        <ele>70.785415</ele>
        <time>2021-01-24T09:27:29.000Z</time>
      </trkpt>
      <trkpt lat="54.660984" lon="9.411145">
        <ele>70.780618</ele>
        <time>2021-01-24T09:27:32.000Z</time>
      </trkpt>
      <trkpt lat="54.660955" lon="9.411169">
        <ele>70.775680</ele>
        <time>2021-01-24T09:27:35.000Z</time>
      </trkpt>
      <trkpt lat="54.660924" lon="9.411185">
        <ele>70.770710</ele>
        <time>2021-01-24T09:27:38.000Z</time>
      </trkpt>
      <trkpt lat="54.660875" lon="9.411196">
        <ele>70.763121</ele>
        <time>2021-01-24T09:27:42.000Z</time>
      </trkpt>
      <trkpt lat="54.660860" lon="9.411187">
        <ele>70.760682</ele>
        <time>2021-01-24T09:27:43.000Z</time>
      </trkpt>
      <trkpt lat="54.660809" lon="9.411185">
        <ele>70.752847</ele>
        <time>2021-01-24T09:27:47.000Z</time>
      </trkpt>
      <trkpt lat="54.660763" lon="9.411197">
        <ele>70.745701</ele>
        <time>2021-01-24T09:27:51.000Z</time>
      </trkpt>
      <trkpt lat="54.660672" lon="9.411254">
        <ele>70.730834</ele>
        <time>2021-01-24T09:27:59.000Z</time>
      </trkpt>
      <trkpt lat="54.660660" lon="9.411266">
        <ele>70.728705</ele>
        <time>2021-01-24T09:28:01.000Z</time>
      </trkpt>
      <trkpt lat="54.660646" lon="9.411251">
        <ele>70.726175</ele>
        <time>2021-01-24T09:28:02.000Z</time>
      </trkpt>
      <trkpt lat="54.660622" lon="9.411230">
        <ele>70.722044</ele>
        <time>2021-01-24T09:28:04.000Z</time>
      </trkpt>
      <trkpt lat="54.660580" lon="9.411236">
        <ele>70.715570</ele>
        <time>2021-01-24T09:28:07.000Z</time>
      </trkpt>
      <trkpt lat="54.660471" lon="9.411242">
        <ele>70.698820</ele>
        <time>2021-01-24T09:28:15.000Z</time>
      </trkpt>
      <trkpt lat="54.660459" lon="9.411240">
        <ele>70.696968</ele>
        <time>2021-01-24T09:28:16.000Z</time>
      </trkpt>
      <trkpt lat="54.660437" lon="9.411229">
        <ele>70.693450</ele>
        <time>2021-01-24T09:28:18.000Z</time>
      </trkpt>
      <trkpt lat="54.660413" lon="9.411222">
        <ele>70.689712</ele>
        <time>2021-01-24T09:28:20.000Z</time>
      </trkpt>
      <trkpt lat="54.660373" lon="9.411224">
        <ele>70.683565</ele>
        <time>2021-01-24T09:28:23.000Z</time>
      </trkpt>
      <trkpt lat="54.660347" lon="9.411224">
        <ele>70.679572</ele>
        <time>2021-01-24T09:28:25.000Z</time>
      </trkpt>
      <trkpt lat="54.660299" lon="9.411246">
        <ele>70.671944</ele>
        <time>2021-01-24T09:28:28.000Z</time>
      </trkpt>
      <trkpt lat="54.660264" lon="9.411290">
        <ele>70.665297</ele>
        <time>2021-01-24T09:28:30.000Z</time>
      </trkpt>
      <trkpt lat="54.660257" lon="9.411289">
        <ele>70.661402</ele>
        <time>2021-01-24T09:28:31.000Z</time>
      </trkpt>
      <trkpt lat="54.660252" lon="9.411289">
        <ele>70.656791</ele>
        <time>2021-01-24T09:28:32.000Z</time>
      </trkpt>
      <trkpt lat="54.660208" lon="9.411274">
        <ele>70.615432</ele>
        <time>2021-01-24T09:28:37.000Z</time>
      </trkpt>
      <trkpt lat="54.660192" lon="9.411274">
        <ele>70.600677</ele>
        <time>2021-01-24T09:28:38.000Z</time>
      </trkpt>
      <trkpt lat="54.660157" lon="9.411280">
        <ele>70.568241</ele>
        <time>2021-01-24T09:28:41.000Z</time>
      </trkpt>
      <trkpt lat="54.660101" lon="9.411270">
        <ele>70.516322</ele>
        <time>2021-01-24T09:28:46.000Z</time>
      </trkpt>
      <trkpt lat="54.660069" lon="9.411285">
        <ele>70.485746</ele>
        <time>2021-01-24T09:28:49.000Z</time>
      </trkpt>
      <trkpt lat="54.660022" lon="9.411331">
        <ele>70.435939</ele>
        <time>2021-01-24T09:28:53.000Z</time>
      </trkpt>
      <trkpt lat="54.660012" lon="9.411342">
        <ele>70.425008</ele>
        <time>2021-01-24T09:28:54.000Z</time>
      </trkpt>
      <trkpt lat="54.660000" lon="9.411338">
        <ele>70.413738</ele>
        <time>2021-01-24T09:28:57.000Z</time>
      </trkpt>
      <trkpt lat="54.659993" lon="9.411332">
        <ele>70.406532</ele>
        <time>2021-01-24T09:28:58.000Z</time>
      </trkpt>
      <trkpt lat="54.659948" lon="9.411368">
        <ele>70.360805</ele>
        <time>2021-01-24T09:29:03.000Z</time>
      </trkpt>
      <trkpt lat="54.659949" lon="9.411373">
        <ele>70.357983</ele>
        <time>2021-01-24T09:29:04.000Z</time>
      </trkpt>
      <trkpt lat="54.659926" lon="9.411359">
        <ele>70.335496</ele>
        <time>2021-01-24T09:29:11.000Z</time>
      </trkpt>
      <trkpt lat="54.659910" lon="9.411356">
        <ele>70.320654</ele>
        <time>2021-01-24T09:29:19.000Z</time>
      </trkpt>
      <trkpt lat="54.659859" lon="9.411364">
        <ele>70.273428</ele>
        <time>2021-01-24T09:29:25.000Z</time>
      </trkpt>
      <trkpt lat="54.659851" lon="9.411360">
        <ele>70.265748</ele>
        <time>2021-01-24T09:29:26.000Z</time>
      </trkpt>
      <trkpt lat="54.659848" lon="9.411360">
        <ele>70.262981</ele>
        <time>2021-01-24T09:29:27.000Z</time>
      </trkpt>
      <trkpt lat="54.659803" lon="9.411388">
        <ele>70.218876</ele>
        <time>2021-01-24T09:29:31.000Z</time>
      </trkpt>
      <trkpt lat="54.659777" lon="9.411393">
        <ele>70.194751</ele>
        <time>2021-01-24T09:29:33.000Z</time>
      </trkpt>
      <trkpt lat="54.659719" lon="9.411386">
        <ele>70.141132</ele>
        <time>2021-01-24T09:29:37.000Z</time>
      </trkpt>
      <trkpt lat="54.659684" lon="9.411384">
        <ele>70.108837</ele>
        <time>2021-01-24T09:29:39.000Z</time>
      </trkpt>
      <trkpt lat="54.659644" lon="9.411366">
        <ele>70.070720</ele>
        <time>2021-01-24T09:29:44.000Z</time>
      </trkpt>
      <trkpt lat="54.659642" lon="9.411366">
        <ele>70.068875</ele>
        <time>2021-01-24T09:29:45.000Z</time>
      </trkpt>
      <trkpt lat="54.659589" lon="9.411381">
        <ele>70.019348</ele>
        <time>2021-01-24T09:29:50.000Z</time>
      </trkpt>
      <trkpt lat="54.659554" lon="9.411393">
        <ele>69.986442</ele>
        <time>2021-01-24T09:29:53.000Z</time>
      </trkpt>
      <trkpt lat="54.659545" lon="9.411398">
        <ele>69.977724</ele>
        <time>2021-01-24T09:29:54.000Z</time>
      </trkpt>
      <trkpt lat="54.659537" lon="9.411406">
        <ele>69.969201</ele>
        <time>2021-01-24T09:29:55.000Z</time>
      </trkpt>
      <trkpt lat="54.659527" lon="9.411410">
        <ele>69.959735</ele>
        <time>2021-01-24T09:29:56.000Z</time>
      </trkpt>
      <trkpt lat="54.659516" lon="9.411409">
        <ele>69.949577</ele>
        <time>2021-01-24T09:29:57.000Z</time>
      </trkpt>
      <trkpt lat="54.659505" lon="9.411410">
        <ele>69.939418</ele>
        <time>2021-01-24T09:29:58.000Z</time>
      </trkpt>
      <trkpt lat="54.659484" lon="9.411414">
        <ele>69.919935</ele>
        <time>2021-01-24T09:30:00.000Z</time>
      </trkpt>
      <trkpt lat="54.659447" lon="9.411413">
        <ele>69.885809</ele>
        <time>2021-01-24T09:30:03.000Z</time>
      </trkpt>
      <trkpt lat="54.659401" lon="9.411421">
        <ele>69.843173</ele>
        <time>2021-01-24T09:30:07.000Z</time>
      </trkpt>
      <trkpt lat="54.659377" lon="9.411433">
        <ele>69.820133</ele>
        <time>2021-01-24T09:30:09.000Z</time>
      </trkpt>
      <trkpt lat="54.659358" lon="9.411448">
        <ele>69.800870</ele>
        <time>2021-01-24T09:30:11.000Z</time>
      </trkpt>
      <trkpt lat="54.659354" lon="9.411448">
        <ele>69.797182</ele>
        <time>2021-01-24T09:30:12.000Z</time>
      </trkpt>
      <trkpt lat="54.659340" lon="9.411451">
        <ele>69.784172</ele>
        <time>2021-01-24T09:30:14.000Z</time>
      </trkpt>
      <trkpt lat="54.659315" lon="9.411454">
        <ele>69.761061</ele>
        <time>2021-01-24T09:30:16.000Z</time>
      </trkpt>
      <trkpt lat="54.659301" lon="9.411458">
        <ele>69.747975</ele>
        <time>2021-01-24T09:30:17.000Z</time>
      </trkpt>
      <trkpt lat="54.659263" lon="9.411457">
        <ele>69.712927</ele>
        <time>2021-01-24T09:30:20.000Z</time>
      </trkpt>
      <trkpt lat="54.659244" lon="9.411460">
        <ele>69.695332</ele>
        <time>2021-01-24T09:30:24.000Z</time>
      </trkpt>
      <trkpt lat="54.659242" lon="9.411455">
        <ele>69.692089</ele>
        <time>2021-01-24T09:30:25.000Z</time>
      </trkpt>
      <trkpt lat="54.659215" lon="9.411446">
        <ele>69.666731</ele>
        <time>2021-01-24T09:30:28.000Z</time>
      </trkpt>
      <trkpt lat="54.659176" lon="9.411462">
        <ele>69.629766</ele>
        <time>2021-01-24T09:30:31.000Z</time>
      </trkpt>
      <trkpt lat="54.659144" lon="9.411470">
        <ele>69.599948</ele>
        <time>2021-01-24T09:30:34.000Z</time>
      </trkpt>
      <trkpt lat="54.659119" lon="9.411478">
        <ele>69.576501</ele>
        <time>2021-01-24T09:30:36.000Z</time>
      </trkpt>
      <trkpt lat="54.659077" lon="9.411481">
        <ele>69.537736</ele>
        <time>2021-01-24T09:30:40.000Z</time>
      </trkpt>
      <trkpt lat="54.658983" lon="9.411481">
        <ele>69.451048</ele>
        <time>2021-01-24T09:30:46.000Z</time>
      </trkpt>
      <trkpt lat="54.658931" lon="9.411474">
        <ele>69.402948</ele>
        <time>2021-01-24T09:30:50.000Z</time>
      </trkpt>
      <trkpt lat="54.658883" lon="9.411433">
        <ele>69.353573</ele>
        <time>2021-01-24T09:30:54.000Z</time>
      </trkpt>
      <trkpt lat="54.658810" lon="9.411369">
        <ele>69.278090</ele>
        <time>2021-01-24T09:31:01.000Z</time>
      </trkpt>
      <trkpt lat="54.658800" lon="9.411364">
        <ele>69.268490</ele>
        <time>2021-01-24T09:31:02.000Z</time>
      </trkpt>
      <trkpt lat="54.658791" lon="9.411362">
        <ele>69.260122</ele>
        <time>2021-01-24T09:31:03.000Z</time>
      </trkpt>
      <trkpt lat="54.658751" lon="9.411330">
        <ele>69.219475</ele>
        <time>2021-01-24T09:31:07.000Z</time>
      </trkpt>
      <trkpt lat="54.658727" lon="9.411313">
        <ele>69.195556</ele>
        <time>2021-01-24T09:31:09.000Z</time>
      </trkpt>
      <trkpt lat="54.658704" lon="9.411299">
        <ele>69.173069</ele>
        <time>2021-01-24T09:31:11.000Z</time>
      </trkpt>
      <trkpt lat="54.658667" lon="9.411290">
        <ele>69.138611</ele>
        <time>2021-01-24T09:31:14.000Z</time>
      </trkpt>
      <trkpt lat="54.658620" lon="9.411254">
        <ele>69.091203</ele>
        <time>2021-01-24T09:31:19.000Z</time>
      </trkpt>
      <trkpt lat="54.658617" lon="9.411251">
        <ele>69.088007</ele>
        <time>2021-01-24T09:31:20.000Z</time>
      </trkpt>
      <trkpt lat="54.658610" lon="9.411244">
        <ele>69.080550</ele>
        <time>2021-01-24T09:31:21.000Z</time>
      </trkpt>
      <trkpt lat="54.658555" lon="9.411208">
        <ele>69.026314</ele>
        <time>2021-01-24T09:31:26.000Z</time>
      </trkpt>
      <trkpt lat="54.658464" lon="9.411132">
        <ele>68.942382</ele>
        <time>2021-01-24T09:31:34.000Z</time>
      </trkpt>
      <trkpt lat="54.658391" lon="9.411110">
        <ele>68.882729</ele>
        <time>2021-01-24T09:31:41.000Z</time>
      </trkpt>
      <trkpt lat="54.658349" lon="9.411125">
        <ele>68.848204</ele>
        <time>2021-01-24T09:31:45.000Z</time>
      </trkpt>
      <trkpt lat="54.658279" lon="9.411136">
        <ele>68.791621</ele>
        <time>2021-01-24T09:31:51.000Z</time>
      </trkpt>
      <trkpt lat="54.658273" lon="9.411138">
        <ele>68.786702</ele>
        <time>2021-01-24T09:31:52.000Z</time>
      </trkpt>
      <trkpt lat="54.658261" lon="9.411146">
        <ele>68.776348</ele>
        <time>2021-01-24T09:31:54.000Z</time>
      </trkpt>
      <trkpt lat="54.658231" lon="9.411153">
        <ele>68.751978</ele>
        <time>2021-01-24T09:31:57.000Z</time>
      </trkpt>
      <trkpt lat="54.658155" lon="9.411185">
        <ele>68.689008</ele>
        <time>2021-01-24T09:32:04.000Z</time>
      </trkpt>
      <trkpt lat="54.658143" lon="9.411181">
        <ele>68.679170</ele>
        <time>2021-01-24T09:32:05.000Z</time>
      </trkpt>
      <trkpt lat="54.658094" lon="9.411205">
        <ele>68.638171</ele>
        <time>2021-01-24T09:32:09.000Z</time>
      </trkpt>
      <trkpt lat="54.658086" lon="9.411212">
        <ele>68.630953</ele>
        <time>2021-01-24T09:32:11.000Z</time>
      </trkpt>
      <trkpt lat="54.658085" lon="9.411217">
        <ele>68.628490</ele>
        <time>2021-01-24T09:32:12.000Z</time>
      </trkpt>
      <trkpt lat="54.658060" lon="9.411227">
        <ele>68.607832</ele>
        <time>2021-01-24T09:32:15.000Z</time>
      </trkpt>
      <trkpt lat="54.658032" lon="9.411232">
        <ele>68.585172</ele>
        <time>2021-01-24T09:32:17.000Z</time>
      </trkpt>
      <trkpt lat="54.657939" lon="9.411236">
        <ele>68.510282</ele>
        <time>2021-01-24T09:32:25.000Z</time>
      </trkpt>
      <trkpt lat="54.657890" lon="9.411326">
        <ele>68.452728</ele>
        <time>2021-01-24T09:32:28.000Z</time>
      </trkpt>
      <trkpt lat="54.657852" lon="9.411335">
        <ele>68.421851</ele>
        <time>2021-01-24T09:32:31.000Z</time>
      </trkpt>
      <trkpt lat="54.657719" lon="9.411367">
        <ele>68.313751</ele>
        <time>2021-01-24T09:32:42.000Z</time>
      </trkpt>
      <trkpt lat="54.657669" lon="9.411353">
        <ele>68.272976</ele>
        <time>2021-01-24T09:32:47.000Z</time>
      </trkpt>
      <trkpt lat="54.657651" lon="9.411371">
        <ele>68.256235</ele>
        <time>2021-01-24T09:32:49.000Z</time>
      </trkpt>
      <trkpt lat="54.657635" lon="9.411378">
        <ele>68.242949</ele>
        <time>2021-01-24T09:32:51.000Z</time>
      </trkpt>
      <trkpt lat="54.657562" lon="9.411417">
        <ele>68.181440</ele>
        <time>2021-01-24T09:32:57.000Z</time>
      </trkpt>
      <trkpt lat="54.657491" lon="9.411479">
        <ele>68.117405</ele>
        <time>2021-01-24T09:33:03.000Z</time>
      </trkpt>
      <trkpt lat="54.657480" lon="9.411489">
        <ele>68.107400</ele>
        <time>2021-01-24T09:33:04.000Z</time>
      </trkpt>
      <trkpt lat="54.657374" lon="9.411522">
        <ele>68.020696</ele>
        <time>2021-01-24T09:33:12.000Z</time>
      </trkpt>
      <trkpt lat="54.657315" lon="9.411540">
        <ele>67.972465</ele>
        <time>2021-01-24T09:33:18.000Z</time>
      </trkpt>
      <trkpt lat="54.657310" lon="9.411555">
        <ele>67.964403</ele>
        <time>2021-01-24T09:33:19.000Z</time>
      </trkpt>
      <trkpt lat="54.657301" lon="9.411573">
        <ele>67.953324</ele>
        <time>2021-01-24T09:33:26.000Z</time>
      </trkpt>
      <trkpt lat="54.657215" lon="9.411580">
        <ele>67.884015</ele>
        <time>2021-01-24T09:33:33.000Z</time>
      </trkpt>
      <trkpt lat="54.657120" lon="9.411636">
        <ele>67.803214</ele>
        <time>2021-01-24T09:33:41.000Z</time>
      </trkpt>
      <trkpt lat="54.657094" lon="9.411650">
        <ele>67.781292</ele>
        <time>2021-01-24T09:33:43.000Z</time>
      </trkpt>
      <trkpt lat="54.657050" lon="9.411676">
        <ele>67.743859</ele>
        <time>2021-01-24T09:33:47.000Z</time>
      </trkpt>
      <trkpt lat="54.657042" lon="9.411679">
        <ele>67.737269</ele>
        <time>2021-01-24T09:33:48.000Z</time>
      </trkpt>
      <trkpt lat="54.657032" lon="9.411675">
        <ele>67.729006</ele>
        <time>2021-01-24T09:33:49.000Z</time>
      </trkpt>
      <trkpt lat="54.656961" lon="9.411686">
        <ele>67.671621</ele>
        <time>2021-01-24T09:33:54.000Z</time>
      </trkpt>
      <trkpt lat="54.656842" lon="9.411709">
        <ele>67.575226</ele>
        <time>2021-01-24T09:34:02.000Z</time>
      </trkpt>
      <trkpt lat="54.656744" lon="9.411752">
        <ele>67.505426</ele>
        <time>2021-01-24T09:34:09.000Z</time>
      </trkpt>
      <trkpt lat="54.656733" lon="9.411758">
        <ele>67.497815</ele>
        <time>2021-01-24T09:34:10.000Z</time>
      </trkpt>
      <trkpt lat="54.656651" lon="9.411796">
        <ele>67.441800</ele>
        <time>2021-01-24T09:34:17.000Z</time>
      </trkpt>
      <trkpt lat="54.656558" lon="9.411837">
        <ele>67.378472</ele>
        <time>2021-01-24T09:34:25.000Z</time>
      </trkpt>
      <trkpt lat="54.656485" lon="9.411868">
        <ele>67.328873</ele>
        <time>2021-01-24T09:34:32.000Z</time>
      </trkpt>
      <trkpt lat="54.656467" lon="9.411868">
        <ele>67.316997</ele>
        <time>2021-01-24T09:34:34.000Z</time>
      </trkpt>
      <trkpt lat="54.656425" lon="9.411886">
        <ele>67.288445</ele>
        <time>2021-01-24T09:34:38.000Z</time>
      </trkpt>
      <trkpt lat="54.656383" lon="9.411891">
        <ele>67.260667</ele>
        <time>2021-01-24T09:34:41.000Z</time>
      </trkpt>
      <trkpt lat="54.656356" lon="9.411889">
        <ele>67.242836</ele>
        <time>2021-01-24T09:34:43.000Z</time>
      </trkpt>
      <trkpt lat="54.656303" lon="9.411909">
        <ele>67.207042</ele>
        <time>2021-01-24T09:34:47.000Z</time>
      </trkpt>
      <trkpt lat="54.656295" lon="9.411915">
        <ele>67.201288</ele>
        <time>2021-01-24T09:34:48.000Z</time>
      </trkpt>
      <trkpt lat="54.656283" lon="9.411919">
        <ele>67.193224</ele>
        <time>2021-01-24T09:34:49.000Z</time>
      </trkpt>
      <trkpt lat="54.656212" lon="9.411946">
        <ele>67.145257</ele>
        <time>2021-01-24T09:34:54.000Z</time>
      </trkpt>
      <trkpt lat="54.656117" lon="9.412067">
        <ele>67.067397</ele>
        <time>2021-01-24T09:35:03.000Z</time>
      </trkpt>
      <trkpt lat="54.656082" lon="9.412113">
        <ele>67.038386</ele>
        <time>2021-01-24T09:35:07.000Z</time>
      </trkpt>
      <trkpt lat="54.656046" lon="9.412131">
        <ele>67.013659</ele>
        <time>2021-01-24T09:35:10.000Z</time>
      </trkpt>
      <trkpt lat="54.655956" lon="9.412144">
        <ele>66.954068</ele>
        <time>2021-01-24T09:35:17.000Z</time>
      </trkpt>
      <trkpt lat="54.655861" lon="9.412192">
        <ele>66.888763</ele>
        <time>2021-01-24T09:35:26.000Z</time>
      </trkpt>
      <trkpt lat="54.655825" lon="9.412174">
        <ele>66.864036</ele>
        <time>2021-01-24T09:35:30.000Z</time>
      </trkpt>
      <trkpt lat="54.655807" lon="9.412173">
        <ele>66.852153</ele>
        <time>2021-01-24T09:35:32.000Z</time>
      </trkpt>
      <trkpt lat="54.655804" lon="9.412176">
        <ele>66.849866</ele>
        <time>2021-01-24T09:35:33.000Z</time>
      </trkpt>
      <trkpt lat="54.655812" lon="9.412200">
        <ele>66.839293</ele>
        <time>2021-01-24T09:35:36.000Z</time>
      </trkpt>
      <trkpt lat="54.655817" lon="9.412202">
        <ele>66.835907</ele>
        <time>2021-01-24T09:35:39.000Z</time>
      </trkpt>
      <trkpt lat="54.655784" lon="9.412180">
        <ele>66.812570</ele>
        <time>2021-01-24T09:35:45.000Z</time>
      </trkpt>
      <trkpt lat="54.655770" lon="9.412170">
        <ele>66.802575</ele>
        <time>2021-01-24T09:35:49.000Z</time>
      </trkpt>
      <trkpt lat="54.655766" lon="9.412157">
        <ele>66.796955</ele>
        <time>2021-01-24T09:35:50.000Z</time>
      </trkpt>
      <trkpt lat="54.655752" lon="9.412150">
        <ele>66.787338</ele>
        <time>2021-01-24T09:35:52.000Z</time>
      </trkpt>
      <trkpt lat="54.655745" lon="9.412137">
        <ele>66.780559</ele>
        <time>2021-01-24T09:35:53.000Z</time>
      </trkpt>
      <trkpt lat="54.655737" lon="9.412106">
        <ele>66.767603</ele>
        <time>2021-01-24T09:35:55.000Z</time>
      </trkpt>
      <trkpt lat="54.655735" lon="9.412076">
        <ele>66.756076</ele>
        <time>2021-01-24T09:35:57.000Z</time>
      </trkpt>
      <trkpt lat="54.655728" lon="9.412034">
        <ele>66.739393</ele>
        <time>2021-01-24T09:35:59.000Z</time>
      </trkpt>
      <trkpt lat="54.655724" lon="9.412013">
        <ele>66.730954</ele>
        <time>2021-01-24T09:36:00.000Z</time>
      </trkpt>
      <trkpt lat="54.655722" lon="9.411989">
        <ele>66.721698</ele>
        <time>2021-01-24T09:36:01.000Z</time>
      </trkpt>
      <trkpt lat="54.655711" lon="9.411879">
        <ele>66.679089</ele>
        <time>2021-01-24T09:36:05.000Z</time>
      </trkpt>
      <trkpt lat="54.655713" lon="9.411841">
        <ele>66.664525</ele>
        <time>2021-01-24T09:36:07.000Z</time>
      </trkpt>
      <trkpt lat="54.655704" lon="9.411773">
        <ele>66.637898</ele>
        <time>2021-01-24T09:36:10.000Z</time>
      </trkpt>
      <trkpt lat="54.655697" lon="9.411735">
        <ele>66.622676</ele>
        <time>2021-01-24T09:36:12.000Z</time>
      </trkpt>
      <trkpt lat="54.655697" lon="9.411723">
        <ele>66.618096</ele>
        <time>2021-01-24T09:36:13.000Z</time>
      </trkpt>
      <trkpt lat="54.655705" lon="9.411717">
        <ele>66.612342</ele>
        <time>2021-01-24T09:36:16.000Z</time>
      </trkpt>
      <trkpt lat="54.655710" lon="9.411713">
        <ele>66.608707</ele>
        <time>2021-01-24T09:36:17.000Z</time>
      </trkpt>
      <trkpt lat="54.655710" lon="9.411667">
        <ele>66.591149</ele>
        <time>2021-01-24T09:36:21.000Z</time>
      </trkpt>
      <trkpt lat="54.655721" lon="9.411624">
        <ele>66.573202</ele>
        <time>2021-01-24T09:36:23.000Z</time>
      </trkpt>
      <trkpt lat="54.655714" lon="9.411556">
        <ele>66.546839</ele>
        <time>2021-01-24T09:36:27.000Z</time>
      </trkpt>
      <trkpt lat="54.655709" lon="9.411540">
        <ele>66.539898</ele>
        <time>2021-01-24T09:36:29.000Z</time>
      </trkpt>
      <trkpt lat="54.655704" lon="9.411511">
        <ele>66.528347</ele>
        <time>2021-01-24T09:36:31.000Z</time>
      </trkpt>
      <trkpt lat="54.655694" lon="9.411451">
        <ele>66.504514</ele>
        <time>2021-01-24T09:36:35.000Z</time>
      </trkpt>
      <trkpt lat="54.655688" lon="9.411407">
        <ele>66.487259</ele>
        <time>2021-01-24T09:36:38.000Z</time>
      </trkpt>
      <trkpt lat="54.655691" lon="9.411407">
        <ele>66.485280</ele>
        <time>2021-01-24T09:36:40.000Z</time>
      </trkpt>
      <trkpt lat="54.655691" lon="9.411410">
        <ele>66.484134</ele>
        <time>2021-01-24T09:36:42.000Z</time>
      </trkpt>
      <trkpt lat="54.655672" lon="9.411357">
        <ele>66.460335</ele>
        <time>2021-01-24T09:36:49.000Z</time>
      </trkpt>
      <trkpt lat="54.655653" lon="9.411200">
        <ele>66.399111</ele>
        <time>2021-01-24T09:36:56.000Z</time>
      </trkpt>
      <trkpt lat="54.655653" lon="9.411167">
        <ele>66.386515</ele>
        <time>2021-01-24T09:36:58.000Z</time>
      </trkpt>
      <trkpt lat="54.655652" lon="9.411101">
        <ele>66.362164</ele>
        <time>2021-01-24T09:37:02.000Z</time>
      </trkpt>
      <trkpt lat="54.655649" lon="9.411079">
        <ele>66.354268</ele>
        <time>2021-01-24T09:37:04.000Z</time>
      </trkpt>
      <trkpt lat="54.655637" lon="9.411052">
        <ele>66.342375</ele>
        <time>2021-01-24T09:37:06.000Z</time>
      </trkpt>
      <trkpt lat="54.655635" lon="9.410981">
        <ele>66.317545</ele>
        <time>2021-01-24T09:37:10.000Z</time>
      </trkpt>
      <trkpt lat="54.655634" lon="9.410960">
        <ele>66.310184</ele>
        <time>2021-01-24T09:37:11.000Z</time>
      </trkpt>
      <trkpt lat="54.655629" lon="9.410867">
        <ele>66.277558</ele>
        <time>2021-01-24T09:37:15.000Z</time>
      </trkpt>
      <trkpt lat="54.655628" lon="9.410817">
        <ele>66.260083</ele>
        <time>2021-01-24T09:37:17.000Z</time>
      </trkpt>
      <trkpt lat="54.655627" lon="9.410797">
        <ele>66.253070</ele>
        <time>2021-01-24T09:37:18.000Z</time>
      </trkpt>
      <trkpt lat="54.655621" lon="9.410753">
        <ele>66.237279</ele>
        <time>2021-01-24T09:37:21.000Z</time>
      </trkpt>
      <trkpt lat="54.655597" lon="9.410706">
        <ele>66.215381</ele>
        <time>2021-01-24T09:37:24.000Z</time>
      </trkpt>
      <trkpt lat="54.655590" lon="9.410686">
        <ele>66.207215</ele>
        <time>2021-01-24T09:37:25.000Z</time>
      </trkpt>
      <trkpt lat="54.655581" lon="9.410559">
        <ele>66.162521</ele>
        <time>2021-01-24T09:37:31.000Z</time>
      </trkpt>
      <trkpt lat="54.655583" lon="9.410541">
        <ele>66.156119</ele>
        <time>2021-01-24T09:37:32.000Z</time>
      </trkpt>
      <trkpt lat="54.655580" lon="9.410486">
        <ele>66.136822</ele>
        <time>2021-01-24T09:37:35.000Z</time>
      </trkpt>
      <trkpt lat="54.655550" lon="9.410386">
        <ele>66.097473</ele>
        <time>2021-01-24T09:37:40.000Z</time>
      </trkpt>
      <trkpt lat="54.655530" lon="9.410300">
        <ele>66.065095</ele>
        <time>2021-01-24T09:37:45.000Z</time>
      </trkpt>
      <trkpt lat="54.655531" lon="9.410282">
        <ele>66.058779</ele>
        <time>2021-01-24T09:37:46.000Z</time>
      </trkpt>
      <trkpt lat="54.655528" lon="9.410242">
        <ele>66.044690</ele>
        <time>2021-01-24T09:37:48.000Z</time>
      </trkpt>
      <trkpt lat="54.655532" lon="9.410197">
        <ele>66.028786</ele>
        <time>2021-01-24T09:37:50.000Z</time>
      </trkpt>
      <trkpt lat="54.655541" lon="9.410159">
        <ele>66.014443</ele>
        <time>2021-01-24T09:37:52.000Z</time>
      </trkpt>
      <trkpt lat="54.655545" lon="9.410140">
        <ele>66.007380</ele>
        <time>2021-01-24T09:37:53.000Z</time>
      </trkpt>
      <trkpt lat="54.655569" lon="9.410028">
        <ele>65.965660</ele>
        <time>2021-01-24T09:37:58.000Z</time>
      </trkpt>
      <trkpt lat="54.655574" lon="9.410005">
        <ele>65.957077</ele>
        <time>2021-01-24T09:37:59.000Z</time>
      </trkpt>
      <trkpt lat="54.655585" lon="9.409934">
        <ele>65.931402</ele>
        <time>2021-01-24T09:38:02.000Z</time>
      </trkpt>
      <trkpt lat="54.655584" lon="9.409901">
        <ele>65.919859</ele>
        <time>2021-01-24T09:38:03.000Z</time>
      </trkpt>
      <trkpt lat="54.655585" lon="9.409832">
        <ele>65.895749</ele>
        <time>2021-01-24T09:38:06.000Z</time>
      </trkpt>
      <trkpt lat="54.655587" lon="9.409668">
        <ele>65.838449</ele>
        <time>2021-01-24T09:38:14.000Z</time>
      </trkpt>
      <trkpt lat="54.655577" lon="9.409586">
        <ele>65.809176</ele>
        <time>2021-01-24T09:38:18.000Z</time>
      </trkpt>
      <trkpt lat="54.655569" lon="9.409557">
        <ele>65.797953</ele>
        <time>2021-01-24T09:38:20.000Z</time>
      </trkpt>
      <trkpt lat="54.655562" lon="9.409517">
        <ele>65.783356</ele>
        <time>2021-01-24T09:38:23.000Z</time>
      </trkpt>
      <trkpt lat="54.655555" lon="9.409487">
        <ele>65.772056</ele>
        <time>2021-01-24T09:38:25.000Z</time>
      </trkpt>
      <trkpt lat="54.655555" lon="9.409454">
        <ele>65.760529</ele>
        <time>2021-01-24T09:38:27.000Z</time>
      </trkpt>
      <trkpt lat="54.655552" lon="9.409433">
        <ele>65.752973</ele>
        <time>2021-01-24T09:38:30.000Z</time>
      </trkpt>
      <trkpt lat="54.655548" lon="9.409406">
        <ele>65.743237</ele>
        <time>2021-01-24T09:38:33.000Z</time>
      </trkpt>
      <trkpt lat="54.655554" lon="9.409369">
        <ele>65.729814</ele>
        <time>2021-01-24T09:38:39.000Z</time>
      </trkpt>
      <trkpt lat="54.655552" lon="9.409364">
        <ele>65.727691</ele>
        <time>2021-01-24T09:38:43.000Z</time>
      </trkpt>
      <trkpt lat="54.655550" lon="9.409357">
        <ele>65.724964</ele>
        <time>2021-01-24T09:38:44.000Z</time>
      </trkpt>
      <trkpt lat="54.655548" lon="9.409330">
        <ele>65.715455</ele>
        <time>2021-01-24T09:38:46.000Z</time>
      </trkpt>
      <trkpt lat="54.655548" lon="9.409209">
        <ele>65.673189</ele>
        <time>2021-01-24T09:38:52.000Z</time>
      </trkpt>
      <trkpt lat="54.655545" lon="9.409193">
        <ele>65.667314</ele>
        <time>2021-01-24T09:38:53.000Z</time>
      </trkpt>
      <trkpt lat="54.655514" lon="9.409117">
        <ele>65.634830</ele>
        <time>2021-01-24T09:38:58.000Z</time>
      </trkpt>
      <trkpt lat="54.655488" lon="9.409000">
        <ele>65.591049</ele>
        <time>2021-01-24T09:39:03.000Z</time>
      </trkpt>
      <trkpt lat="54.655490" lon="9.408926">
        <ele>65.565172</ele>
        <time>2021-01-24T09:39:07.000Z</time>
      </trkpt>
      <trkpt lat="54.655503" lon="9.408883">
        <ele>65.548224</ele>
        <time>2021-01-24T09:39:10.000Z</time>
      </trkpt>
      <trkpt lat="54.655484" lon="9.408815">
        <ele>65.521845</ele>
        <time>2021-01-24T09:39:15.000Z</time>
      </trkpt>
      <trkpt lat="54.655484" lon="9.408807">
        <ele>65.519051</ele>
        <time>2021-01-24T09:39:16.000Z</time>
      </trkpt>
      <trkpt lat="54.655481" lon="9.408803">
        <ele>65.516763</ele>
        <time>2021-01-24T09:39:17.000Z</time>
      </trkpt>
      <trkpt lat="54.655476" lon="9.408798">
        <ele>65.513275</ele>
        <time>2021-01-24T09:39:19.000Z</time>
      </trkpt>
      <trkpt lat="54.655472" lon="9.408807">
        <ele>65.509311</ele>
        <time>2021-01-24T09:39:21.000Z</time>
      </trkpt>
      <trkpt lat="54.655480" lon="9.408799">
        <ele>65.503730</ele>
        <time>2021-01-24T09:39:24.000Z</time>
      </trkpt>
      <trkpt lat="54.655460" lon="9.408745">
        <ele>65.481332</ele>
        <time>2021-01-24T09:39:29.000Z</time>
      </trkpt>
      <trkpt lat="54.655459" lon="9.408730">
        <ele>65.476058</ele>
        <time>2021-01-24T09:39:30.000Z</time>
      </trkpt>
      <trkpt lat="54.655457" lon="9.408720">
        <ele>65.472362</ele>
        <time>2021-01-24T09:39:31.000Z</time>
      </trkpt>
      <trkpt lat="54.655458" lon="9.408699">
        <ele>65.465002</ele>
        <time>2021-01-24T09:39:32.000Z</time>
      </trkpt>
      <trkpt lat="54.655439" lon="9.408603">
        <ele>65.429559</ele>
        <time>2021-01-24T09:39:37.000Z</time>
      </trkpt>
      <trkpt lat="54.655417" lon="9.408552">
        <ele>65.407337</ele>
        <time>2021-01-24T09:39:41.000Z</time>
      </trkpt>
      <trkpt lat="54.655417" lon="9.408546">
        <ele>65.405241</ele>
        <time>2021-01-24T09:39:42.000Z</time>
      </trkpt>
      <trkpt lat="54.655425" lon="9.408527">
        <ele>65.397032</ele>
        <time>2021-01-24T09:39:44.000Z</time>
      </trkpt>
      <trkpt lat="54.655420" lon="9.408519">
        <ele>65.392918</ele>
        <time>2021-01-24T09:39:46.000Z</time>
      </trkpt>
      <trkpt lat="54.655407" lon="9.408476">
        <ele>65.375970</ele>
        <time>2021-01-24T09:39:49.000Z</time>
      </trkpt>
      <trkpt lat="54.655395" lon="9.408430">
        <ele>65.358344</ele>
        <time>2021-01-24T09:39:51.000Z</time>
      </trkpt>
      <trkpt lat="54.655389" lon="9.408411">
        <ele>65.350782</ele>
        <time>2021-01-24T09:39:52.000Z</time>
      </trkpt>
      <trkpt lat="54.655385" lon="9.408379">
        <ele>65.339346</ele>
        <time>2021-01-24T09:39:54.000Z</time>
      </trkpt>
      <trkpt lat="54.655375" lon="9.408289">
        <ele>65.307334</ele>
        <time>2021-01-24T09:39:58.000Z</time>
      </trkpt>
      <trkpt lat="54.655381" lon="9.408252">
        <ele>65.293911</ele>
        <time>2021-01-24T09:40:00.000Z</time>
      </trkpt>
      <trkpt lat="54.655391" lon="9.408183">
        <ele>65.240702</ele>
        <time>2021-01-24T09:40:04.000Z</time>
      </trkpt>
      <trkpt lat="54.655389" lon="9.408154">
        <ele>65.212627</ele>
        <time>2021-01-24T09:40:06.000Z</time>
      </trkpt>
      <trkpt lat="54.655388" lon="9.408121">
        <ele>65.180861</ele>
        <time>2021-01-24T09:40:08.000Z</time>
      </trkpt>
      <trkpt lat="54.655388" lon="9.408092">
        <ele>65.152984</ele>
        <time>2021-01-24T09:40:10.000Z</time>
      </trkpt>
      <trkpt lat="54.655393" lon="9.408060">
        <ele>65.121121</ele>
        <time>2021-01-24T09:40:12.000Z</time>
      </trkpt>
      <trkpt lat="54.655395" lon="9.408041">
        <ele>65.102556</ele>
        <time>2021-01-24T09:40:13.000Z</time>
      </trkpt>
      <trkpt lat="54.655393" lon="9.407947">
        <ele>65.012134</ele>
        <time>2021-01-24T09:40:18.000Z</time>
      </trkpt>
      <trkpt lat="54.655394" lon="9.407931">
        <ele>64.996664</ele>
        <time>2021-01-24T09:40:19.000Z</time>
      </trkpt>
      <trkpt lat="54.655390" lon="9.407861">
        <ele>64.929046</ele>
        <time>2021-01-24T09:40:23.000Z</time>
      </trkpt>
      <trkpt lat="54.655379" lon="9.407801">
        <ele>64.868542</ele>
        <time>2021-01-24T09:40:25.000Z</time>
      </trkpt>
      <trkpt lat="54.655380" lon="9.407781">
        <ele>64.849244</ele>
        <time>2021-01-24T09:40:26.000Z</time>
      </trkpt>
      <trkpt lat="54.655378" lon="9.407739">
        <ele>64.808734</ele>
        <time>2021-01-24T09:40:28.000Z</time>
      </trkpt>
      <trkpt lat="54.655369" lon="9.407686">
        <ele>64.755636</ele>
        <time>2021-01-24T09:40:30.000Z</time>
      </trkpt>
      <trkpt lat="54.655364" lon="9.407546">
        <ele>64.620799</ele>
        <time>2021-01-24T09:40:38.000Z</time>
      </trkpt>
      <trkpt lat="54.655387" lon="9.407409">
        <ele>64.483669</ele>
        <time>2021-01-24T09:40:46.000Z</time>
      </trkpt>
      <trkpt lat="54.655373" lon="9.407258">
        <ele>64.336662</ele>
        <time>2021-01-24T09:40:53.000Z</time>
      </trkpt>
      <trkpt lat="54.655376" lon="9.407170">
        <ele>64.251922</ele>
        <time>2021-01-24T09:40:58.000Z</time>
      </trkpt>
      <trkpt lat="54.655377" lon="9.407130">
        <ele>64.213434</ele>
        <time>2021-01-24T09:41:01.000Z</time>
      </trkpt>
      <trkpt lat="54.655381" lon="9.407102">
        <ele>64.185710</ele>
        <time>2021-01-24T09:41:03.000Z</time>
      </trkpt>
      <trkpt lat="54.655371" lon="9.407041">
        <ele>64.124762</ele>
        <time>2021-01-24T09:41:06.000Z</time>
      </trkpt>
      <trkpt lat="54.655370" lon="9.407019">
        <ele>64.103549</ele>
        <time>2021-01-24T09:41:07.000Z</time>
      </trkpt>
      <trkpt lat="54.655370" lon="9.406990">
        <ele>64.075671</ele>
        <time>2021-01-24T09:41:08.000Z</time>
      </trkpt>
      <trkpt lat="54.655360" lon="9.406911">
        <ele>63.997933</ele>
        <time>2021-01-24T09:41:11.000Z</time>
      </trkpt>
      <trkpt lat="54.655362" lon="9.406890">
        <ele>63.977474</ele>
        <time>2021-01-24T09:41:12.000Z</time>
      </trkpt>
      <trkpt lat="54.655360" lon="9.406784">
        <ele>63.875523</ele>
        <time>2021-01-24T09:41:17.000Z</time>
      </trkpt>
      <trkpt lat="54.655353" lon="9.406718">
        <ele>63.811021</ele>
        <time>2021-01-24T09:41:21.000Z</time>
      </trkpt>
      <trkpt lat="54.655342" lon="9.406673">
        <ele>63.764059</ele>
        <time>2021-01-24T09:41:24.000Z</time>
      </trkpt>
      <trkpt lat="54.655325" lon="9.406644">
        <ele>63.724371</ele>
        <time>2021-01-24T09:41:26.000Z</time>
      </trkpt>
      <trkpt lat="54.655318" lon="9.406637">
        <ele>63.710933</ele>
        <time>2021-01-24T09:41:27.000Z</time>
      </trkpt>
      <trkpt lat="54.655303" lon="9.406619">
        <ele>63.680590</ele>
        <time>2021-01-24T09:41:28.000Z</time>
      </trkpt>
      <trkpt lat="54.655297" lon="9.406608">
        <ele>63.666057</ele>
        <time>2021-01-24T09:41:29.000Z</time>
      </trkpt>
      <trkpt lat="54.655269" lon="9.406577">
        <ele>63.610804</ele>
        <time>2021-01-24T09:41:32.000Z</time>
      </trkpt>
      <trkpt lat="54.655254" lon="9.406566">
        <ele>63.583728</ele>
        <time>2021-01-24T09:41:34.000Z</time>
      </trkpt>
      <trkpt lat="54.655244" lon="9.406557">
        <ele>63.564993</ele>
        <time>2021-01-24T09:41:38.000Z</time>
      </trkpt>
      <trkpt lat="54.655245" lon="9.406553">
        <ele>63.560805</ele>
        <time>2021-01-24T09:41:40.000Z</time>
      </trkpt>
      <trkpt lat="54.655250" lon="9.406548">
        <ele>63.551206</ele>
        <time>2021-01-24T09:41:41.000Z</time>
      </trkpt>
      <trkpt lat="54.655247" lon="9.406531">
        <ele>63.534121</ele>
        <time>2021-01-24T09:41:44.000Z</time>
      </trkpt>
      <trkpt lat="54.655249" lon="9.406538">
        <ele>63.526616</ele>
        <time>2021-01-24T09:41:47.000Z</time>
      </trkpt>
      <trkpt lat="54.655241" lon="9.406518">
        <ele>63.503241</ele>
        <time>2021-01-24T09:41:49.000Z</time>
      </trkpt>
      <trkpt lat="54.655215" lon="9.406471">
        <ele>63.440728</ele>
        <time>2021-01-24T09:41:58.000Z</time>
      </trkpt>
      <trkpt lat="54.655207" lon="9.406470">
        <ele>63.427400</ele>
        <time>2021-01-24T09:42:01.000Z</time>
      </trkpt>
      <trkpt lat="54.655205" lon="9.406471">
        <ele>63.423940</ele>
        <time>2021-01-24T09:42:02.000Z</time>
      </trkpt>
      <trkpt lat="54.655200" lon="9.406481">
        <ele>63.411234</ele>
        <time>2021-01-24T09:42:04.000Z</time>
      </trkpt>
      <trkpt lat="54.655202" lon="9.406480">
        <ele>63.407774</ele>
        <time>2021-01-24T09:42:06.000Z</time>
      </trkpt>
      <trkpt lat="54.655192" lon="9.406492">
        <ele>63.387546</ele>
        <time>2021-01-24T09:42:09.000Z</time>
      </trkpt>
      <trkpt lat="54.655188" lon="9.406498">
        <ele>63.378745</ele>
        <time>2021-01-24T09:42:18.000Z</time>
      </trkpt>
      <trkpt lat="54.655217" lon="9.406585">
        <ele>63.282223</ele>
        <time>2021-01-24T09:42:25.000Z</time>
      </trkpt>
      <trkpt lat="54.655229" lon="9.406584">
        <ele>63.262259</ele>
        <time>2021-01-24T09:42:26.000Z</time>
      </trkpt>
      <trkpt lat="54.655276" lon="9.406561">
        <ele>63.181089</ele>
        <time>2021-01-24T09:42:30.000Z</time>
      </trkpt>
      <trkpt lat="54.655295" lon="9.406525">
        <ele>63.134245</ele>
        <time>2021-01-24T09:42:32.000Z</time>
      </trkpt>
      <trkpt lat="54.655304" lon="9.406509">
        <ele>63.112792</ele>
        <time>2021-01-24T09:42:33.000Z</time>
      </trkpt>
      <trkpt lat="54.655303" lon="9.406482">
        <ele>63.086784</ele>
        <time>2021-01-24T09:42:34.000Z</time>
      </trkpt>
      <trkpt lat="54.655320" lon="9.406455">
        <ele>63.048421</ele>
        <time>2021-01-24T09:42:36.000Z</time>
      </trkpt>
      <trkpt lat="54.655329" lon="9.406415">
        <ele>63.007164</ele>
        <time>2021-01-24T09:42:38.000Z</time>
      </trkpt>
      <trkpt lat="54.655328" lon="9.406327">
        <ele>62.922554</ele>
        <time>2021-01-24T09:42:41.000Z</time>
      </trkpt>
      <trkpt lat="54.655328" lon="9.406298">
        <ele>62.894677</ele>
        <time>2021-01-24T09:42:42.000Z</time>
      </trkpt>
      <trkpt lat="54.655329" lon="9.406154">
        <ele>62.756241</ele>
        <time>2021-01-24T09:42:49.000Z</time>
      </trkpt>
      <trkpt lat="54.655335" lon="9.406139">
        <ele>62.738710</ele>
        <time>2021-01-24T09:42:50.000Z</time>
      </trkpt>
      <trkpt lat="54.655330" lon="9.406070">
        <ele>62.671863</ele>
        <time>2021-01-24T09:42:53.000Z</time>
      </trkpt>
      <trkpt lat="54.655326" lon="9.406026">
        <ele>62.629047</ele>
        <time>2021-01-24T09:42:55.000Z</time>
      </trkpt>
      <trkpt lat="54.655310" lon="9.405877">
        <ele>62.483368</ele>
        <time>2021-01-24T09:43:01.000Z</time>
      </trkpt>
      <trkpt lat="54.655311" lon="9.405855">
        <ele>62.462155</ele>
        <time>2021-01-24T09:43:02.000Z</time>
      </trkpt>
      <trkpt lat="54.655310" lon="9.405786">
        <ele>62.395805</ele>
        <time>2021-01-24T09:43:05.000Z</time>
      </trkpt>
      <trkpt lat="54.655302" lon="9.405710">
        <ele>62.321547</ele>
        <time>2021-01-24T09:43:08.000Z</time>
      </trkpt>
      <trkpt lat="54.655294" lon="9.405653">
        <ele>62.259313</ele>
        <time>2021-01-24T09:43:10.000Z</time>
      </trkpt>
      <trkpt lat="54.655264" lon="9.405538">
        <ele>62.115346</ele>
        <time>2021-01-24T09:43:15.000Z</time>
      </trkpt>
      <trkpt lat="54.655257" lon="9.405522">
        <ele>62.092453</ele>
        <time>2021-01-24T09:43:16.000Z</time>
      </trkpt>
      <trkpt lat="54.655182" lon="9.405374">
        <ele>61.867914</ele>
        <time>2021-01-24T09:43:23.000Z</time>
      </trkpt>
      <trkpt lat="54.655143" lon="9.405317">
        <ele>61.767163</ele>
        <time>2021-01-24T09:43:27.000Z</time>
      </trkpt>
      <trkpt lat="54.655107" lon="9.405279">
        <ele>61.683951</ele>
        <time>2021-01-24T09:43:30.000Z</time>
      </trkpt>
      <trkpt lat="54.655089" lon="9.405270">
        <ele>61.646987</ele>
        <time>2021-01-24T09:43:32.000Z</time>
      </trkpt>
      <trkpt lat="54.655083" lon="9.405260">
        <ele>61.630545</ele>
        <time>2021-01-24T09:43:33.000Z</time>
      </trkpt>
      <trkpt lat="54.655058" lon="9.405224">
        <ele>61.566356</ele>
        <time>2021-01-24T09:43:36.000Z</time>
      </trkpt>
      <trkpt lat="54.655050" lon="9.405202">
        <ele>61.536701</ele>
        <time>2021-01-24T09:43:37.000Z</time>
      </trkpt>
      <trkpt lat="54.655007" lon="9.405095">
        <ele>61.388018</ele>
        <time>2021-01-24T09:43:42.000Z</time>
      </trkpt>
      <trkpt lat="54.655004" lon="9.405078">
        <ele>61.367734</ele>
        <time>2021-01-24T09:43:43.000Z</time>
      </trkpt>
      <trkpt lat="54.655001" lon="9.405045">
        <ele>61.329612</ele>
        <time>2021-01-24T09:43:45.000Z</time>
      </trkpt>
      <trkpt lat="54.654996" lon="9.405015">
        <ele>61.293983</ele>
        <time>2021-01-24T09:43:47.000Z</time>
      </trkpt>
      <trkpt lat="54.654997" lon="9.404999">
        <ele>61.275617</ele>
        <time>2021-01-24T09:43:48.000Z</time>
      </trkpt>
      <trkpt lat="54.654999" lon="9.404979">
        <ele>61.252454</ele>
        <time>2021-01-24T09:43:49.000Z</time>
      </trkpt>
      <trkpt lat="54.655001" lon="9.404958">
        <ele>61.228166</ele>
        <time>2021-01-24T09:43:50.000Z</time>
      </trkpt>
      <trkpt lat="54.655017" lon="9.404903">
        <ele>61.157909</ele>
        <time>2021-01-24T09:43:53.000Z</time>
      </trkpt>
      <trkpt lat="54.655035" lon="9.404876">
        <ele>61.110895</ele>
        <time>2021-01-24T09:43:55.000Z</time>
      </trkpt>
      <trkpt lat="54.655042" lon="9.404840">
        <ele>61.067552</ele>
        <time>2021-01-24T09:43:57.000Z</time>
      </trkpt>
      <trkpt lat="54.655100" lon="9.404700">
        <ele>60.871037</ele>
        <time>2021-01-24T09:44:04.000Z</time>
      </trkpt>
      <trkpt lat="54.655118" lon="9.404654">
        <ele>60.807659</ele>
        <time>2021-01-24T09:44:06.000Z</time>
      </trkpt>
      <trkpt lat="54.655144" lon="9.404613">
        <ele>60.738232</ele>
        <time>2021-01-24T09:44:09.000Z</time>
      </trkpt>
      <trkpt lat="54.655152" lon="9.404603">
        <ele>60.718756</ele>
        <time>2021-01-24T09:44:10.000Z</time>
      </trkpt>
      <trkpt lat="54.655158" lon="9.404576">
        <ele>60.685748</ele>
        <time>2021-01-24T09:44:11.000Z</time>
      </trkpt>
      <trkpt lat="54.655219" lon="9.404427">
        <ele>60.477434</ele>
        <time>2021-01-24T09:44:19.000Z</time>
      </trkpt>
      <trkpt lat="54.655233" lon="9.404382">
        <ele>60.419124</ele>
        <time>2021-01-24T09:44:21.000Z</time>
      </trkpt>
      <trkpt lat="54.655264" lon="9.404306">
        <ele>60.312999</ele>
        <time>2021-01-24T09:44:26.000Z</time>
      </trkpt>
      <trkpt lat="54.655273" lon="9.404269">
        <ele>60.267193</ele>
        <time>2021-01-24T09:44:29.000Z</time>
      </trkpt>
      <trkpt lat="54.655276" lon="9.404258">
        <ele>60.253315</ele>
        <time>2021-01-24T09:44:30.000Z</time>
      </trkpt>
      <trkpt lat="54.655274" lon="9.404236">
        <ele>60.227900</ele>
        <time>2021-01-24T09:44:31.000Z</time>
      </trkpt>
      <trkpt lat="54.655281" lon="9.404199">
        <ele>60.183474</ele>
        <time>2021-01-24T09:44:33.000Z</time>
      </trkpt>
      <trkpt lat="54.655319" lon="9.404080">
        <ele>60.028354</ele>
        <time>2021-01-24T09:44:40.000Z</time>
      </trkpt>
      <trkpt lat="54.655300" lon="9.403888">
        <ele>59.806058</ele>
        <time>2021-01-24T09:44:47.000Z</time>
      </trkpt>
      <trkpt lat="54.655295" lon="9.403867">
        <ele>59.780142</ele>
        <time>2021-01-24T09:44:48.000Z</time>
      </trkpt>
      <trkpt lat="54.655267" lon="9.403745">
        <ele>59.630357</ele>
        <time>2021-01-24T09:44:55.000Z</time>
      </trkpt>
      <trkpt lat="54.655201" lon="9.403656">
        <ele>59.465226</ele>
        <time>2021-01-24T09:45:02.000Z</time>
      </trkpt>
      <trkpt lat="54.655194" lon="9.403642">
        <ele>59.444108</ele>
        <time>2021-01-24T09:45:03.000Z</time>
      </trkpt>
      <trkpt lat="54.655187" lon="9.403621">
        <ele>59.416449</ele>
        <time>2021-01-24T09:45:05.000Z</time>
      </trkpt>
      <trkpt lat="54.655182" lon="9.403611">
        <ele>59.401365</ele>
        <time>2021-01-24T09:45:06.000Z</time>
      </trkpt>
      <trkpt lat="54.655164" lon="9.403584">
        <ele>59.354351</ele>
        <time>2021-01-24T09:45:09.000Z</time>
      </trkpt>
      <trkpt lat="54.655163" lon="9.403563">
        <ele>59.330304</ele>
        <time>2021-01-24T09:45:11.000Z</time>
      </trkpt>
      <trkpt lat="54.655161" lon="9.403539">
        <ele>59.302632</ele>
        <time>2021-01-24T09:45:13.000Z</time>
      </trkpt>
      <trkpt lat="54.655146" lon="9.403481">
        <ele>59.230128</ele>
        <time>2021-01-24T09:45:16.000Z</time>
      </trkpt>
      <trkpt lat="54.655146" lon="9.403464">
        <ele>59.210728</ele>
        <time>2021-01-24T09:45:17.000Z</time>
      </trkpt>
      <trkpt lat="54.655144" lon="9.403443">
        <ele>59.186439</ele>
        <time>2021-01-24T09:45:18.000Z</time>
      </trkpt>
      <trkpt lat="54.655132" lon="9.403392">
        <ele>59.123607</ele>
        <time>2021-01-24T09:45:23.000Z</time>
      </trkpt>
      <trkpt lat="54.655135" lon="9.403388">
        <ele>59.116133</ele>
        <time>2021-01-24T09:45:24.000Z</time>
      </trkpt>
      <trkpt lat="54.655132" lon="9.403387">
        <ele>59.110106</ele>
        <time>2021-01-24T09:45:26.000Z</time>
      </trkpt>
      <trkpt lat="54.655165" lon="9.403341">
        <ele>59.026476</ele>
        <time>2021-01-24T09:45:29.000Z</time>
      </trkpt>
      <trkpt lat="54.655172" lon="9.403320">
        <ele>58.998817</ele>
        <time>2021-01-24T09:45:30.000Z</time>
      </trkpt>
      <trkpt lat="54.655178" lon="9.403304">
        <ele>58.977057</ele>
        <time>2021-01-24T09:45:31.000Z</time>
      </trkpt>
      <trkpt lat="54.655182" lon="9.403272">
        <ele>58.939695</ele>
        <time>2021-01-24T09:45:33.000Z</time>
      </trkpt>
      <trkpt lat="54.655180" lon="9.403213">
        <ele>58.872248</ele>
        <time>2021-01-24T09:45:36.000Z</time>
      </trkpt>
      <trkpt lat="54.655173" lon="9.403189">
        <ele>58.841574</ele>
        <time>2021-01-24T09:45:37.000Z</time>
      </trkpt>
      <trkpt lat="54.655170" lon="9.403167">
        <ele>58.815779</ele>
        <time>2021-01-24T09:45:39.000Z</time>
      </trkpt>
      <trkpt lat="54.655176" lon="9.403091">
        <ele>58.777042</ele>
        <time>2021-01-24T09:45:43.000Z</time>
      </trkpt>
      <trkpt lat="54.655172" lon="9.403065">
        <ele>58.821465</ele>
        <time>2021-01-24T09:45:44.000Z</time>
      </trkpt>
      <trkpt lat="54.655183" lon="9.403034">
        <ele>58.881513</ele>
        <time>2021-01-24T09:45:46.000Z</time>
      </trkpt>
      <trkpt lat="54.655205" lon="9.402955">
        <ele>59.026282</ele>
        <time>2021-01-24T09:45:50.000Z</time>
      </trkpt>
      <trkpt lat="54.655238" lon="9.402861">
        <ele>59.207836</ele>
        <time>2021-01-24T09:45:54.000Z</time>
      </trkpt>
      <trkpt lat="54.655231" lon="9.402800">
        <ele>59.310520</ele>
        <time>2021-01-24T09:45:57.000Z</time>
      </trkpt>
      <trkpt lat="54.655251" lon="9.402742">
        <ele>59.422011</ele>
        <time>2021-01-24T09:46:00.000Z</time>
      </trkpt>
      <trkpt lat="54.655286" lon="9.402669">
        <ele>59.578562</ele>
        <time>2021-01-24T09:46:04.000Z</time>
      </trkpt>
      <trkpt lat="54.655288" lon="9.402648">
        <ele>59.613704</ele>
        <time>2021-01-24T09:46:05.000Z</time>
      </trkpt>
      <trkpt lat="54.655285" lon="9.402619">
        <ele>59.662347</ele>
        <time>2021-01-24T09:46:06.000Z</time>
      </trkpt>
      <trkpt lat="54.655296" lon="9.402550">
        <ele>59.780524</ele>
        <time>2021-01-24T09:46:12.000Z</time>
      </trkpt>
      <trkpt lat="54.655292" lon="9.402535">
        <ele>59.807797</ele>
        <time>2021-01-24T09:46:16.000Z</time>
      </trkpt>
      <trkpt lat="54.655289" lon="9.402533">
        <ele>59.816974</ele>
        <time>2021-01-24T09:46:17.000Z</time>
      </trkpt>
      <trkpt lat="54.655292" lon="9.402524">
        <ele>59.834125</ele>
        <time>2021-01-24T09:46:20.000Z</time>
      </trkpt>
      <trkpt lat="54.655293" lon="9.402520">
        <ele>59.841320</ele>
        <time>2021-01-24T09:46:21.000Z</time>
      </trkpt>
      <trkpt lat="54.655299" lon="9.402497">
        <ele>59.882980</ele>
        <time>2021-01-24T09:46:29.000Z</time>
      </trkpt>
      <trkpt lat="54.655307" lon="9.402444">
        <ele>59.973421</ele>
        <time>2021-01-24T09:46:33.000Z</time>
      </trkpt>
      <trkpt lat="54.655313" lon="9.402422">
        <ele>60.013581</ele>
        <time>2021-01-24T09:46:35.000Z</time>
      </trkpt>
      <trkpt lat="54.655315" lon="9.402409">
        <ele>60.035793</ele>
        <time>2021-01-24T09:46:36.000Z</time>
      </trkpt>
      <trkpt lat="54.655341" lon="9.402290">
        <ele>60.245828</ele>
        <time>2021-01-24T09:46:44.000Z</time>
      </trkpt>
      <trkpt lat="54.655348" lon="9.402276">
        <ele>60.276382</ele>
        <time>2021-01-24T09:46:45.000Z</time>
      </trkpt>
      <trkpt lat="54.655368" lon="9.402191">
        <ele>60.427896</ele>
        <time>2021-01-24T09:46:49.000Z</time>
      </trkpt>
      <trkpt lat="54.655399" lon="9.402104">
        <ele>60.596611</ele>
        <time>2021-01-24T09:46:54.000Z</time>
      </trkpt>
      <trkpt lat="54.655414" lon="9.402010">
        <ele>60.757617</ele>
        <time>2021-01-24T09:47:00.000Z</time>
      </trkpt>
      <trkpt lat="54.655420" lon="9.401993">
        <ele>60.790498</ele>
        <time>2021-01-24T09:47:01.000Z</time>
      </trkpt>
      <trkpt lat="54.655433" lon="9.401953">
        <ele>60.866254</ele>
        <time>2021-01-24T09:47:04.000Z</time>
      </trkpt>
      <trkpt lat="54.655437" lon="9.401942">
        <ele>60.887707</ele>
        <time>2021-01-24T09:47:05.000Z</time>
      </trkpt>
      <trkpt lat="54.655441" lon="9.401913">
        <ele>60.936933</ele>
        <time>2021-01-24T09:47:07.000Z</time>
      </trkpt>
      <trkpt lat="54.655443" lon="9.401898">
        <ele>60.962349</ele>
        <time>2021-01-24T09:47:08.000Z</time>
      </trkpt>
      <trkpt lat="54.655460" lon="9.401865">
        <ele>61.035311</ele>
        <time>2021-01-24T09:47:11.000Z</time>
      </trkpt>
      <trkpt lat="54.655465" lon="9.401852">
        <ele>61.061087</ele>
        <time>2021-01-24T09:47:12.000Z</time>
      </trkpt>
      <trkpt lat="54.655472" lon="9.401816">
        <ele>61.123797</ele>
        <time>2021-01-24T09:47:14.000Z</time>
      </trkpt>
      <trkpt lat="54.655474" lon="9.401770">
        <ele>61.199964</ele>
        <time>2021-01-24T09:47:16.000Z</time>
      </trkpt>
      <trkpt lat="54.655475" lon="9.401752">
        <ele>61.229822</ele>
        <time>2021-01-24T09:47:17.000Z</time>
      </trkpt>
      <trkpt lat="54.655482" lon="9.401718">
        <ele>61.289411</ele>
        <time>2021-01-24T09:47:19.000Z</time>
      </trkpt>
      <trkpt lat="54.655488" lon="9.401699">
        <ele>61.325153</ele>
        <time>2021-01-24T09:47:20.000Z</time>
      </trkpt>
      <trkpt lat="54.655522" lon="9.401558">
        <ele>61.577382</ele>
        <time>2021-01-24T09:47:28.000Z</time>
      </trkpt>
      <trkpt lat="54.655536" lon="9.401498">
        <ele>61.684206</ele>
        <time>2021-01-24T09:47:32.000Z</time>
      </trkpt>
      <trkpt lat="54.655528" lon="9.401475">
        <ele>61.728519</ele>
        <time>2021-01-24T09:47:35.000Z</time>
      </trkpt>
      <trkpt lat="54.655526" lon="9.401473">
        <ele>61.735114</ele>
        <time>2021-01-24T09:47:36.000Z</time>
      </trkpt>
      <trkpt lat="54.655518" lon="9.401467">
        <ele>61.760004</ele>
        <time>2021-01-24T09:47:37.000Z</time>
      </trkpt>
      <trkpt lat="54.655507" lon="9.401456">
        <ele>61.796276</ele>
        <time>2021-01-24T09:47:41.000Z</time>
      </trkpt>
      <trkpt lat="54.655505" lon="9.401449">
        <ele>61.809167</ele>
        <time>2021-01-24T09:47:42.000Z</time>
      </trkpt>
      <trkpt lat="54.655510" lon="9.401434">
        <ele>61.837752</ele>
        <time>2021-01-24T09:47:44.000Z</time>
      </trkpt>
      <trkpt lat="54.655511" lon="9.401425">
        <ele>61.852884</ele>
        <time>2021-01-24T09:47:46.000Z</time>
      </trkpt>
      <trkpt lat="54.655524" lon="9.401420">
        <ele>61.890896</ele>
        <time>2021-01-24T09:47:49.000Z</time>
      </trkpt>
      <trkpt lat="54.655514" lon="9.401400">
        <ele>61.934545</ele>
        <time>2021-01-24T09:47:57.000Z</time>
      </trkpt>
      <trkpt lat="54.655515" lon="9.401375">
        <ele>61.975922</ele>
        <time>2021-01-24T09:48:01.000Z</time>
      </trkpt>
      <trkpt lat="54.655517" lon="9.401361">
        <ele>61.999733</ele>
        <time>2021-01-24T09:48:02.000Z</time>
      </trkpt>
      <trkpt lat="54.655521" lon="9.401347">
        <ele>62.025515</ele>
        <time>2021-01-24T09:48:03.000Z</time>
      </trkpt>
      <trkpt lat="54.655533" lon="9.401322">
        <ele>62.079153</ele>
        <time>2021-01-24T09:48:05.000Z</time>
      </trkpt>
      <trkpt lat="54.655558" lon="9.401273">
        <ele>62.187031</ele>
        <time>2021-01-24T09:48:10.000Z</time>
      </trkpt>
      <trkpt lat="54.655566" lon="9.401267">
        <ele>62.211921</ele>
        <time>2021-01-24T09:48:11.000Z</time>
      </trkpt>
      <trkpt lat="54.655577" lon="9.401259">
        <ele>62.245984</ele>
        <time>2021-01-24T09:48:13.000Z</time>
      </trkpt>
      <trkpt lat="54.655600" lon="9.401212">
        <ele>62.347630</ele>
        <time>2021-01-24T09:48:18.000Z</time>
      </trkpt>
      <trkpt lat="54.655607" lon="9.401202">
        <ele>62.373550</ele>
        <time>2021-01-24T09:48:19.000Z</time>
      </trkpt>
      <trkpt lat="54.655646" lon="9.401125">
        <ele>62.542533</ele>
        <time>2021-01-24T09:48:24.000Z</time>
      </trkpt>
      <trkpt lat="54.655646" lon="9.401102">
        <ele>62.580510</ele>
        <time>2021-01-24T09:48:25.000Z</time>
      </trkpt>
      <trkpt lat="54.655662" lon="9.401036">
        <ele>62.698668</ele>
        <time>2021-01-24T09:48:30.000Z</time>
      </trkpt>
      <trkpt lat="54.655676" lon="9.401008">
        <ele>62.759776</ele>
        <time>2021-01-24T09:48:32.000Z</time>
      </trkpt>
      <trkpt lat="54.655686" lon="9.400981">
        <ele>62.812711</ele>
        <time>2021-01-24T09:48:34.000Z</time>
      </trkpt>
      <trkpt lat="54.655707" lon="9.400950">
        <ele>62.891531</ele>
        <time>2021-01-24T09:48:38.000Z</time>
      </trkpt>
      <trkpt lat="54.655711" lon="9.400944">
        <ele>62.906647</ele>
        <time>2021-01-24T09:48:40.000Z</time>
      </trkpt>
      <trkpt lat="54.655736" lon="9.400922">
        <ele>62.986717</ele>
        <time>2021-01-24T09:48:42.000Z</time>
      </trkpt>
      <trkpt lat="54.655764" lon="9.400901">
        <ele>63.073834</ele>
        <time>2021-01-24T09:48:44.000Z</time>
      </trkpt>
      <trkpt lat="54.655805" lon="9.400853">
        <ele>63.215171</ele>
        <time>2021-01-24T09:48:48.000Z</time>
      </trkpt>
      <trkpt lat="54.655813" lon="9.400850">
        <ele>63.238536</ele>
        <time>2021-01-24T09:48:49.000Z</time>
      </trkpt>
      <trkpt lat="54.655818" lon="9.400840">
        <ele>63.260360</ele>
        <time>2021-01-24T09:48:50.000Z</time>
      </trkpt>
      <trkpt lat="54.655832" lon="9.400817">
        <ele>63.315487</ele>
        <time>2021-01-24T09:48:52.000Z</time>
      </trkpt>
      <trkpt lat="54.655863" lon="9.400775">
        <ele>63.427906</ele>
        <time>2021-01-24T09:48:56.000Z</time>
      </trkpt>
      <trkpt lat="54.655872" lon="9.400743">
        <ele>63.486656</ele>
        <time>2021-01-24T09:48:59.000Z</time>
      </trkpt>
      <trkpt lat="54.655894" lon="9.400685">
        <ele>63.601173</ele>
        <time>2021-01-24T09:49:03.000Z</time>
      </trkpt>
      <trkpt lat="54.655886" lon="9.400655">
        <ele>63.655717</ele>
        <time>2021-01-24T09:49:05.000Z</time>
      </trkpt>
      <trkpt lat="54.655888" lon="9.400611">
        <ele>63.728591</ele>
        <time>2021-01-24T09:49:08.000Z</time>
      </trkpt>
      <trkpt lat="54.655884" lon="9.400577">
        <ele>63.785879</ele>
        <time>2021-01-24T09:49:10.000Z</time>
      </trkpt>
      <trkpt lat="54.655878" lon="9.400561">
        <ele>63.817363</ele>
        <time>2021-01-24T09:49:11.000Z</time>
      </trkpt>
      <trkpt lat="54.655862" lon="9.400507">
        <ele>63.890498</ele>
        <time>2021-01-24T09:49:14.000Z</time>
      </trkpt>
      <trkpt lat="54.655861" lon="9.400512">
        <ele>63.892595</ele>
        <time>2021-01-24T09:49:16.000Z</time>
      </trkpt>
      <trkpt lat="54.655894" lon="9.400424">
        <ele>63.934157</ele>
        <time>2021-01-24T09:49:19.000Z</time>
      </trkpt>
      <trkpt lat="54.655870" lon="9.400374">
        <ele>63.959906</ele>
        <time>2021-01-24T09:49:23.000Z</time>
      </trkpt>
      <trkpt lat="54.655871" lon="9.400354">
        <ele>63.967862</ele>
        <time>2021-01-24T09:49:24.000Z</time>
      </trkpt>
      <trkpt lat="54.655885" lon="9.400289">
        <ele>63.995350</ele>
        <time>2021-01-24T09:49:28.000Z</time>
      </trkpt>
      <trkpt lat="54.655892" lon="9.400229">
        <ele>64.019608</ele>
        <time>2021-01-24T09:49:32.000Z</time>
      </trkpt>
      <trkpt lat="54.655901" lon="9.400197">
        <ele>64.033710</ele>
        <time>2021-01-24T09:49:34.000Z</time>
      </trkpt>
      <trkpt lat="54.655917" lon="9.400082">
        <ele>64.080586</ele>
        <time>2021-01-24T09:49:39.000Z</time>
      </trkpt>
      <trkpt lat="54.655926" lon="9.400046">
        <ele>64.096128</ele>
        <time>2021-01-24T09:49:41.000Z</time>
      </trkpt>
      <trkpt lat="54.655944" lon="9.400009">
        <ele>64.115288</ele>
        <time>2021-01-24T09:49:44.000Z</time>
      </trkpt>
      <trkpt lat="54.655965" lon="9.399955">
        <ele>64.141075</ele>
        <time>2021-01-24T09:49:47.000Z</time>
      </trkpt>
      <trkpt lat="54.655981" lon="9.399802">
        <ele>64.202695</ele>
        <time>2021-01-24T09:49:54.000Z</time>
      </trkpt>
      <trkpt lat="54.656003" lon="9.399661">
        <ele>64.260572</ele>
        <time>2021-01-24T09:50:01.000Z</time>
      </trkpt>
      <trkpt lat="54.656017" lon="9.399629">
        <ele>64.276472</ele>
        <time>2021-01-24T09:50:03.000Z</time>
      </trkpt>
      <trkpt lat="54.656032" lon="9.399546">
        <ele>64.310934</ele>
        <time>2021-01-24T09:50:07.000Z</time>
      </trkpt>
      <trkpt lat="54.656033" lon="9.399506">
        <ele>64.326802</ele>
        <time>2021-01-24T09:50:09.000Z</time>
      </trkpt>
      <trkpt lat="54.656033" lon="9.399427">
        <ele>64.358111</ele>
        <time>2021-01-24T09:50:12.000Z</time>
      </trkpt>
      <trkpt lat="54.656036" lon="9.399407">
        <ele>64.366299</ele>
        <time>2021-01-24T09:50:13.000Z</time>
      </trkpt>
      <trkpt lat="54.656042" lon="9.399293">
        <ele>64.411666</ele>
        <time>2021-01-24T09:50:19.000Z</time>
      </trkpt>
      <trkpt lat="54.656076" lon="9.399215">
        <ele>64.450372</ele>
        <time>2021-01-24T09:50:24.000Z</time>
      </trkpt>
      <trkpt lat="54.656093" lon="9.399200">
        <ele>64.463448</ele>
        <time>2021-01-24T09:50:26.000Z</time>
      </trkpt>
      <trkpt lat="54.656121" lon="9.399233">
        <ele>64.486664</ele>
        <time>2021-01-24T09:50:28.000Z</time>
      </trkpt>
      <trkpt lat="54.656135" lon="9.399244">
        <ele>64.497200</ele>
        <time>2021-01-24T09:50:29.000Z</time>
      </trkpt>
      <trkpt lat="54.656143" lon="9.399257">
        <ele>64.504722</ele>
        <time>2021-01-24T09:50:31.000Z</time>
      </trkpt>
      <trkpt lat="54.656154" lon="9.399247">
        <ele>64.513237</ele>
        <time>2021-01-24T09:50:34.000Z</time>
      </trkpt>
      <trkpt lat="54.656169" lon="9.399263">
        <ele>64.525312</ele>
        <time>2021-01-24T09:50:36.000Z</time>
      </trkpt>
      <trkpt lat="54.656201" lon="9.399303">
        <ele>64.552366</ele>
        <time>2021-01-24T09:50:39.000Z</time>
      </trkpt>
      <trkpt lat="54.656216" lon="9.399320">
        <ele>64.564654</ele>
        <time>2021-01-24T09:50:40.000Z</time>
      </trkpt>
      <trkpt lat="54.656271" lon="9.399385">
        <ele>64.610298</ele>
        <time>2021-01-24T09:50:45.000Z</time>
      </trkpt>
      <trkpt lat="54.656293" lon="9.399405">
        <ele>64.627327</ele>
        <time>2021-01-24T09:50:47.000Z</time>
      </trkpt>
      <trkpt lat="54.656324" lon="9.399425">
        <ele>64.649996</ele>
        <time>2021-01-24T09:50:49.000Z</time>
      </trkpt>
      <trkpt lat="54.656335" lon="9.399436">
        <ele>64.658702</ele>
        <time>2021-01-24T09:50:50.000Z</time>
      </trkpt>
      <trkpt lat="54.656374" lon="9.399484">
        <ele>64.691501</ele>
        <time>2021-01-24T09:50:55.000Z</time>
      </trkpt>
      <trkpt lat="54.656405" lon="9.399495">
        <ele>64.713181</ele>
        <time>2021-01-24T09:50:58.000Z</time>
      </trkpt>
      <trkpt lat="54.656418" lon="9.399496">
        <ele>64.722096</ele>
        <time>2021-01-24T09:51:00.000Z</time>
      </trkpt>
      <trkpt lat="54.656419" lon="9.399494">
        <ele>64.723144</ele>
        <time>2021-01-24T09:51:01.000Z</time>
      </trkpt>
      <trkpt lat="54.656424" lon="9.399505">
        <ele>64.728688</ele>
        <time>2021-01-24T09:51:02.000Z</time>
      </trkpt>
      <trkpt lat="54.656434" lon="9.399517">
        <ele>64.737028</ele>
        <time>2021-01-24T09:51:04.000Z</time>
      </trkpt>
      <trkpt lat="54.656477" lon="9.399537">
        <ele>64.767535</ele>
        <time>2021-01-24T09:51:07.000Z</time>
      </trkpt>
      <trkpt lat="54.656483" lon="9.399560">
        <ele>64.777534</ele>
        <time>2021-01-24T09:51:09.000Z</time>
      </trkpt>
      <trkpt lat="54.656525" lon="9.399616">
        <ele>64.813872</ele>
        <time>2021-01-24T09:51:15.000Z</time>
      </trkpt>
      <trkpt lat="54.656530" lon="9.399624">
        <ele>64.818540</ele>
        <time>2021-01-24T09:51:16.000Z</time>
      </trkpt>
      <trkpt lat="54.656552" lon="9.399637">
        <ele>64.834468</ele>
        <time>2021-01-24T09:51:19.000Z</time>
      </trkpt>
      <trkpt lat="54.656572" lon="9.399661">
        <ele>64.851148</ele>
        <time>2021-01-24T09:51:22.000Z</time>
      </trkpt>
      <trkpt lat="54.656592" lon="9.399689">
        <ele>64.868779</ele>
        <time>2021-01-24T09:51:25.000Z</time>
      </trkpt>
      <trkpt lat="54.656608" lon="9.399699">
        <ele>64.880435</ele>
        <time>2021-01-24T09:51:28.000Z</time>
      </trkpt>
      <trkpt lat="54.656619" lon="9.399706">
        <ele>64.888466</ele>
        <time>2021-01-24T09:51:29.000Z</time>
      </trkpt>
      <trkpt lat="54.656644" lon="9.399737">
        <ele>64.909543</ele>
        <time>2021-01-24T09:51:32.000Z</time>
      </trkpt>
      <trkpt lat="54.656651" lon="9.399749">
        <ele>64.916297</ele>
        <time>2021-01-24T09:51:33.000Z</time>
      </trkpt>
      <trkpt lat="54.656666" lon="9.399766">
        <ele>64.928585</ele>
        <time>2021-01-24T09:51:35.000Z</time>
      </trkpt>
      <trkpt lat="54.656675" lon="9.399776">
        <ele>64.935915</ele>
        <time>2021-01-24T09:51:36.000Z</time>
      </trkpt>
      <trkpt lat="54.656689" lon="9.399784">
        <ele>64.946017</ele>
        <time>2021-01-24T09:51:37.000Z</time>
      </trkpt>
      <trkpt lat="54.656725" lon="9.399808">
        <ele>64.972451</ele>
        <time>2021-01-24T09:51:40.000Z</time>
      </trkpt>
      <trkpt lat="54.656751" lon="9.399826">
        <ele>64.991638</ele>
        <time>2021-01-24T09:51:43.000Z</time>
      </trkpt>
      <trkpt lat="54.656763" lon="9.399833">
        <ele>65.000315</ele>
        <time>2021-01-24T09:51:44.000Z</time>
      </trkpt>
      <trkpt lat="54.656833" lon="9.399895">
        <ele>65.054199</ele>
        <time>2021-01-24T09:51:51.000Z</time>
      </trkpt>
      <trkpt lat="54.656916" lon="9.399985">
        <ele>65.117258</ele>
        <time>2021-01-24T09:51:59.000Z</time>
      </trkpt>
      <trkpt lat="54.656975" lon="9.400054">
        <ele>65.138230</ele>
        <time>2021-01-24T09:52:05.000Z</time>
      </trkpt>
      <trkpt lat="54.656987" lon="9.400064">
        <ele>65.142152</ele>
        <time>2021-01-24T09:52:06.000Z</time>
      </trkpt>
      <trkpt lat="54.657034" lon="9.400055">
        <ele>65.156075</ele>
        <time>2021-01-24T09:52:10.000Z</time>
      </trkpt>
      <trkpt lat="54.657052" lon="9.400066">
        <ele>65.161696</ele>
        <time>2021-01-24T09:52:12.000Z</time>
      </trkpt>
      <trkpt lat="54.657066" lon="9.400073">
        <ele>65.165986</ele>
        <time>2021-01-24T09:52:13.000Z</time>
      </trkpt>
      <trkpt lat="54.657120" lon="9.400153">
        <ele>65.186925</ele>
        <time>2021-01-24T09:52:19.000Z</time>
      </trkpt>
      <trkpt lat="54.657209" lon="9.400237">
        <ele>65.216779</ele>
        <time>2021-01-24T09:52:26.000Z</time>
      </trkpt>
      <trkpt lat="54.657285" lon="9.400280">
        <ele>65.240323</ele>
        <time>2021-01-24T09:52:31.000Z</time>
      </trkpt>
      <trkpt lat="54.657284" lon="9.400280">
        <ele>65.240617</ele>
        <time>2021-01-24T09:52:32.000Z</time>
      </trkpt>
      <trkpt lat="54.657260" lon="9.400276">
        <ele>65.247716</ele>
        <time>2021-01-24T09:52:35.000Z</time>
      </trkpt>
      <trkpt lat="54.657248" lon="9.400267">
        <ele>65.251567</ele>
        <time>2021-01-24T09:52:37.000Z</time>
      </trkpt>
      <trkpt lat="54.657248" lon="9.400275">
        <ele>65.252930</ele>
        <time>2021-01-24T09:52:39.000Z</time>
      </trkpt>
      <trkpt lat="54.657258" lon="9.400305">
        <ele>65.258827</ele>
        <time>2021-01-24T09:52:47.000Z</time>
      </trkpt>
      <trkpt lat="54.657277" lon="9.400326">
        <ele>65.265466</ele>
        <time>2021-01-24T09:52:50.000Z</time>
      </trkpt>
      <trkpt lat="54.657296" lon="9.400336">
        <ele>65.271314</ele>
        <time>2021-01-24T09:52:52.000Z</time>
      </trkpt>
      <trkpt lat="54.657327" lon="9.400343">
        <ele>65.280518</ele>
        <time>2021-01-24T09:52:54.000Z</time>
      </trkpt>
      <trkpt lat="54.657341" lon="9.400348">
        <ele>65.284727</ele>
        <time>2021-01-24T09:52:55.000Z</time>
      </trkpt>
      <trkpt lat="54.657350" lon="9.400354">
        <ele>65.287567</ele>
        <time>2021-01-24T09:52:56.000Z</time>
      </trkpt>
      <trkpt lat="54.657413" lon="9.400401">
        <ele>65.307769</ele>
        <time>2021-01-24T09:53:02.000Z</time>
      </trkpt>
      <trkpt lat="54.657434" lon="9.400424">
        <ele>65.315088</ele>
        <time>2021-01-24T09:53:04.000Z</time>
      </trkpt>
      <trkpt lat="54.657416" lon="9.400509">
        <ele>65.330504</ele>
        <time>2021-01-24T09:53:08.000Z</time>
      </trkpt>
      <trkpt lat="54.657396" lon="9.400527">
        <ele>65.337143</ele>
        <time>2021-01-24T09:53:11.000Z</time>
      </trkpt>
      <trkpt lat="54.657393" lon="9.400531">
        <ele>65.338258</ele>
        <time>2021-01-24T09:53:12.000Z</time>
      </trkpt>
      <trkpt lat="54.657391" lon="9.400542">
        <ele>65.340222</ele>
        <time>2021-01-24T09:53:13.000Z</time>
      </trkpt>
      <trkpt lat="54.657389" lon="9.400561">
        <ele>65.343511</ele>
        <time>2021-01-24T09:53:14.000Z</time>
      </trkpt>
      <trkpt lat="54.657371" lon="9.400595">
        <ele>65.351361</ele>
        <time>2021-01-24T09:53:18.000Z</time>
      </trkpt>
      <trkpt lat="54.657367" lon="9.400591">
        <ele>65.352721</ele>
        <time>2021-01-24T09:53:19.000Z</time>
      </trkpt>
      <trkpt lat="54.657364" lon="9.400589">
        <ele>65.353668</ele>
        <time>2021-01-24T09:53:21.000Z</time>
      </trkpt>
      <trkpt lat="54.657349" lon="9.400584">
        <ele>65.358166</ele>
        <time>2021-01-24T09:53:27.000Z</time>
      </trkpt>
      <trkpt lat="54.657363" lon="9.400581">
        <ele>65.362319</ele>
        <time>2021-01-24T09:53:35.000Z</time>
      </trkpt>
      <trkpt lat="54.657406" lon="9.400518">
        <ele>65.378914</ele>
        <time>2021-01-24T09:53:40.000Z</time>
      </trkpt>
      <trkpt lat="54.657421" lon="9.400487">
        <ele>65.385797</ele>
        <time>2021-01-24T09:53:42.000Z</time>
      </trkpt>
      <trkpt lat="54.657482" lon="9.400494">
        <ele>65.403797</ele>
        <time>2021-01-24T09:53:48.000Z</time>
      </trkpt>
      <trkpt lat="54.657544" lon="9.400574">
        <ele>65.426575</ele>
        <time>2021-01-24T09:53:55.000Z</time>
      </trkpt>
      <trkpt lat="54.657574" lon="9.400607">
        <ele>65.437044</ele>
        <time>2021-01-24T09:53:58.000Z</time>
      </trkpt>
      <trkpt lat="54.657581" lon="9.400616">
        <ele>65.439612</ele>
        <time>2021-01-24T09:53:59.000Z</time>
      </trkpt>
      <trkpt lat="54.657634" lon="9.400646">
        <ele>65.456032</ele>
        <time>2021-01-24T09:54:03.000Z</time>
      </trkpt>
      <trkpt lat="54.657676" lon="9.400672">
        <ele>65.469166</ele>
        <time>2021-01-24T09:54:06.000Z</time>
      </trkpt>
      <trkpt lat="54.657754" lon="9.400733">
        <ele>65.494372</ele>
        <time>2021-01-24T09:54:13.000Z</time>
      </trkpt>
      <trkpt lat="54.657835" lon="9.400794">
        <ele>65.520384</ele>
        <time>2021-01-24T09:54:20.000Z</time>
      </trkpt>
      <trkpt lat="54.657939" lon="9.400874">
        <ele>65.553898</ele>
        <time>2021-01-24T09:54:29.000Z</time>
      </trkpt>
      <trkpt lat="54.657985" lon="9.400909">
        <ele>65.568695</ele>
        <time>2021-01-24T09:54:32.000Z</time>
      </trkpt>
      <trkpt lat="54.658042" lon="9.400969">
        <ele>65.588343</ele>
        <time>2021-01-24T09:54:37.000Z</time>
      </trkpt>
      <trkpt lat="54.658068" lon="9.400982">
        <ele>65.596312</ele>
        <time>2021-01-24T09:54:40.000Z</time>
      </trkpt>
      <trkpt lat="54.658082" lon="9.400991">
        <ele>65.600710</ele>
        <time>2021-01-24T09:54:41.000Z</time>
      </trkpt>
      <trkpt lat="54.658121" lon="9.400997">
        <ele>65.612237</ele>
        <time>2021-01-24T09:54:43.000Z</time>
      </trkpt>
      <trkpt lat="54.658129" lon="9.400990">
        <ele>65.614877</ele>
        <time>2021-01-24T09:54:44.000Z</time>
      </trkpt>
      <trkpt lat="54.658190" lon="9.401029">
        <ele>65.634026</ele>
        <time>2021-01-24T09:54:51.000Z</time>
      </trkpt>
      <trkpt lat="54.658239" lon="9.401105">
        <ele>65.632814</ele>
        <time>2021-01-24T09:54:58.000Z</time>
      </trkpt>
      <trkpt lat="54.658253" lon="9.401123">
        <ele>65.626997</ele>
        <time>2021-01-24T09:55:00.000Z</time>
      </trkpt>
      <trkpt lat="54.658260" lon="9.401133">
        <ele>65.623970</ele>
        <time>2021-01-24T09:55:01.000Z</time>
      </trkpt>
      <trkpt lat="54.658296" lon="9.401185">
        <ele>65.608330</ele>
        <time>2021-01-24T09:55:05.000Z</time>
      </trkpt>
      <trkpt lat="54.658310" lon="9.401213">
        <ele>65.601193</ele>
        <time>2021-01-24T09:55:07.000Z</time>
      </trkpt>
      <trkpt lat="54.658318" lon="9.401226">
        <ele>65.597533</ele>
        <time>2021-01-24T09:55:08.000Z</time>
      </trkpt>
      <trkpt lat="54.658389" lon="9.401295">
        <ele>65.570380</ele>
        <time>2021-01-24T09:55:16.000Z</time>
      </trkpt>
      <trkpt lat="54.658409" lon="9.401307">
        <ele>65.563322</ele>
        <time>2021-01-24T09:55:18.000Z</time>
      </trkpt>
      <trkpt lat="54.658438" lon="9.401316">
        <ele>65.553499</ele>
        <time>2021-01-24T09:55:20.000Z</time>
      </trkpt>
      <trkpt lat="54.658473" lon="9.401319">
        <ele>65.541817</ele>
        <time>2021-01-24T09:55:23.000Z</time>
      </trkpt>
      <trkpt lat="54.658490" lon="9.401315">
        <ele>65.536097</ele>
        <time>2021-01-24T09:55:25.000Z</time>
      </trkpt>
      <trkpt lat="54.658510" lon="9.401326">
        <ele>65.529100</ele>
        <time>2021-01-24T09:55:27.000Z</time>
      </trkpt>
      <trkpt lat="54.658533" lon="9.401344">
        <ele>65.520683</ele>
        <time>2021-01-24T09:55:30.000Z</time>
      </trkpt>
      <trkpt lat="54.658568" lon="9.401377">
        <ele>65.507393</ele>
        <time>2021-01-24T09:55:32.000Z</time>
      </trkpt>
      <trkpt lat="54.658620" lon="9.401403">
        <ele>65.489347</ele>
        <time>2021-01-24T09:55:37.000Z</time>
      </trkpt>
      <trkpt lat="54.658636" lon="9.401414">
        <ele>65.483606</ele>
        <time>2021-01-24T09:55:38.000Z</time>
      </trkpt>
      <trkpt lat="54.658702" lon="9.401426">
        <ele>65.461482</ele>
        <time>2021-01-24T09:55:44.000Z</time>
      </trkpt>
      <trkpt lat="54.658727" lon="9.401398">
        <ele>65.451551</ele>
        <time>2021-01-24T09:55:47.000Z</time>
      </trkpt>
      <trkpt lat="54.658724" lon="9.401377">
        <ele>65.447380</ele>
        <time>2021-01-24T09:55:48.000Z</time>
      </trkpt>
      <trkpt lat="54.658749" lon="9.401314">
        <ele>65.432647</ele>
        <time>2021-01-24T09:55:52.000Z</time>
      </trkpt>
      <trkpt lat="54.658774" lon="9.401245">
        <ele>65.416946</ele>
        <time>2021-01-24T09:55:57.000Z</time>
      </trkpt>
      <trkpt lat="54.658775" lon="9.401232">
        <ele>65.414417</ele>
        <time>2021-01-24T09:55:58.000Z</time>
      </trkpt>
      <trkpt lat="54.658775" lon="9.401219">
        <ele>65.411910</ele>
        <time>2021-01-24T09:55:59.000Z</time>
      </trkpt>
      <trkpt lat="54.658768" lon="9.401163">
        <ele>65.400862</ele>
        <time>2021-01-24T09:56:01.000Z</time>
      </trkpt>
      <trkpt lat="54.658803" lon="9.401060">
        <ele>65.377826</ele>
        <time>2021-01-24T09:56:06.000Z</time>
      </trkpt>
      <trkpt lat="54.658826" lon="9.400975">
        <ele>65.359730</ele>
        <time>2021-01-24T09:56:10.000Z</time>
      </trkpt>
      <trkpt lat="54.658831" lon="9.400964">
        <ele>65.357032</ele>
        <time>2021-01-24T09:56:12.000Z</time>
      </trkpt>
      <trkpt lat="54.658856" lon="9.400942">
        <ele>65.347680</ele>
        <time>2021-01-24T09:56:16.000Z</time>
      </trkpt>
      <trkpt lat="54.658881" lon="9.400910">
        <ele>65.337309</ele>
        <time>2021-01-24T09:56:18.000Z</time>
      </trkpt>
      <trkpt lat="54.658919" lon="9.400843">
        <ele>65.319215</ele>
        <time>2021-01-24T09:56:22.000Z</time>
      </trkpt>
      <trkpt lat="54.658929" lon="9.400853">
        <ele>65.315363</ele>
        <time>2021-01-24T09:56:24.000Z</time>
      </trkpt>
      <trkpt lat="54.658938" lon="9.400863">
        <ele>65.311797</ele>
        <time>2021-01-24T09:56:25.000Z</time>
      </trkpt>
      <trkpt lat="54.659003" lon="9.400893">
        <ele>65.289368</ele>
        <time>2021-01-24T09:56:30.000Z</time>
      </trkpt>
      <trkpt lat="54.659010" lon="9.400901">
        <ele>65.286571</ele>
        <time>2021-01-24T09:56:31.000Z</time>
      </trkpt>
      <trkpt lat="54.659018" lon="9.400911">
        <ele>65.283279</ele>
        <time>2021-01-24T09:56:32.000Z</time>
      </trkpt>
      <trkpt lat="54.659018" lon="9.400928">
        <ele>65.280001</ele>
        <time>2021-01-24T09:56:35.000Z</time>
      </trkpt>
      <trkpt lat="54.659024" lon="9.400940">
        <ele>65.276942</ele>
        <time>2021-01-24T09:56:37.000Z</time>
      </trkpt>
      <trkpt lat="54.659046" lon="9.400978">
        <ele>65.266575</ele>
        <time>2021-01-24T09:56:45.000Z</time>
      </trkpt>
      <trkpt lat="54.659013" lon="9.400961">
        <ele>65.255095</ele>
        <time>2021-01-24T09:56:51.000Z</time>
      </trkpt>
      <trkpt lat="54.659006" lon="9.400948">
        <ele>65.251670</ele>
        <time>2021-01-24T09:56:53.000Z</time>
      </trkpt>
      <trkpt lat="54.658996" lon="9.400921">
        <ele>65.245488</ele>
        <time>2021-01-24T09:56:56.000Z</time>
      </trkpt>
      <trkpt lat="54.658982" lon="9.400915">
        <ele>65.240679</ele>
        <time>2021-01-24T09:56:58.000Z</time>
      </trkpt>
      <trkpt lat="54.658975" lon="9.400908">
        <ele>65.237983</ele>
        <time>2021-01-24T09:57:00.000Z</time>
      </trkpt>
      <trkpt lat="54.658970" lon="9.400906">
        <ele>65.236272</ele>
        <time>2021-01-24T09:57:01.000Z</time>
      </trkpt>
      <trkpt lat="54.658989" lon="9.400826">
        <ele>65.219595</ele>
        <time>2021-01-24T09:57:07.000Z</time>
      </trkpt>
      <trkpt lat="54.658993" lon="9.400750">
        <ele>65.204879</ele>
        <time>2021-01-24T09:57:11.000Z</time>
      </trkpt>
      <trkpt lat="54.659001" lon="9.400704">
        <ele>65.195616</ele>
        <time>2021-01-24T09:57:13.000Z</time>
      </trkpt>
      <trkpt lat="54.659001" lon="9.400644">
        <ele>65.184046</ele>
        <time>2021-01-24T09:57:15.000Z</time>
      </trkpt>
      <trkpt lat="54.659010" lon="9.400615">
        <ele>65.177699</ele>
        <time>2021-01-24T09:57:17.000Z</time>
      </trkpt>
      <trkpt lat="54.659022" lon="9.400497">
        <ele>65.154595</ele>
        <time>2021-01-24T09:57:23.000Z</time>
      </trkpt>
      <trkpt lat="54.659027" lon="9.400482">
        <ele>65.151257</ele>
        <time>2021-01-24T09:57:24.000Z</time>
      </trkpt>
      <trkpt lat="54.659033" lon="9.400455">
        <ele>65.145679</ele>
        <time>2021-01-24T09:57:26.000Z</time>
      </trkpt>
      <trkpt lat="54.659045" lon="9.400406">
        <ele>65.135418</ele>
        <time>2021-01-24T09:57:29.000Z</time>
      </trkpt>
      <trkpt lat="54.659051" lon="9.400373">
        <ele>65.128747</ele>
        <time>2021-01-24T09:57:31.000Z</time>
      </trkpt>
      <trkpt lat="54.659088" lon="9.400295">
        <ele>65.109295</ele>
        <time>2021-01-24T09:57:37.000Z</time>
      </trkpt>
      <trkpt lat="54.659108" lon="9.400272">
        <ele>65.101287</ele>
        <time>2021-01-24T09:57:39.000Z</time>
      </trkpt>
      <trkpt lat="54.659128" lon="9.400230">
        <ele>65.090796</ele>
        <time>2021-01-24T09:57:42.000Z</time>
      </trkpt>
      <trkpt lat="54.659158" lon="9.400157">
        <ele>65.073528</ele>
        <time>2021-01-24T09:57:47.000Z</time>
      </trkpt>
      <trkpt lat="54.659198" lon="9.400078">
        <ele>65.053282</ele>
        <time>2021-01-24T09:57:53.000Z</time>
      </trkpt>
      <trkpt lat="54.659214" lon="9.400048">
        <ele>65.045413</ele>
        <time>2021-01-24T09:57:55.000Z</time>
      </trkpt>
      <trkpt lat="54.659235" lon="9.399903">
        <ele>65.044122</ele>
        <time>2021-01-24T09:58:02.000Z</time>
      </trkpt>
      <trkpt lat="54.659260" lon="9.399825">
        <ele>65.044122</ele>
        <time>2021-01-24T09:58:06.000Z</time>
      </trkpt>
      <trkpt lat="54.659265" lon="9.399807">
        <ele>65.044122</ele>
        <time>2021-01-24T09:58:07.000Z</time>
      </trkpt>
      <trkpt lat="54.659275" lon="9.399792">
        <ele>65.044122</ele>
        <time>2021-01-24T09:58:08.000Z</time>
      </trkpt>
      <trkpt lat="54.659283" lon="9.399766">
        <ele>65.044122</ele>
        <time>2021-01-24T09:58:09.000Z</time>
      </trkpt>
      <trkpt lat="54.659343" lon="9.399663">
        <ele>65.044122</ele>
        <time>2021-01-24T09:58:16.000Z</time>
      </trkpt>
      <trkpt lat="54.659368" lon="9.399626">
        <ele>65.044122</ele>
        <time>2021-01-24T09:58:19.000Z</time>
      </trkpt>
      <trkpt lat="54.659376" lon="9.399610">
        <ele>65.044122</ele>
        <time>2021-01-24T09:58:20.000Z</time>
      </trkpt>
      <trkpt lat="54.659401" lon="9.399551">
        <ele>65.044122</ele>
        <time>2021-01-24T09:58:24.000Z</time>
      </trkpt>
      <trkpt lat="54.659440" lon="9.399488">
        <ele>65.044122</ele>
        <time>2021-01-24T09:58:28.000Z</time>
      </trkpt>
      <trkpt lat="54.659459" lon="9.399458">
        <ele>65.044122</ele>
        <time>2021-01-24T09:58:30.000Z</time>
      </trkpt>
      <trkpt lat="54.659506" lon="9.399352">
        <ele>65.044122</ele>
        <time>2021-01-24T09:58:37.000Z</time>
      </trkpt>
      <trkpt lat="54.659565" lon="9.399287">
        <ele>65.044122</ele>
        <time>2021-01-24T09:58:43.000Z</time>
      </trkpt>
      <trkpt lat="54.659576" lon="9.399277">
        <ele>65.044122</ele>
        <time>2021-01-24T09:58:44.000Z</time>
      </trkpt>
      <trkpt lat="54.659587" lon="9.399262">
        <ele>65.044122</ele>
        <time>2021-01-24T09:58:45.000Z</time>
      </trkpt>
      <trkpt lat="54.659615" lon="9.399155">
        <ele>65.044122</ele>
        <time>2021-01-24T09:58:50.000Z</time>
      </trkpt>
      <trkpt lat="54.659657" lon="9.399039">
        <ele>65.044122</ele>
        <time>2021-01-24T09:58:57.000Z</time>
      </trkpt>
      <trkpt lat="54.659714" lon="9.398874">
        <ele>65.044122</ele>
        <time>2021-01-24T09:59:06.000Z</time>
      </trkpt>
      <trkpt lat="54.659753" lon="9.398757">
        <ele>65.044122</ele>
        <time>2021-01-24T09:59:12.000Z</time>
      </trkpt>
      <trkpt lat="54.659768" lon="9.398698">
        <ele>65.044122</ele>
        <time>2021-01-24T09:59:15.000Z</time>
      </trkpt>
      <trkpt lat="54.659788" lon="9.398581">
        <ele>65.044122</ele>
        <time>2021-01-24T09:59:20.000Z</time>
      </trkpt>
      <trkpt lat="54.659791" lon="9.398561">
        <ele>65.044122</ele>
        <time>2021-01-24T09:59:21.000Z</time>
      </trkpt>
      <trkpt lat="54.659808" lon="9.398489">
        <ele>65.044122</ele>
        <time>2021-01-24T09:59:25.000Z</time>
      </trkpt>
      <trkpt lat="54.659845" lon="9.398379">
        <ele>65.044122</ele>
        <time>2021-01-24T09:59:31.000Z</time>
      </trkpt>
      <trkpt lat="54.659895" lon="9.398192">
        <ele>65.044122</ele>
        <time>2021-01-24T09:59:40.000Z</time>
      </trkpt>
      <trkpt lat="54.659948" lon="9.398009">
        <ele>65.044122</ele>
        <time>2021-01-24T09:59:49.000Z</time>
      </trkpt>
      <trkpt lat="54.659955" lon="9.397986">
        <ele>65.044122</ele>
        <time>2021-01-24T09:59:50.000Z</time>
      </trkpt>
      <trkpt lat="54.659968" lon="9.397939">
        <ele>65.044122</ele>
        <time>2021-01-24T09:59:52.000Z</time>
      </trkpt>
      <trkpt lat="54.660010" lon="9.397824">
        <ele>65.044122</ele>
        <time>2021-01-24T09:59:58.000Z</time>
      </trkpt>
      <trkpt lat="54.660062" lon="9.397672">
        <ele>65.044122</ele>
        <time>2021-01-24T10:00:06.000Z</time>
      </trkpt>
      <trkpt lat="54.660083" lon="9.397471">
        <ele>65.044122</ele>
        <time>2021-01-24T10:00:14.000Z</time>
      </trkpt>
      <trkpt lat="54.660106" lon="9.397383">
        <ele>65.044122</ele>
        <time>2021-01-24T10:00:18.000Z</time>
      </trkpt>
      <trkpt lat="54.660124" lon="9.397302">
        <ele>65.044122</ele>
        <time>2021-01-24T10:00:22.000Z</time>
      </trkpt>
      <trkpt lat="54.660125" lon="9.397185">
        <ele>65.044122</ele>
        <time>2021-01-24T10:00:26.000Z</time>
      </trkpt>
      <trkpt lat="54.660158" lon="9.397114">
        <ele>65.044122</ele>
        <time>2021-01-24T10:00:30.000Z</time>
      </trkpt>
      <trkpt lat="54.660228" lon="9.396943">
        <ele>65.044122</ele>
        <time>2021-01-24T10:00:39.000Z</time>
      </trkpt>
      <trkpt lat="54.660267" lon="9.396798">
        <ele>65.044122</ele>
        <time>2021-01-24T10:00:46.000Z</time>
      </trkpt>
      <trkpt lat="54.660310" lon="9.396685">
        <ele>65.044122</ele>
        <time>2021-01-24T10:00:53.000Z</time>
      </trkpt>
    </trkseg>
  </trk>
</gpx>